[[{"header":{"parameterUnit":"m.s-1","parameterCategory":1,"la1":30.6,"la2":29.2853,"lo1":-89.7004,"lo2":-87.6739,"dy":0.0162,"dx":0.0183,"nx":112,"ny":82,"refTime":"2023-08-03T12:00:00:Z","depth":0,"parameterNumber":2,"parameterNumberName":"U-component_of_WINDS"},"data":[0.0,0.0,0.0,0.0,0.0,0.0,0.0,0.0,0.0,0.0,0.0,0.0,0.0,0.0,0.0,0.0,0.0,0.0,0.0,0.0,0.0,0.0,0.0,0.0,0.0,0.0,0.0,0.0,0.0,0.0,0.0,0.0,0.0,0.0,0.0,0.0,0.0,0.0,0.0,0.0,0.0,0.0,0.0,0.0,0.0,0.0,0.0,0.0,0.0,0.0,0.0,0.0,0.0,0.0,0.0,0.0,0.0,0.0,0.0,0.0,0.0,0.0,0.0,0.0,0.0,0.0,0.0,0.0,0.0,0.0,0.0,0.0,0.0,0.0,0.0,0.0,0.0,0.0,0.0,0.0,0.0,0.0,0.0,0.0,0.0,0.0,0.0,0.0,0.0,0.0,-4.8086,-5.2231,-5.8204,-6.1985,-6.2188,-6.1686,-5.8136,-5.0572,0.0,0.0,0.0,0.0,0.0,0.0,0.0,0.0,0.0,0.0,0.0,0.0,0.0,0.0,0.0,0.0,0.0,0.0,0.0,0.0,0.0,0.0,0.0,0.0,0.0,0.0,0.0,0.0,0.0,0.0,0.0,0.0,0.0,0.0,0.0,0.0,0.0,0.0,0.0,0.0,0.0,0.0,0.0,0.0,0.0,0.0,0.0,0.0,0.0,0.0,0.0,0.0,0.0,0.0,0.0,0.0,0.0,0.0,0.0,0.0,0.0,0.0,0.0,0.0,0.0,0.0,0.0,0.0,0.0,0.0,0.0,0.0,0.0,0.0,0.0,0.0,0.0,0.0,0.0,0.0,0.0,0.0,0.0,0.0,0.0,0.0,0.0,0.0,0.0,0.0,0.0,0.0,0.0,0.0,0.0,0.0,0.0,0.0,0.0,0.0,0.0,0.0,0.0,0.0,-4.7663,-5.5406,-5.9088,-6.0872,-6.0509,-5.9482,-5.6099,-4.9604,0.0,0.0,0.0,0.0,0.0,0.0,0.0,0.0,0.0,0.0,0.0,0.0,0.0,0.0,0.0,0.0,0.0,0.0,0.0,0.0,0.0,0.0,0.0,0.0,0.0,0.0,0.0,0.0,0.0,0.0,0.0,0.0,0.0,0.0,0.0,0.0,0.0,0.0,0.0,0.0,0.0,0.0,0.0,0.0,0.0,0.0,0.0,0.0,0.0,0.0,0.0,0.0,0.0,0.0,0.0,0.0,0.0,0.0,0.0,0.0,0.0,0.0,0.0,0.0,0.0,0.0,0.0,0.0,0.0,0.0,0.0,0.0,0.0,0.0,0.0,0.0,0.0,0.0,0.0,0.0,0.0,0.0,0.0,0.0,0.0,0.0,0.0,0.0,0.0,0.0,0.0,0.0,0.0,0.0,0.0,0.0,0.0,0.0,0.0,0.0,0.0,0.0,0.0,-4.6071,-4.9962,-5.5675,-5.8184,-5.9153,-5.8425,-5.7062,-5.3875,-4.8323,-4.5788,0.0,0.0,0.0,0.0,0.0,0.0,0.0,0.0,0.0,0.0,0.0,0.0,0.0,0.0,0.0,0.0,0.0,0.0,0.0,0.0,0.0,0.0,0.0,0.0,0.0,0.0,0.0,0.0,0.0,0.0,0.0,0.0,0.0,0.0,0.0,0.0,0.0,0.0,0.0,0.0,0.0,0.0,0.0,0.0,0.0,0.0,0.0,0.0,0.0,0.0,0.0,0.0,0.0,0.0,0.0,0.0,0.0,0.0,0.0,0.0,0.0,0.0,0.0,0.0,0.0,0.0,0.0,0.0,0.0,0.0,0.0,0.0,0.0,0.0,0.0,0.0,0.0,0.0,0.0,0.0,0.0,0.0,0.0,0.0,0.0,0.0,0.0,0.0,0.0,0.0,0.0,0.0,0.0,0.0,0.0,0.0,0.0,0.0,0.0,0.0,0.0,0.0,-4.9067,-5.1683,-5.5049,-5.6513,-5.7022,-5.6382,-5.4229,-5.1089,-4.6801,-4.3167,0.0,0.0,0.0,0.0,0.0,0.0,0.0,0.0,0.0,0.0,0.0,0.0,0.0,0.0,0.0,0.0,0.0,0.0,0.0,0.0,0.0,0.0,0.0,0.0,0.0,0.0,0.0,0.0,0.0,0.0,0.0,0.0,0.0,0.0,0.0,0.0,0.0,0.0,0.0,0.0,0.0,0.0,0.0,0.0,0.0,0.0,0.0,0.0,0.0,0.0,0.0,0.0,0.0,0.0,0.0,0.0,0.0,0.0,0.0,0.0,0.0,0.0,0.0,0.0,0.0,0.0,0.0,0.0,0.0,0.0,0.0,0.0,0.0,0.0,0.0,0.0,0.0,0.0,0.0,0.0,0.0,0.0,0.0,0.0,0.0,0.0,0.0,0.0,0.0,0.0,0.0,0.0,0.0,0.0,0.0,0.0,0.0,0.0,0.0,0.0,0.0,0.0,-4.7451,-5.0798,-5.4222,-5.4353,-5.4327,-5.4645,-5.0732,-4.7301,-4.502,-4.0432,0.0,0.0,0.0,0.0,0.0,0.0,0.0,0.0,0.0,0.0,0.0,0.0,0.0,0.0,0.0,0.0,0.0,0.0,0.0,0.0,0.0,0.0,0.0,0.0,0.0,0.0,0.0,0.0,0.0,0.0,0.0,0.0,0.0,0.0,0.0,0.0,0.0,0.0,0.0,0.0,0.0,0.0,0.0,0.0,0.0,0.0,0.0,0.0,0.0,0.0,0.0,0.0,0.0,0.0,0.0,0.0,0.0,0.0,0.0,0.0,0.0,0.0,0.0,0.0,0.0,0.0,0.0,0.0,0.0,0.0,0.0,0.0,0.0,0.0,0.0,0.0,0.0,0.0,0.0,0.0,0.0,0.0,0.0,0.0,0.0,0.0,0.0,0.0,0.0,0.0,0.0,0.0,0.0,0.0,0.0,0.0,0.0,0.0,0.0,0.0,0.0,0.0,-4.5876,-4.9166,-5.1503,-5.2328,-5.2666,-5.258,-5.009,-4.7233,-4.4138,0.0,0.0,0.0,0.0,0.0,0.0,0.0,0.0,0.0,0.0,0.0,0.0,0.0,0.0,0.0,0.0,0.0,0.0,0.0,0.0,0.0,0.0,0.0,0.0,0.0,0.0,0.0,0.0,0.0,0.0,0.0,0.0,0.0,0.0,0.0,0.0,0.0,0.0,0.0,0.0,0.0,0.0,0.0,0.0,0.0,0.0,0.0,0.0,0.0,0.0,0.0,0.0,0.0,0.0,0.0,0.0,0.0,0.0,0.0,0.0,0.0,0.0,0.0,0.0,0.0,0.0,0.0,0.0,0.0,0.0,0.0,0.0,0.0,0.0,0.0,0.0,0.0,0.0,0.0,0.0,0.0,0.0,0.0,0.0,0.0,0.0,0.0,0.0,0.0,0.0,0.0,0.0,0.0,0.0,0.0,0.0,0.0,0.0,0.0,0.0,0.0,0.0,-4.1045,-4.4657,-4.7665,-4.9482,-5.012,-5.0349,-5.025,-4.7694,-4.5045,-4.2522,0.0,0.0,0.0,0.0,0.0,0.0,0.0,0.0,0.0,0.0,0.0,0.0,0.0,0.0,0.0,0.0,0.0,0.0,0.0,0.0,0.0,0.0,0.0,0.0,0.0,0.0,0.0,0.0,0.0,0.0,0.0,0.0,0.0,0.0,0.0,0.0,0.0,0.0,0.0,0.0,0.0,0.0,0.0,0.0,0.0,0.0,0.0,0.0,0.0,0.0,0.0,0.0,0.0,0.0,0.0,0.0,0.0,0.0,0.0,0.0,0.0,0.0,0.0,0.0,0.0,0.0,0.0,0.0,0.0,0.0,0.0,0.0,0.0,0.0,0.0,0.0,0.0,0.0,0.0,0.0,0.0,0.0,0.0,0.0,0.0,0.0,0.0,0.0,0.0,0.0,0.0,0.0,0.0,0.0,0.0,0.0,0.0,0.0,0.0,0.0,0.0,0.0,-4.1026,-4.3856,-4.6426,-4.854,-4.7687,-4.7178,-4.7641,-4.2931,-3.9934,0.0,0.0,0.0,0.0,0.0,0.0,0.0,0.0,0.0,0.0,0.0,0.0,0.0,0.0,0.0,0.0,0.0,0.0,0.0,0.0,0.0,0.0,0.0,0.0,0.0,0.0,0.0,0.0,0.0,0.0,0.0,0.0,0.0,0.0,0.0,0.0,0.0,0.0,0.0,0.0,0.0,0.0,0.0,0.0,0.0,0.0,0.0,0.0,0.0,0.0,0.0,0.0,0.0,0.0,0.0,0.0,0.0,0.0,0.0,0.0,0.0,0.0,0.0,0.0,0.0,0.0,0.0,0.0,0.0,0.0,0.0,0.0,0.0,0.0,0.0,0.0,0.0,0.0,0.0,0.0,0.0,0.0,0.0,0.0,0.0,0.0,0.0,0.0,0.0,0.0,0.0,0.0,0.0,0.0,0.0,0.0,0.0,0.0,0.0,0.0,0.0,0.0,0.0,-3.9954,-4.3656,-4.6337,-4.6973,-4.6764,-4.6749,-4.7177,-4.4278,-4.1809,-4.0358,0.0,0.0,0.0,0.0,0.0,0.0,0.0,0.0,0.0,0.0,0.0,0.0,0.0,0.0,0.0,0.0,0.0,0.0,0.0,0.0,0.0,0.0,0.0,0.0,0.0,0.0,0.0,0.0,0.0,0.0,0.0,0.0,0.0,0.0,0.0,0.0,0.0,0.0,0.0,0.0,0.0,0.0,0.0,0.0,0.0,0.0,0.0,0.0,0.0,0.0,0.0,0.0,0.0,0.0,0.0,0.0,0.0,0.0,0.0,0.0,0.0,0.0,0.0,0.0,0.0,0.0,0.0,0.0,0.0,0.0,0.0,0.0,0.0,0.0,0.0,0.0,0.0,0.0,0.0,0.0,0.0,0.0,0.0,0.0,0.0,0.0,0.0,0.0,0.0,0.0,0.0,0.0,0.0,0.0,0.0,0.0,0.0,0.0,0.0,0.0,0.0,0.0,-3.9448,-4.2834,-4.5345,-4.621,-4.6044,-4.5984,-4.625,-4.4107,-4.1727,-3.9388,0.0,0.0,0.0,0.0,0.0,0.0,0.0,0.0,0.0,0.0,0.0,0.0,0.0,0.0,0.0,0.0,0.0,0.0,0.0,0.0,0.0,0.0,0.0,0.0,0.0,0.0,0.0,0.0,0.0,0.0,0.0,0.0,0.0,0.0,0.0,0.0,0.0,0.0,0.0,0.0,0.0,0.0,0.0,0.0,0.0,0.0,0.0,0.0,0.0,0.0,0.0,0.0,0.0,0.0,0.0,0.0,0.0,0.0,0.0,0.0,0.0,0.0,0.0,0.0,0.0,0.0,0.0,0.0,0.0,0.0,0.0,0.0,0.0,0.0,0.0,0.0,0.0,0.0,0.0,0.0,0.0,0.0,0.0,0.0,0.0,0.0,0.0,0.0,0.0,0.0,0.0,0.0,0.0,0.0,0.0,0.0,0.0,0.0,0.0,0.0,0.0,0.0,-3.9346,-4.1743,-4.3989,-4.5974,-4.5543,-4.5133,-4.5189,-4.305,-4.055,-3.7838,0.0,0.0,0.0,0.0,0.0,0.0,0.0,0.0,0.0,0.0,0.0,0.0,0.0,0.0,0.0,0.0,0.0,0.0,0.0,0.0,0.0,0.0,0.0,0.0,0.0,0.0,0.0,0.0,0.0,0.0,0.0,0.0,0.0,0.0,0.0,0.0,0.0,0.0,0.0,0.0,0.0,0.0,0.0,0.0,0.0,0.0,0.0,0.0,0.0,0.0,0.0,0.0,0.0,0.0,0.0,0.0,0.0,0.0,0.0,0.0,-4.4554,0.0,0.0,0.0,0.0,0.0,0.0,0.0,0.0,0.0,0.0,0.0,0.0,0.0,0.0,0.0,0.0,0.0,0.0,0.0,0.0,0.0,0.0,0.0,0.0,0.0,0.0,0.0,0.0,0.0,0.0,0.0,0.0,0.0,0.0,0.0,0.0,0.0,0.0,0.0,0.0,0.0,-3.9108,-4.2073,-4.4373,-4.5252,-4.5211,-4.5117,-4.5112,-4.3547,-4.1483,-3.8989,-3.7389,0.0,0.0,0.0,0.0,0.0,0.0,0.0,0.0,0.0,0.0,0.0,0.0,0.0,0.0,0.0,0.0,0.0,0.0,0.0,0.0,0.0,0.0,0.0,0.0,0.0,0.0,0.0,0.0,0.0,0.0,0.0,0.0,0.0,0.0,0.0,0.0,0.0,0.0,0.0,0.0,0.0,0.0,0.0,0.0,0.0,0.0,0.0,0.0,0.0,0.0,0.0,0.0,0.0,0.0,0.0,0.0,0.0,0.0,0.0,0.0,-4.6534,0.0,0.0,0.0,0.0,0.0,0.0,0.0,0.0,0.0,0.0,0.0,0.0,0.0,0.0,0.0,0.0,0.0,0.0,0.0,0.0,0.0,0.0,0.0,0.0,0.0,0.0,0.0,0.0,0.0,0.0,0.0,0.0,0.0,0.0,0.0,0.0,0.0,0.0,0.0,0.0,-3.925,-4.1942,-4.4138,-4.5218,-4.5342,-4.5282,-4.5107,-4.4016,-4.2222,-3.9589,-3.8202,0.0,0.0,0.0,0.0,0.0,0.0,0.0,0.0,0.0,0.0,0.0,0.0,0.0,0.0,0.0,0.0,0.0,0.0,0.0,0.0,0.0,0.0,0.0,0.0,0.0,0.0,0.0,0.0,0.0,0.0,0.0,0.0,0.0,0.0,0.0,0.0,0.0,0.0,0.0,0.0,0.0,0.0,0.0,0.0,0.0,0.0,0.0,0.0,0.0,0.0,0.0,0.0,0.0,-5.3555,-5.4414,-5.5117,-5.4961,-5.4902,-5.4785,-5.2568,-5.1106,-5.0166,-4.8316,0.0,0.0,0.0,0.0,0.0,0.0,0.0,0.0,0.0,0.0,0.0,0.0,0.0,0.0,0.0,0.0,0.0,0.0,0.0,0.0,0.0,0.0,0.0,0.0,-4.2258,-4.1675,0.0,0.0,0.0,0.0,0.0,0.0,0.0,0.0,0.0,0.0,0.0,0.0,-3.9074,-4.1504,-4.3588,-4.4917,-4.5241,-4.5188,-4.4698,-4.4031,-4.2525,-3.9857,-3.8912,-3.7137,0.0,0.0,0.0,0.0,0.0,0.0,0.0,0.0,0.0,0.0,0.0,0.0,0.0,0.0,0.0,0.0,0.0,0.0,0.0,0.0,0.0,0.0,0.0,0.0,0.0,0.0,0.0,0.0,0.0,0.0,0.0,0.0,-4.7981,-4.8989,0.0,0.0,0.0,0.0,0.0,0.0,0.0,0.0,0.0,0.0,0.0,0.0,0.0,-5.1601,-5.3418,-5.5723,-5.6933,-5.7051,-5.8633,-5.9453,-5.9531,-5.8828,-5.8515,-5.8496,-5.8144,0.0,-5.2125,-4.9563,0.0,0.0,0.0,0.0,0.0,0.0,0.0,0.0,0.0,0.0,0.0,0.0,0.0,0.0,0.0,0.0,0.0,0.0,0.0,0.0,0.0,0.0,-4.5673,-4.3451,-4.4047,-4.4596,0.0,-4.0575,-3.8842,-3.827,-3.6947,0.0,0.0,0.0,0.0,0.0,0.0,0.0,-3.7448,-4.075,-4.3047,-4.2918,-4.3847,-4.4027,-4.2933,-4.2741,-4.1816,-3.9747,-3.9003,-3.8175,-3.7089,-3.5555,0.0,0.0,0.0,0.0,0.0,0.0,0.0,0.0,0.0,0.0,0.0,0.0,0.0,0.0,0.0,0.0,0.0,0.0,0.0,0.0,0.0,0.0,0.0,0.0,0.0,0.0,0.0,0.0,0.0,-4.6634,-4.9084,-4.7541,-4.8409,-4.8101,0.0,0.0,0.0,0.0,0.0,0.0,0.0,0.0,0.0,-5.373,-5.5098,-5.6367,-5.7598,-5.9707,-6.0762,-6.0781,-6.1504,-6.1855,-6.1836,-6.0996,-6.0605,-6.0605,-6.0605,-5.9238,-5.6777,-5.3595,-5.1201,-4.9315,0.0,0.0,0.0,0.0,-4.5595,-4.6047,-4.7028,-4.7663,0.0,-4.6259,0.0,0.0,0.0,0.0,0.0,0.0,0.0,0.0,0.0,0.0,-4.6009,-4.5374,-4.5413,-4.5537,-4.5297,-4.3506,-4.1506,0.0,-3.9484,-3.8593,-3.6672,0.0,0.0,0.0,0.0,-3.7889,-3.8677,-4.0871,-4.2486,-4.2803,-4.3314,-4.3408,-4.2879,-4.2832,-4.2249,-4.0922,-4.0126,-3.9144,-3.7885,-3.711,-3.576,0.0,0.0,0.0,0.0,0.0,0.0,0.0,0.0,0.0,0.0,0.0,0.0,0.0,0.0,0.0,0.0,0.0,0.0,0.0,0.0,0.0,0.0,0.0,0.0,0.0,0.0,0.0,0.0,-4.799,-5.0144,-4.696,-4.9472,-4.9996,0.0,0.0,0.0,0.0,0.0,0.0,-5.2637,-5.4375,-5.6113,-5.7851,-5.9375,-6.0566,-6.1387,-6.2461,-6.3105,-6.332,-6.2871,-6.2773,-6.2969,-6.2109,-6.1582,-6.1367,-6.1367,-6.0879,-5.9844,-5.6767,-5.4213,-5.2073,-5.0011,-4.8351,-4.7178,-4.7837,-4.8377,-4.8913,-4.999,-5.076,-5.0885,-4.8606,0.0,-4.6182,-4.2335,0.0,0.0,0.0,0.0,-4.2739,-4.397,-4.496,-4.5768,-4.6413,-4.6067,-4.5787,-4.6432,-4.5547,-4.4008,0.0,-4.1643,-4.1133,-3.9044,0.0,0.0,0.0,0.0,-3.8406,-3.9438,-4.088,-4.197,-4.2393,-4.2624,-4.2681,-4.245,-4.2431,-4.2162,-4.1508,-4.0854,-3.9938,-3.8681,-3.8238,-3.6718,-3.4033,0.0,0.0,0.0,0.0,0.0,0.0,0.0,0.0,0.0,0.0,0.0,0.0,0.0,0.0,0.0,0.0,0.0,0.0,0.0,0.0,0.0,0.0,0.0,0.0,0.0,0.0,0.0,0.0,0.0,-4.951,-5.3598,0.0,0.0,0.0,0.0,-5.0982,-5.2556,-5.4363,-5.623,-5.7988,-5.9707,-6.1387,-6.2324,-6.3223,-6.4101,-6.3379,-6.3418,-6.4219,-6.2558,-6.2207,-6.2969,-6.2109,-6.125,-6.0469,-6.0469,-6.0019,-5.9121,-5.7285,-5.5892,-5.4652,-5.2147,-5.0945,-5.0646,-5.0685,-5.0657,-5.0462,-4.9721,-4.949,-4.9625,-5.0289,-4.8875,-4.6413,-4.3778,-4.2354,0.0,0.0,-4.2912,-4.4182,-4.4278,-4.496,-4.5614,-4.5652,-4.5633,-4.5614,-4.5671,-4.5594,-4.5248,0.0,-4.2854,-4.1769,-4.1607,0.0,-3.8858,-3.8024,-3.8646,-3.8962,-3.8204,-4.0269,-4.1508,-4.0708,-4.1373,-4.1527,-4.0708,-4.0631,-4.0612,-4.0573,-4.0516,-4.0458,-4.0381,-3.8854,-3.7904,-3.7723,-3.3782,0.0,0.0,0.0,0.0,0.0,0.0,0.0,0.0,0.0,0.0,0.0,0.0,0.0,0.0,0.0,0.0,0.0,0.0,0.0,0.0,0.0,0.0,0.0,0.0,0.0,0.0,0.0,0.0,-5.2914,-5.6684,0.0,-5.3899,-5.4656,-5.5533,-5.5871,-5.7542,-5.9095,-6.0332,-6.2134,-6.339,-6.3996,-6.4997,-6.5664,-6.5976,-6.5117,-6.4824,-6.5117,-6.3379,-6.2695,-6.2969,-6.2109,-6.1523,-6.1211,-6.0644,-6.0234,-5.9844,-5.8144,-5.6894,-5.5913,-5.4448,-5.3422,-5.2699,-5.213,-5.2146,-5.2305,-5.1438,-5.1083,-5.0798,-4.9452,-4.7682,-4.5778,-4.4316,-4.3662,-4.3412,-4.3412,-4.3835,-4.4432,-4.4998,-4.5364,-4.5594,-4.5594,-4.5594,-4.5594,-4.5594,-4.5171,-4.4836,-4.5094,-4.4201,-4.3239,-4.2739,-4.12,-3.9977,-3.9669,-3.9438,-3.9381,-3.9592,-4.0392,-4.0835,-4.0535,-4.0785,-4.0843,-4.0535,-4.0035,-3.9727,-3.9727,-3.92,-3.8642,-3.8084,-3.7488,-3.6392,-3.4757,-3.2737,-3.1379,0.0,0.0,0.0,0.0,0.0,0.0,0.0,0.0,0.0,0.0,0.0,0.0,0.0,0.0,0.0,0.0,0.0,0.0,0.0,0.0,0.0,0.0,0.0,0.0,0.0,-5.3857,-5.6799,-5.5107,-5.8896,-6.03,-5.6915,-5.8469,-5.9717,-5.9779,-6.1687,-6.3007,-6.3366,-6.4837,-6.5667,-6.5667,-6.6397,-6.681,-6.681,-6.5702,-6.5156,-6.5137,-6.3398,-6.2558,-6.2539,-6.1953,-6.1387,-6.082,-6.0254,-5.9668,-5.9023,-5.793,-5.7129,-5.6543,-5.5957,-5.5278,-5.4502,-5.3624,-5.3508,-5.3608,-5.2493,-5.1667,-5.0804,-4.8799,-4.7195,-4.5874,-4.4989,-4.4739,-4.4739,-4.4739,-4.4739,-4.4874,-4.546,-4.5594,-4.5594,-4.5594,-4.5383,-4.5171,-4.5171,-4.4489,-4.4066,-4.4643,-4.4509,-4.422,-4.397,-4.2508,-4.1477,-4.1747,-4.0593,-3.9996,-4.0835,-4.0689,-4.0496,-4.0496,-4.0496,-4.0496,-4.0496,-4.0015,-3.9592,-3.9323,-3.8469,-3.7603,-3.6731,-3.6442,-3.55,-3.3814,-3.241,-3.1141,-2.9962,0.0,0.0,0.0,0.0,0.0,0.0,0.0,0.0,0.0,0.0,0.0,0.0,0.0,0.0,0.0,0.0,0.0,0.0,0.0,0.0,0.0,0.0,0.0,-5.0808,-5.5222,-5.778,-5.6165,-6.0358,-6.2127,-5.8896,-6.2281,-6.4055,-6.2558,-6.4754,-6.5862,-6.5168,-6.5966,-6.6419,-6.64,-6.6521,-6.6574,-6.6554,-6.505,-6.4277,-6.4238,-6.2519,-6.1699,-6.1699,-6.1699,-6.0801,-5.9238,-5.9219,-5.8223,-5.664,-5.6601,-5.6601,-5.6601,-5.6601,-5.6411,-5.6071,-5.52,-5.4643,-5.4139,-5.2569,-5.0935,-4.9393,-4.854,-4.7635,-4.671,-4.5853,-4.5594,-4.5594,-4.5594,-4.5594,-4.5594,-4.5594,-4.5594,-4.5594,-4.5575,-4.4913,-4.4297,-4.4259,-4.3624,-4.3066,-4.3085,-4.3701,-4.4489,-4.5364,-4.4143,-4.3316,-4.4105,-4.2112,0.0,-4.1662,-4.1027,-4.0496,-4.0496,-4.0496,-4.0496,-4.0496,-4.0458,-4.0073,-3.9265,-3.8373,-3.7488,-3.6615,-3.5827,-3.5404,-3.5385,-3.2962,-3.0852,-2.9146,0.0,0.0,0.0,0.0,0.0,0.0,0.0,0.0,0.0,0.0,0.0,0.0,0.0,0.0,0.0,0.0,0.0,0.0,0.0,0.0,0.0,-5.1106,-5.4491,-5.5992,-5.8454,-6.0627,-6.1993,-6.3955,-6.5051,-6.4705,-6.5724,-6.6243,-6.5808,-6.7003,-6.7154,-6.5741,-6.6593,-6.6849,-6.6209,-6.6368,-6.614,-6.5522,-6.4616,-6.3835,-6.3193,-6.2184,-6.1699,-6.1699,-6.1699,-6.1094,-6.0039,-5.9453,-5.8574,-5.748,-5.6855,-5.6601,-5.6601,-5.6601,-5.6169,-5.5433,-5.4574,-5.2966,-5.1167,-5.062,-4.9296,-4.7824,-4.7572,-4.6874,-4.6068,-4.5824,-4.568,-4.5594,-4.5594,-4.5594,-4.5594,-4.5594,-4.5594,-4.5441,-4.4797,-4.447,-4.4143,-4.3566,-4.2758,-4.2335,-4.2989,-4.2777,-4.2758,-4.3643,-4.2874,-4.2239,-4.245,-4.1354,0.0,-4.0843,-4.065,-4.0496,-4.0496,-4.0496,-4.0496,-4.0496,-3.94,-3.8315,-3.7469,-3.6045,-3.4853,-3.3987,-3.3737,-3.3333,-3.2756,-3.2064,-3.116,0.0,0.0,0.0,0.0,0.0,0.0,0.0,0.0,0.0,0.0,0.0,0.0,0.0,0.0,0.0,0.0,0.0,0.0,0.0,0.0,0.0,0.0,-5.4482,-5.7761,-6.055,-6.1781,-6.307,-6.4936,-6.559,-6.607,-6.6551,-6.6898,-6.709,-6.709,-6.7571,-6.7436,-6.6436,-6.6638,-6.6535,-6.6033,-6.5823,-6.5498,-6.4974,-6.3973,-6.3242,-6.2795,-6.201,-6.1656,-6.1699,-6.1699,-6.1035,-5.9863,-5.9394,-5.8496,-5.7324,-5.6816,-5.6601,0.0,0.0,0.0,0.0,0.0,-5.1579,-4.9945,-4.9484,-4.8433,-4.729,-4.729,-4.6634,-4.583,-4.5803,-4.5747,-4.5673,-4.562,-4.5594,-4.5594,-4.5594,-4.5325,-4.494,-4.4412,-4.3758,-4.3124,-4.2662,-4.1873,-4.1412,-4.1912,-4.1604,0.0,-4.1912,-4.1893,-4.1923,-4.2297,-4.1296,-4.0631,-4.0989,-4.0727,-4.0496,-4.0496,-4.0496,-4.0496,-4.0496,-3.9304,0.0,0.0,0.0,-3.4199,-3.2949,-3.3256,0.0,0.0,0.0,-3.2314,-3.1442,0.0,0.0,0.0,-3.2545,-3.2961,0.0,0.0,0.0,0.0,0.0,0.0,0.0,0.0,0.0,0.0,0.0,0.0,0.0,0.0,0.0,0.0,-5.7818,-6.0223,-6.407,-6.4686,-6.5032,-6.5801,-6.5897,-6.5936,-6.6032,-6.6667,-6.709,-6.709,-6.7186,-6.7148,-6.6974,0.0,0.0,0.0,0.0,-6.4735,-6.4638,-6.325,-6.258,-6.259,-6.1846,-6.1553,-6.1679,-6.1699,-6.0781,-5.9199,-5.9199,-5.8203,-5.6601,-5.6601,-5.6484,-5.623,-5.5469,-5.5012,-5.4518,-5.1881,-5.0462,-4.9747,-4.8886,0.0,0.0,-4.7272,-4.666,-4.5899,-4.5861,-4.5821,-4.577,-4.5657,-4.561,-4.559,-4.5494,-4.4897,-4.4281,-4.4094,-4.2903,-4.1809,-4.1694,-4.1062,-4.0496,-4.0496,-4.0496,-4.0496,-4.0496,-4.1143,-4.1931,-4.2681,-4.1497,-4.0785,-4.1546,-4.0969,-4.0496,-4.0496,0.0,0.0,-4.0496,-3.9669,-3.8777,-3.7911,-3.6269,-3.4654,-3.3103,-3.3872,-3.393,-3.3064,-3.3821,-3.3782,-3.2891,-3.3686,-3.3705,-3.3026,-3.2314,-3.2833,0.0,0.0,0.0,0.0,0.0,0.0,0.0,0.0,0.0,0.0,0.0,0.0,0.0,0.0,0.0,-5.691,-6.0156,-6.2858,-6.4397,-6.5205,-6.5705,-6.5878,-6.5897,-6.6147,-6.6801,-6.7013,-6.709,-6.709,-6.7744,-6.7552,-6.6205,-6.659,-6.6571,-6.5917,-6.5074,-6.4301,-6.3596,-6.2772,-6.2012,-6.1349,0.0,0.0,-6.1544,-6.1656,-6.0781,-5.9199,-5.9199,-5.8203,-5.6601,-5.6601,-5.5762,-5.4492,-5.4316,-5.3808,-5.2947,-5.1049,-4.9839,-4.8982,-4.8123,-4.7244,-4.6502,-4.6502,-4.6309,-4.6069,-4.6053,-4.5979,0.0,-4.5777,-4.5768,-4.5606,-4.4896,-4.4587,-4.4137,-4.2828,-4.2249,-4.177,-4.1055,-4.0696,-4.0496,-4.0496,-4.0496,-4.0496,-4.0496,-4.065,-4.0804,-4.0977,-4.0727,-4.0554,-4.0727,-4.0593,-4.0496,-4.0496,-4.0496,-4.0496,-4.0496,-3.9123,-3.7873,-3.7,-3.5372,-3.4295,-3.3955,-3.4795,-3.4834,-3.3975,-3.4109,-3.3782,-3.2891,-3.3064,-3.343,-3.3936,-3.3801,-3.4276,0.0,0.0,0.0,0.0,0.0,0.0,0.0,0.0,0.0,0.0,0.0,-4.9344,-5.1801,0.0,-5.7895,-6.1098,-6.3398,-6.5057,-6.5756,-6.6224,-6.634,-6.5955,-6.5897,-6.6051,-6.6455,-6.6494,-6.6667,-6.7071,-6.7128,-6.6955,-6.6513,-6.6494,-6.632,-6.5897,-6.4628,-6.3743,-6.3288,-6.2142,-6.136,-6.1006,-6.1168,-6.1309,-6.1396,-6.1093,-6.0257,-5.9029,-5.871,-5.7812,-5.6562,-5.6133,-5.5176,-5.3965,-5.3516,-5.2812,-5.1855,-5.0176,-4.9277,-4.8711,-4.7402,-4.666,-4.6308,-4.6308,-4.6248,-4.6198,-4.6117,-4.6047,-4.5978,-4.5881,-4.5567,-4.5154,-4.4702,-4.394,-4.3102,-4.2294,-4.1742,-4.1291,-4.0845,-4.0696,-4.0645,-4.0645,-4.0645,-4.0641,-4.061,-4.0596,-4.0588,-4.0512,-4.0496,-4.0496,-4.0496,-4.0496,-4.0342,-3.9938,-3.99,-3.9727,-3.9277,-3.8084,-3.6988,-3.6154,-3.5315,-3.4641,-3.4225,-3.5045,-3.5084,-3.4225,-3.4622,-3.4641,-3.4192,-3.4192,-3.443,-3.4853,-3.4853,-3.5295,0.0,0.0,0.0,0.0,0.0,0.0,0.0,-4.2672,-4.4461,-4.6639,-4.9704,-5.3112,-5.6818,-5.869,-6.0967,-6.4954,-6.6151,-6.6693,-6.7038,-6.709,-6.6744,-6.5763,-6.5801,-6.5897,-6.5897,-6.5897,-6.6167,-6.6821,-6.6263,-6.6186,-6.6821,-6.6244,-6.582,-6.5647,-6.4128,-6.3224,-6.307,-6.155,-6.0847,-6.0953,-6.0999,-6.107,-6.1227,-6.0491,-5.969,-5.885,-5.8003,-5.7246,-5.6523,-5.5664,-5.4785,-5.3906,-5.3047,-5.207,-5.0976,-4.9453,-4.8789,-4.8418,-4.6855,-4.6308,-4.6308,-4.6308,-4.6308,-4.6289,-4.6174,-4.6027,-4.5859,-4.5725,-4.511,-4.4445,-4.4285,-4.3195,-4.2089,-4.1955,-4.1363,-4.0847,-4.0847,-4.0813,-4.0797,-4.0797,-4.0797,-4.0788,-4.0726,-4.0724,-4.066,-4.0515,-4.0496,-4.0496,-4.0496,-4.0496,-4.0246,-3.9611,-3.9534,-3.913,-3.8084,-3.7353,-3.6538,-3.5558,-3.55,-3.5192,-3.4468,-3.5141,-3.5173,-3.4468,-3.5135,-3.55,-3.55,-3.55,-3.55,-3.55,-3.55,-3.5923,-4.0015,-3.9941,-4.0444,-4.1469,-4.1525,-4.2645,0.0,-4.8364,-4.9181,-5.359,-5.5428,-5.6992,-5.9511,-6.167,-6.3619,-6.5331,-6.6644,-6.7362,-6.7134,-6.709,-6.6513,-6.4936,-6.5436,-6.5897,-6.5897,-6.5897,-6.5936,-6.6032,-6.5955,-6.5936,-6.6032,-6.5955,-6.5551,-6.4762,-6.382,-6.2954,-6.2243,-6.1281,-6.0804,-6.0819,-6.0935,-6.1014,-6.1009,-6.0333,-5.9609,-5.8831,-5.7377,-5.6699,-5.6523,-5.5664,-5.4785,-5.3906,-5.3047,-5.1738,-5.0215,-4.9258,-4.8418,-4.7617,-4.6641,-4.6308,-4.6308,-4.6308,-4.6308,-4.6308,-4.6289,-4.5742,-4.5095,-4.4961,-4.4339,-4.3536,-4.2773,-4.2422,-4.2106,-4.1458,-4.1134,-4.0986,-4.0986,-4.0877,-4.0797,-4.0797,-4.0797,-4.0793,-4.0781,-4.0781,-4.0723,-4.053,-4.0496,-4.0496,-4.0496,-4.0496,-4.0477,-4.0381,-4.0362,-3.9727,-3.8123,-3.7911,-3.718,-3.5596,-3.55,-3.5462,-3.5365,-3.5442,-3.5442,-3.5365,-3.5442,-3.55,-3.55,-3.55,-3.55,-3.55,-3.55,-3.5923,-4.1596,-4.1337,-4.1384,-4.2449,-4.3287,-4.4615,-4.7489,-4.884,-5.0417,-5.3735,-5.648,-5.9007,-6.1361,-6.334,-6.5184,-6.6992,-6.8029,-6.8311,-6.75,-6.7226,-6.6474,-6.4801,-6.4474,-6.4397,-6.4397,-6.4397,-6.4609,-6.5109,-6.5147,-6.5359,-6.5859,-6.5416,-6.4974,-6.4609,-6.3301,-6.2435,-6.2101,-6.1243,-6.08,-6.0781,-6.0338,-6.012,-6.0092,-5.8908,-5.804,-5.7403,-5.6768,-5.6535,-5.6484,-5.5117,-5.4336,-5.3828,-5.1973,-5.0508,-4.9394,-4.9023,-4.8359,-4.748,-4.6601,-4.6308,-4.6308,-4.6308,-4.6308,-4.6308,-4.6308,-4.6055,-4.5742,-4.5698,-4.507,-4.4328,-4.3977,-4.3117,-4.2279,-4.1972,-4.1502,-4.1126,-4.1126,-4.1077,-4.1026,-4.1026,-4.1026,-4.1017,-4.0925,-4.0917,-4.0857,-4.0692,-4.0642,-4.0616,-4.0616,-4.0545,-4.0323,-3.9842,-3.9361,-3.8757,-3.8065,-3.7546,-3.6942,-3.6231,-3.575,-3.55,-3.55,-3.55,-3.55,-3.55,-3.55,-3.55,-3.55,-3.55,-3.55,-3.55,-3.55,-3.5673,-4.2012,-4.2203,-4.2608,-4.357,-4.512,-4.67,-4.7733,-4.9401,-5.1433,-5.3931,-5.6662,-5.9411,-6.1995,-6.3649,-6.5329,-6.7486,-6.8468,-6.864,-6.7743,-6.7305,-6.6378,-6.4474,-6.3493,-6.2878,-6.2627,-6.3019,-6.3666,-6.4532,-6.4378,-6.4628,-6.5493,-6.4724,-6.4147,-6.3916,-6.2724,-6.1985,-6.1755,-6.1108,-6.08,-6.0781,-5.9915,-5.9492,-5.9446,-5.7901,-5.6867,-5.6258,-5.6074,-5.604,-5.6001,-5.4243,-5.3545,-5.3356,-5.1051,-4.9627,-4.8867,-4.8633,-4.7988,-4.7148,-4.6523,-4.6308,-4.6308,-4.6308,-4.6308,-4.6308,-4.6308,-4.6133,-4.5937,-4.5937,-4.5312,-4.459,-4.4355,-4.3359,-4.2344,-4.2129,-4.1621,-4.1191,-4.1191,-4.1191,-4.1191,-4.1191,-4.1191,-4.1171,-4.1077,-4.1054,-4.1023,-4.0922,-4.0836,-4.0767,-4.0726,-4.0648,-4.0365,-3.9786,-3.9122,-3.8644,-3.842,-3.7584,-3.6979,-3.6719,-3.5951,-3.5515,-3.55,-3.55,-3.55,-3.55,-3.55,-3.55,-3.55,-3.55,-3.55,-3.55,-3.55,-3.5365,-4.051,-4.2063,-4.407,-4.5063,-4.7074,-4.9171,-5.0635,-5.1609,-5.3108,-5.6168,-5.6876,-5.7912,-6.106,-6.2328,-6.3597,-6.5798,-6.7269,-6.7997,-6.7647,-6.7305,-6.6167,-6.3647,-6.2627,-6.1812,-6.0954,-6.2358,-6.3666,-6.4532,-6.382,-6.3724,-6.4589,-6.382,-6.2974,-6.2197,-6.2139,-6.1697,-6.0839,-6.08,-6.08,-6.0781,-5.9915,-5.9492,-5.9446,-5.7901,-5.6737,-5.587,-5.5227,-5.4942,-5.4811,-5.3079,-5.2423,-5.2379,-5.0677,-4.9555,-4.8808,-4.7949,-4.709,-4.6348,-4.6308,-4.6308,-4.6308,-4.6308,-4.6308,-4.6308,-4.6308,-4.5703,-4.5039,-4.5039,-4.4414,-4.3535,-4.2695,-4.2441,-4.2207,-4.1426,-4.1211,-4.1191,-4.1191,-4.1191,-4.1191,-4.1191,-4.1191,-4.1191,-4.1191,-4.1191,-4.1191,-4.1191,-4.1078,-4.095,-4.0805,-4.0789,-4.0789,-4.075,-4.0664,-4.0291,-3.9431,-3.8562,-3.766,-3.6764,-3.6006,-3.5579,-3.5507,-3.55,-3.55,-3.55,-3.55,-3.55,-3.55,-3.55,-3.55,-3.55,-3.55,-3.5045,-4.3143,-4.4822,-4.652,-4.8587,-4.9921,-5.0963,-5.1993,-5.2236,-5.2827,-5.4863,-5.4845,-5.5105,-5.7235,-5.8712,-6.0381,-6.2717,-6.5169,-6.6838,-6.7052,-6.679,-6.5753,-6.3552,-6.2589,-6.1774,-6.0877,-6.13,-6.1993,-6.2878,-6.2666,-6.2858,-6.3685,-6.2954,-6.2377,-6.212,-6.1543,-6.1089,-6.08,-6.08,-6.0512,-5.9915,-5.8511,-5.753,-5.6964,-5.6433,-5.6086,-5.5865,-5.5089,-5.4821,-5.4762,-5.3025,-5.2007,-5.1402,-4.9679,-4.8541,-4.7795,-4.6934,-4.6478,-4.6308,-4.6308,-4.6308,-4.6308,-4.6308,-4.6308,-4.6308,-4.6308,-4.6094,-4.5742,-4.5156,-4.5215,-4.5215,-4.4355,-4.3691,-4.3183,-4.293,-4.2012,-4.1191,-4.1191,-4.1191,-4.1191,-4.1191,-4.1191,-4.1191,-4.1191,-4.1191,-4.1191,-4.1191,-4.1081,-4.0955,-4.0813,-4.0797,-4.0797,-4.0797,-4.0784,-4.0431,-3.9591,-3.8721,-3.7853,-3.6949,-3.6116,-3.5659,-3.5635,-3.5635,-3.5635,-3.5635,-3.5023,-3.4994,-3.5554,-3.4372,-3.4064,-3.4622,-3.4045,-3.3622,-4.5092,-4.6891,-4.8598,-5.115,-5.221,-5.2729,-5.3072,-5.2971,-5.2958,-5.3499,-5.3146,-5.2994,-5.3759,-5.495,-5.6638,-5.9043,-6.1478,-6.3582,-6.5015,-6.4832,-6.4275,-6.3562,-6.265,-6.1889,-6.132,-6.1262,-6.1493,-6.2062,-6.1812,-6.1993,-6.2839,-6.2089,-6.1639,-6.1639,-6.1089,-6.08,-6.08,-6.0492,-5.9742,-5.8588,-5.7522,-5.6541,-5.5684,-5.5395,-5.5325,-5.5341,-5.4181,-5.3751,-5.3714,-5.2317,-5.1444,-5.0862,-4.9116,-4.8165,-4.7655,-4.6462,-4.6115,-4.6245,-4.6289,-4.6308,-4.6308,-4.6308,-4.6308,-4.6308,-4.6308,-4.6308,-4.6172,-4.5625,-4.5644,-4.5625,-4.4766,-4.3887,-4.3164,-4.2871,-4.1973,-4.1191,-4.1191,-4.1191,-4.1191,-4.1191,-4.0957,-4.0742,-4.0742,-4.0742,-4.084,-4.1152,-4.1127,-4.1049,-4.0955,-4.093,-4.093,-4.093,-4.0613,-4.0205,-3.9676,-3.8549,-3.7621,-3.7039,-3.6236,-3.5755,-3.5707,-3.5707,-3.5707,-3.5707,-3.5119,-3.4921,-3.5208,-3.4047,-3.3567,-3.376,-3.3201,-3.2767,-4.6355,-4.8269,-5.0336,-5.2726,-5.3943,-5.4404,-5.3885,-5.3763,-5.3408,-5.2068,-5.1762,-5.1438,-5.0625,-5.1242,-5.2656,-5.5078,-5.6755,-5.8849,-6.2013,-6.1966,-6.2158,-6.3615,-6.2872,-6.2197,-6.212,-6.2101,-6.2082,-6.2043,0.0,-6.1146,-6.1985,-6.1243,-6.08,-6.08,-6.08,-6.0781,-6.0723,-5.9838,-5.8569,-5.7003,-5.6945,-5.6503,-5.5665,-5.4876,-5.4491,-5.4395,-5.2654,-5.1904,-5.1846,-5.1029,-5.0726,-5.0584,-4.8943,-4.8321,-4.8151,-4.6493,-4.5978,-4.6113,-4.6245,-4.6289,-4.6308,-4.6308,-4.6308,-4.6289,-4.625,-4.6269,-4.6269,-4.6133,-4.5566,-4.4785,-4.3867,-4.3027,-4.2207,-4.1445,-4.123,-4.1191,-4.1191,-4.1191,-4.1191,-4.1191,-4.0508,-3.9902,-3.9902,-3.9863,-4.0137,-4.0996,-4.1133,-4.1152,-4.1191,-4.1191,-4.1191,-4.1191,-4.0319,-3.9691,-3.9651,-3.8087,-3.7067,-3.6956,-3.6285,-3.5845,-3.5723,-3.572,-3.572,-3.572,-3.5674,-3.5263,-3.4497,-3.4416,-3.388,-3.2948,-3.2885,-3.2433,-4.9106,-5.0982,-5.2728,-5.4606,-5.5001,-5.4662,-5.3591,-5.267,-5.1509,-4.9632,-4.828,-4.7216,-4.6397,-4.8416,-5.1006,-5.3427,-5.7125,-6.0525,-6.2951,-6.4027,-6.4356,-6.387,-6.3888,-6.3474,-6.2216,-6.2101,-6.1831,-6.1166,-6.0935,-6.0896,-6.1108,-6.0916,-6.08,-6.08,-6.08,-6.0492,-5.9838,-5.8357,-5.7426,-5.6983,-5.6349,-5.5915,-5.5665,-5.4876,-5.4491,-5.4395,-5.2654,-5.1904,-5.1846,-5.1029,-4.9951,-4.8773,-4.833,-4.7476,-4.6428,-4.5982,-4.5881,-4.5963,-4.5988,-4.6122,-4.6308,-4.6308,-4.6308,-4.6172,-4.5527,-4.5781,-4.5898,-4.3945,-4.418,-4.4648,-4.3125,-4.2578,-4.2344,-4.2148,-4.1641,-4.1191,-4.1191,-4.1191,-4.1191,-4.1191,-4.0508,-3.9902,-3.9902,-3.9355,-3.9238,-4.0098,-4.0234,-4.0469,-4.1113,-4.1191,-4.1191,-4.1191,-4.039,-3.9587,-3.8942,-3.7888,-3.6968,-3.6299,-3.6089,-3.5953,-3.5929,-3.5929,-3.5929,-3.5929,-3.5245,-3.4776,-3.4571,-3.3223,-3.2422,-3.2154,-3.1463,-3.1023,-5.1846,-5.3627,-5.5088,-5.603,-5.5967,-5.5059,-5.2696,-5.1485,-4.9966,-4.6838,-4.548,-4.4599,-4.3809,-4.5736,-4.8361,-5.1169,-5.4785,-5.8276,-6.1236,-6.2698,-6.3612,-6.401,-6.4039,-6.3666,-6.2724,-6.2312,-6.1735,-6.0858,-6.08,-6.08,-6.08,-6.08,-6.08,-6.08,-6.0435,-5.9646,-5.8415,-5.7464,-5.681,-5.6426,-5.5934,-5.5511,-5.5145,-5.4318,-5.3722,-5.328,0.0,-5.1375,-5.1337,-5.0894,-4.9894,-4.8625,-4.8259,-4.7358,-4.6229,-4.585,-4.5777,-4.5855,-4.5855,-4.5979,-4.6122,-4.6199,-4.5993,-4.5703,-4.5605,-4.5371,-4.4922,-4.3848,-4.3691,-4.3633,-4.2656,-4.2148,-4.1875,-4.1875,-4.1523,-4.1191,-4.1191,-4.1191,-4.1094,-4.0703,-4.0234,-3.9902,-3.9902,-3.9492,-3.9473,-4.0332,-4.0469,-4.0644,-4.1133,-4.1191,-4.1191,-4.1191,-4.0078,-3.9121,-3.8633,-3.7441,-3.6523,-3.6035,-3.5996,-3.5996,-3.5996,-3.5996,-3.5996,-3.5996,-3.5114,-3.4464,-3.407,-3.2708,-3.1808,-3.1366,-3.0808,-3.0525,-5.4304,-5.5831,-5.6982,-5.6982,-5.6556,-5.518,-5.1555,-5.0212,-4.8496,-4.4224,-4.3332,-4.313,-4.2433,-4.3699,-4.5938,-4.9243,-5.1683,-5.4634,-5.8762,-6.0234,-6.1708,-6.3973,-6.373,-6.3297,-6.3085,-6.2356,-6.1588,-6.0779,-6.0647,-6.0678,-6.0781,-6.08,-6.0742,-6.0627,-5.9781,-5.8588,-5.7022,-5.6887,-5.6445,-5.5703,-5.5588,-5.5184,-5.4472,-5.3491,-5.2615,-5.1846,-5.0933,0.0,-5.0519,-5.0404,-4.9837,-4.899,-4.824,-4.7451,-4.6644,-4.5883,-4.5673,-4.5763,-4.5763,-4.5819,-4.5894,-4.5919,-4.5566,-4.5214,-4.5644,-4.4882,-4.3965,-4.4375,-4.3476,-4.2383,-4.2266,-4.1719,-4.1191,-4.1171,-4.1171,-4.1171,-4.1171,-4.1171,-4.0956,-4.0195,-3.9941,-3.9882,-3.9902,-3.9805,-4.0019,-4.0898,-4.1035,-4.1035,-4.1035,-4.1035,-4.1035,-4.1035,-3.9473,-3.8437,-3.8437,-3.6934,-3.5996,-3.5996,-3.5996,-3.5996,-3.5996,-3.5898,-3.582,-3.582,-3.4961,-3.4101,-3.3242,-3.2539,-3.1697,-3.0721,-3.0652,-3.0584,-5.5641,-5.6395,-5.6926,-5.6926,-5.5854,-5.4028,-5.1012,-4.8712,-4.6331,-4.3157,-4.2506,-4.247,-4.2323,-4.4158,-4.6764,-5.0068,-5.2068,-5.4858,-5.9538,-6.1056,-6.2104,-6.32,-6.3593,-6.3236,-6.186,-6.1251,-6.0751,-6.0265,-5.987,-5.9996,-6.0757,-6.08,-6.0473,-5.9742,-5.8934,-5.8011,-5.7003,-5.6291,-5.5838,-5.5684,-5.503,-5.4645,-5.4453,-5.2856,-5.2038,-5.1827,-5.0298,0.0,-4.9567,-4.8856,-4.8067,-4.7317,-4.7173,-4.6586,-4.5806,-4.5671,-4.562,-4.5635,-4.5635,-4.5711,-4.5716,-4.514,-4.537,-4.5537,-4.3587,-4.382,-4.4375,-4.2402,-4.2129,-4.2246,-4.1582,-4.1308,-4.1171,-4.1055,-4.1028,-4.1028,-4.1028,-4.1028,-4.0989,-4.0833,-4.0226,-3.9768,-3.9882,-3.9297,-3.9121,-3.998,-4.0137,-4.0137,-4.0137,-4.0137,-4.0137,-4.0137,-3.8574,-3.7539,-3.7539,-3.6582,-3.5996,-3.5996,-3.5996,-3.5996,-3.5996,-3.5312,-3.4922,-3.4922,-3.4062,-3.3223,-3.2402,-3.2266,-3.1738,-3.0858,-3.074,-3.068,-5.7166,-5.7847,-5.8091,-5.764,-5.6167,-5.3781,-4.9836,-4.7216,-4.463,-4.1142,-4.0763,-4.1185,-4.1607,-4.3663,-4.6067,-4.847,-5.0618,-5.3353,-5.7336,-5.949,-6.1014,-6.1991,-6.2766,-6.2635,-6.1194,-6.0413,-5.9927,-5.9763,-5.9545,-5.9823,-6.0746,-6.0358,-5.9742,-5.8896,-5.805,-5.7203,-5.6329,-5.5915,-5.5703,-5.5684,-5.4876,-5.426,-5.378,-5.2481,-5.1673,-5.1202,-4.9952,0.0,-4.9336,-4.8471,-4.7625,-4.6904,-4.6904,-4.6374,-4.5594,-4.5594,-4.5594,-4.5594,-4.5594,-4.5643,-4.5553,-4.4756,-4.4574,-4.4631,-4.4277,-4.3546,-4.2752,-4.2436,-4.1968,-4.1482,-4.109,-4.0992,-4.0986,-4.0914,-4.0905,-4.0905,-4.0905,-4.0905,-4.0905,-4.0905,-4.0552,-4.029,-4.0361,-4.0075,-3.9989,-4.0419,-4.0525,-4.041,-3.9961,-3.9492,-3.9219,-3.9219,-3.8476,-3.7793,-3.7344,-3.6504,-3.5996,-3.5996,-3.5566,-3.5527,-3.5976,-3.5156,-3.4707,-3.4707,-3.4297,-3.3457,-3.2207,-3.2207,-3.1758,-3.0898,-3.0768,-3.0695,-5.8159,-5.8815,-5.8953,-5.824,-5.6369,-5.3553,-4.9184,-4.6241,-4.3497,-4.0157,-3.9845,-4.0451,-4.1442,-4.3167,-4.5039,-4.6801,-4.86,-5.1059,-5.4821,-5.7209,-5.9081,-6.0509,-6.1484,-6.1589,-6.0375,-5.9552,-5.914,-5.923,-5.9186,-5.9536,-6.045,-5.9772,-5.8983,-5.8177,-5.7401,-5.6579,-5.5703,-5.5703,-5.5607,-5.5434,-5.4607,-5.376,-5.2895,-5.2029,-5.1202,-5.0366,-4.949,0.0,0.0,-4.7913,-4.7182,-4.6624,-4.6624,-4.6201,-4.5594,-4.5594,-4.5594,-4.5594,-4.5594,-4.5594,-4.5498,-4.4797,-4.4156,-4.3816,-4.4773,-4.3192,-4.1326,-4.2513,-4.1871,-4.0797,-4.0797,-4.0797,-4.0793,-4.0788,-4.0784,-4.0775,-4.0733,-4.0766,-4.0784,-4.0784,-4.0784,-4.0773,-4.0793,-4.0746,-4.0706,-4.0706,-4.0624,-4.0268,-3.9389,-3.8864,-3.8416,-3.8065,-3.8027,-3.7773,-3.707,-3.6387,-3.5996,-3.5996,-3.5351,-3.5293,-3.5976,-3.498,-3.4414,-3.4414,-3.4062,-3.3242,-3.1914,-3.1914,-3.1562,-3.0898,-3.0793,-3.0745,-5.7831,-5.8115,-5.8101,-5.8027,-5.5665,-5.2684,-5.0056,-4.6415,-4.3296,-4.2194,-4.146,-4.146,-4.3002,-4.346,-4.4378,-4.6709,-4.6691,-4.8251,-5.3739,-5.5091,-5.6351,-5.8659,-5.9692,-5.9882,-5.8961,-5.8431,-5.8326,-5.8735,-5.8481,-5.8667,-5.949,-5.9117,-5.8505,-5.769,-5.7227,-5.6579,-5.5703,-5.5703,-5.5318,-5.4607,-5.3722,-5.2856,-5.1981,-5.1183,-5.0337,-4.9471,-4.8606,0.0,0.0,-4.6182,-4.5787,-4.5729,-4.5729,-4.5671,-4.5594,-4.5594,-4.5594,-4.5594,-4.5594,-4.5594,-4.5594,-4.5518,-4.4978,-4.4136,-4.2774,-4.2175,-4.1856,-4.1229,-4.0914,-4.0797,-4.0797,-4.0797,-4.0773,-4.0715,-4.0721,-4.068,-4.0547,-4.0617,-4.0721,-4.0721,-4.0721,-4.0726,-4.0781,-4.0193,-3.9737,-3.9737,-3.9069,-3.8257,-3.7374,-3.7934,-3.7843,-3.6318,-3.6206,-3.6211,-3.6133,-3.6055,-3.5996,-3.5996,-3.5918,-3.5918,-3.5996,-3.4394,-3.3516,-3.3516,-3.2012,-3.1172,-3.1016,-3.1016,-3.0976,-3.0898,-3.0898,-3.0879,-5.6804,-5.7629,-5.7997,-5.7997,-5.5225,-5.1977,-5.0051,-4.6067,-4.2543,-4.1754,-4.1315,-4.1425,-4.2561,-4.2782,-4.324,-4.4709,-4.4268,-4.5204,-4.9406,-5.0861,-5.2641,-5.5741,-5.7083,-5.7908,-5.8252,-5.8097,-5.7867,-5.7577,-5.7423,-5.7286,-5.7121,-5.6988,-5.6793,-5.6455,-5.5822,-5.5431,-5.5331,-5.4586,-5.4186,-5.4118,-5.2527,-5.1668,-5.1503,-5.0699,-4.9993,-4.9356,-4.849,0.0,0.0,-4.5951,-4.5594,-4.5594,-4.5594,-4.5594,-4.5594,-4.5594,-4.5594,-4.5594,-4.5594,-4.5594,-4.5594,-4.5594,-4.5057,-4.4253,-4.359,-4.2335,-4.1164,-4.1345,-4.1016,-4.0616,-4.0616,-4.0616,-4.0617,-4.0589,-4.0588,-4.0432,-3.9896,-4.021,-4.0433,-3.9951,-4.024,-4.0589,-4.0604,-4.0427,-4.0272,-4.0272,-3.9582,-3.8773,-3.789,-3.765,-3.7102,-3.5908,-3.6373,-3.6562,-3.6035,-3.5996,-3.5996,-3.5996,-3.5508,-3.5449,-3.5976,-3.4336,-3.3398,-3.3398,-3.3262,-3.2422,-3.0898,-3.1914,-3.1894,-3.0898,-3.0898,-3.0898,-5.5225,-5.651,-5.7281,-5.7281,-5.4436,-5.1279,-4.9904,-4.5975,-4.2488,-4.1937,-4.1625,-4.1699,-4.2506,-4.2653,-4.2837,-4.3423,-4.302,-4.3608,-4.636,-4.7752,-4.9619,-5.2608,-5.3986,-5.5269,-5.6793,-5.7373,-5.7409,-5.684,-5.6363,-5.5849,-5.5262,-5.5061,-5.5108,-5.5471,-5.4853,-5.4511,-5.4538,-5.3637,-5.3122,-5.2968,-5.1263,-5.043,-5.0387,-4.9588,-4.8957,-4.8442,-4.7728,0.0,0.0,-4.5744,-4.5504,-4.5594,-4.5594,-4.5594,-4.5594,-4.5594,-4.5594,-4.5594,-4.5594,-4.5594,-4.5594,-4.5594,-4.4863,-4.3951,-4.3951,-4.2508,-4.1008,-4.1643,-4.1162,-4.0496,-4.0496,-4.0496,-4.0496,-4.0496,-4.0496,-4.0342,-3.9785,-4.0092,-4.0323,-3.9765,-4.0112,-4.0419,-4.0189,-4.0009,-3.9818,-3.9567,-3.8877,-3.817,-3.754,-3.6949,-3.6347,-3.5741,-3.6352,-3.6593,-3.6012,-3.5995,-3.5996,-3.5996,-3.543,-3.5351,-3.5976,-3.457,-3.3789,-3.3789,-3.4121,-3.332,-3.1289,-3.2715,-3.2539,-3.0918,-3.1152,-3.1152,-5.3023,-5.4418,-5.5611,-5.5611,-5.3188,-5.0582,-4.9701,-4.6379,-4.3496,-4.3478,-4.2837,-4.2525,-4.3332,-4.3496,-4.3496,-4.3515,-4.3496,-4.4048,-4.5681,-4.6617,-4.7737,-4.9352,-5.0306,-5.1793,-5.4197,-5.5886,-5.6822,-5.6804,-5.5317,0.0,-5.4418,-5.3665,-5.3771,-5.4969,-5.4687,-5.4104,-5.3217,-5.3217,-5.2386,-5.0816,-4.9995,-4.9164,-4.8301,-4.7502,-4.6834,-4.6317,0.0,0.0,0.0,-4.5262,-4.5302,-4.5594,-4.5594,-4.5594,-4.5594,-4.5594,-4.5594,-4.5594,-4.5594,-4.5594,-4.5594,-4.5594,-4.447,-4.3104,-4.3104,-4.2489,-4.1788,-4.1788,-4.1162,-4.0496,-4.0496,-4.0496,-4.0496,-4.0496,-4.0496,-4.0496,-4.0496,-4.0496,-4.0496,-4.0496,-4.0496,-4.0246,-3.9457,-3.8611,-3.7738,-3.6873,-3.6065,-3.5545,-3.5526,-3.5575,-3.5611,-3.5591,-3.5667,-3.5761,-3.5898,-3.5951,-3.5996,-3.5996,-3.5996,-3.5996,-3.5996,-3.5156,-3.4687,-3.4687,-3.3848,-3.3008,-3.2187,-3.3008,-3.2539,-3.0918,-3.1777,-3.1719,-5.0263,-5.1499,-5.2325,-5.2325,-5.0288,-4.8195,-4.792,-4.5168,-4.2837,-4.3404,-4.2855,-4.2543,-4.3349,-4.3039,-4.2855,-4.3423,-4.3039,-4.3039,-4.4103,-4.5424,-4.7297,-5.0068,-5.3059,-5.5207,-5.5978,-5.5996,-5.5739,-5.5207,-5.4179,-5.3353,-5.2784,-5.1995,-5.2242,-5.3732,-5.3136,-5.2791,-5.2794,-5.1433,-5.0615,-5.0397,-4.9257,-4.842,-4.7872,-4.7629,-4.6938,0.0,0.0,0.0,0.0,-4.4793,-4.4806,-4.4943,-4.518,-4.5253,-4.5292,-4.5513,-4.5594,-4.5594,-4.5594,-4.5594,-4.5498,-4.4921,-4.4355,-4.3816,-4.3278,-4.2085,-4.0912,-4.0912,-4.0708,-4.0496,-4.0496,-4.0496,-4.0496,-4.0496,-4.0496,-4.0342,-3.9804,-4.0112,-4.0342,-3.9785,-4.0131,-4.0246,-3.9438,-3.9534,-3.9438,-3.8604,-3.8257,-3.7873,-3.7296,-3.6709,-3.6145,-3.5586,-3.559,-3.5663,-3.5758,-3.5878,-3.5921,-3.5921,-3.5974,-3.5996,-3.5996,-3.459,-3.4082,-3.4687,-3.3301,-3.2441,-3.2207,-3.2461,-3.1992,-3.0918,-3.1172,-3.1152,-4.7234,-4.8867,-4.9866,-4.9866,-4.8251,-4.6636,-4.6636,-4.4635,-4.2892,-4.3387,-4.3094,-4.291,-4.3423,-4.3075,-4.291,-4.3423,-4.3075,-4.2928,-4.3441,-4.4892,-4.6874,-4.9536,-5.2894,-5.4987,-5.4987,-5.5078,-5.4803,-5.4014,-5.3206,-5.2399,-5.1591,-5.1077,-5.1261,-5.227,-5.1811,-5.1534,-5.1473,-4.9894,-4.9084,-4.9008,-4.7611,-4.6819,-4.6561,-4.6246,-4.5749,0.0,0.0,0.0,0.0,-4.4447,-4.446,-4.4618,-4.4837,-4.4908,-4.4943,-4.5302,-4.5332,-4.5204,-4.5007,-4.4873,-4.4592,-4.3751,-4.3331,-4.3022,-4.2216,-4.15,-4.0912,-4.0593,-4.0496,-4.0496,-4.0496,-4.0265,-4.0054,-4.0054,-3.9804,-3.9515,-3.9342,-3.9688,-3.99,-3.94,-3.9708,-3.9688,-3.8527,-3.8719,-3.8796,-3.7988,-3.7873,-3.7777,-3.7546,-3.6769,-3.6173,-3.5962,-3.5714,-3.5582,-3.5611,-3.5752,-3.5814,-3.5814,-3.5866,-3.5899,-3.5899,-3.4552,-3.4065,-3.4611,-3.3294,-3.2613,-3.2613,-3.2343,-3.207,-3.1836,-3.1191,-3.0898,0.0,-4.6304,-4.79,-4.7938,-4.6838,-4.5736,-4.5736,-4.4562,0.0,-4.3441,-4.3423,-4.3423,-4.3423,-4.3423,-4.3441,-4.3496,-4.3515,-4.3515,-4.3515,-4.5021,-4.6746,-4.8379,-5.0692,-5.2087,-5.1922,-5.3316,-5.3904,-5.3075,-5.2289,-5.1499,-5.0747,-5.06,-5.0545,-5.0545,-5.049,-5.0141,-4.9519,-4.8655,-4.781,-4.7003,-4.5498,-4.4746,-4.4654,-4.392,-4.3734,0.0,0.0,0.0,0.0,-4.4121,-4.4175,-4.4514,-4.454,-4.4553,-4.4593,-4.4867,-4.4778,-4.4436,-4.3942,-4.3529,-4.3077,-4.2277,-4.1631,-4.1034,-4.0224,-4.0794,-4.1527,-4.0669,-4.0458,-4.0496,-4.0439,-3.9861,-3.9304,-3.9304,-3.8623,-3.8219,-3.9034,-3.9207,-3.9207,-3.9207,-3.9207,-3.8661,-3.6981,-3.675,-3.6519,-3.5712,-3.5635,-3.5942,-3.6692,-3.6096,-3.5865,-3.6615,-3.5981,-3.55,-3.55,-3.5626,-3.5696,-3.5696,-3.5703,-3.5707,-3.5707,-3.4932,-3.4507,-3.4507,-3.3715,-3.3253,-3.3216,-3.2516,-3.2578,-3.3281,-3.1641,-3.0898,-4.171,0.0,-4.4121,-4.4528,-4.4342,-4.4048,0.0,-4.3772,-4.3331,-4.2708,-4.258,-4.258,-4.258,-4.258,-4.2782,-4.3387,-4.3515,-4.3515,-4.3515,-4.6471,-4.926,-5.093,-5.2729,-5.3115,-5.1261,-5.1977,-5.2234,-5.1426,-5.0618,-5.0088,-4.9904,-4.8673,-4.7975,-4.7975,-4.737,-4.7553,-4.86,-4.7791,-4.6966,-4.6177,-4.5792,-4.5296,-4.4691,-4.4507,-4.4119,0.0,0.0,0.0,-4.3761,-4.3662,-4.3679,-4.3775,-4.4031,-4.4132,-4.4115,-4.3838,-4.3668,-4.3504,-4.277,-4.2463,-4.2239,-4.1427,-4.065,-3.9845,-3.9042,-3.9738,-4.0631,-3.9804,-4.0035,-4.0362,-3.9746,-3.9438,-3.9304,-3.9304,-3.8623,-3.8065,-3.8257,-3.8315,-3.8315,-3.8315,-3.8315,-3.7969,-3.6885,-3.7257,-3.7411,-3.6538,-3.6988,-3.7488,-3.768,-3.6949,-3.6481,-3.6673,-3.5981,-3.55,-3.55,-3.5577,-3.5616,-3.5616,-3.5663,-3.5707,-3.5707,-3.4925,-3.4497,-3.4507,-3.3665,-3.292,-3.2317,-3.2124,-3.2197,-3.2461,-3.1387,-3.0898,-4.0833,-4.1578,-4.2422,-4.2995,-4.3124,-4.3196,-4.3444,-4.3221,-4.2749,-4.2083,-4.1839,-4.1779,-4.1901,-4.2132,-4.2561,-4.3369,-4.3515,-4.3772,-4.4488,-4.6471,-4.8728,-5.1151,-5.1885,-5.1958,-5.1408,-5.1408,-5.0949,-4.9738,-4.9242,-4.8673,-4.7939,-4.704,-4.6562,-4.6562,-4.6122,-4.6324,-4.7186,-4.6397,-4.5773,-4.5351,-4.4984,-4.4562,-4.4158,-4.4158,-4.3901,0.0,0.0,0.0,-4.2983,-4.3349,-4.3057,-4.245,-4.301,-4.2995,-4.2653,-4.2562,-4.2416,-4.2202,-4.1552,-4.0988,-4.0466,-4.0037,-3.94,-3.8739,-3.8307,-3.8563,-3.8897,-3.8448,-3.8648,-3.8897,-3.8448,-3.8047,-3.7733,-3.7733,-3.7103,-3.6597,-3.696,-3.7037,-3.7037,-3.7037,-3.7141,-3.6949,-3.6105,-3.6469,-3.6692,-3.6212,-3.6538,-3.6988,-3.7353,-3.6673,-3.6288,-3.6654,-3.5981,-3.55,-3.55,-3.5528,-3.5371,-3.4971,-3.499,-3.5016,-3.5016,-3.4212,-3.3774,-3.381,-3.3386,-3.2947,-3.2554,-3.216,-3.198,-3.2047,-3.1167,-3.0784,-4.0466,-4.1086,-4.1703,-4.2382,-4.2559,-4.2675,-4.3142,-4.2773,-4.2137,-4.1359,-4.116,-4.117,-4.1197,-4.1669,-4.2336,-4.3246,-4.3554,-4.4287,-4.6012,-4.6269,-4.7297,-5.0086,-5.0031,-5.018,-5.1151,-5.0747,-4.9793,-4.8233,-4.8012,-4.7352,-4.5975,-4.5773,-4.5718,-4.5718,-4.559,-4.5535,-4.5535,-4.4984,-4.4654,-4.4525,-4.3828,-4.3515,-4.3515,-4.3515,-4.3515,-4.3496,0.0,0.0,-4.2341,-4.2892,-4.2323,-4.1168,-4.1864,-4.1699,-4.1126,-4.1275,-4.1151,-4.0848,-4.031,-3.9505,-3.8689,-3.856,-3.8208,-3.7785,-3.7525,-3.7193,-3.6844,-3.6723,-3.6939,-3.7173,-3.7041,-3.6453,-3.5895,-3.5895,-3.5289,-3.4883,-3.5564,-3.5715,-3.5715,-3.5715,-3.5894,-3.5842,-3.5167,-3.5223,-3.5376,-3.5376,-3.5398,-3.5727,-3.6534,-3.5967,-3.5808,-3.6615,-3.5981,-3.55,-3.55,-3.55,-3.5141,-3.4263,-3.4205,-3.4148,-3.4013,-3.316,-3.274,-3.2792,-3.2856,-3.2926,-3.2983,-3.2247,-3.1884,-3.1879,-3.1014,-3.0638,-3.9093,-3.9827,-4.0618,-4.1682,-4.1937,-4.1958,-4.2041,-4.2372,-4.2115,-4.0212,-4.0646,-4.105,-3.9996,-4.0379,-4.1292,-4.2605,-4.378,-4.5333,-4.7609,-4.7939,-4.8122,-4.8636,-4.9829,-4.9903,-4.803,-4.8361,-4.8287,-4.7351,-4.6654,-4.6159,-4.5902,-4.5259,-4.4892,-4.4892,-4.4213,-4.3882,-4.3882,-4.4415,-4.436,-4.3681,-4.357,-4.3515,-4.3515,-4.3515,-4.3515,-4.346,0.0,-4.2415,-4.2268,-4.1699,-4.1315,-4.1113,-4.1242,-4.1205,-4.102,-4.0383,-4.0129,-3.9989,-3.9225,-3.886,-3.8597,-3.7915,-3.7629,-3.7305,-3.5873,-3.5399,-3.5195,-3.4507,-3.5717,-3.7041,-3.6283,-3.5989,-3.5895,-3.5895,-3.5289,-3.4732,-3.4864,-3.4883,-3.4883,-3.4883,-3.4923,-3.4905,-3.4773,-3.4803,-3.4813,-3.4813,-3.5027,-3.5441,-3.6252,-3.586,-3.5808,-3.6615,-3.5981,-3.55,-3.55,-3.55,-3.5141,-3.4263,-3.4205,-3.3878,-3.3122,-3.2314,-3.1884,-3.1902,-3.1908,-3.1953,-3.2018,-3.1889,-3.1837,-3.1879,-3.1014,-3.0611,-3.8311,-3.8937,-3.9627,-4.0158,-4.1139,-4.1923,-4.1813,-4.168,-4.1202,-3.9937,-3.9999,-4.0184,-3.974,-4.0496,-4.1669,-4.3152,-4.3924,-4.4718,-4.5819,-4.5981,-4.6431,-4.7668,-4.8107,-4.8174,-4.7791,-4.7681,-4.7131,-4.5902,-4.5461,-4.5057,-4.4617,-4.425,-4.4048,-4.4048,-4.3681,-4.3515,-4.3515,-4.3864,-4.3864,-4.3515,-4.3515,-4.3515,-4.3496,-4.3039,-4.2837,-4.2818,0.0,-4.1809,-4.1038,-4.1552,-4.0983,-3.9848,-4.0286,-4.0194,-3.9756,-3.9386,-3.9239,-3.9203,-3.8836,-3.8707,-3.8579,-3.7768,-3.7217,-3.6615,-3.5371,-3.4692,-3.427,-3.3899,-3.4548,-3.5273,-3.4877,-3.4765,-3.4765,-3.4765,-3.4492,-3.422,-3.422,-3.422,-3.422,-3.422,-3.433,-3.4423,-3.4423,-3.4572,-3.4694,-3.4694,-3.4793,-3.5077,-3.5583,-3.5436,-3.548,-3.5993,-3.5712,-3.55,-3.55,-3.5064,-3.443,-3.3545,-3.3506,-3.3122,-3.2295,-3.2314,-3.2352,-3.2352,-3.1929,-3.1721,-3.1741,-3.1267,-3.1066,-3.107,-3.0674,-3.0516,-3.7601,-3.8176,-3.8734,-3.8734,-4.0051,-4.146,-4.1828,-4.1411,-4.0832,-4.0458,-4.0326,-4.0215,-3.9922,-4.0772,-4.2022,-4.3569,-4.393,-4.4145,-4.4516,-4.4392,-4.4955,-4.6697,-4.6201,-4.6155,-4.7257,-4.6737,-4.5845,-4.462,-4.4454,-4.4158,-4.3533,-4.3515,-4.3515,-4.3515,-4.3515,-4.3515,-4.3515,-4.3296,-4.3296,-4.3515,-4.3296,-4.3222,-4.3185,-4.2396,-4.2029,-4.2011,-4.1827,-4.1038,-3.9974,-4.102,-4.0377,-3.8762,-3.9386,-3.9239,-3.8707,-3.8707,-3.8707,-3.8707,-3.8707,-3.8579,-3.8285,-3.7492,-3.6666,-3.5844,-3.4986,-3.4302,-3.3807,-3.3807,-3.3807,-3.3807,-3.3807,-3.3807,-3.3807,-3.3807,-3.3807,-3.3807,-3.3807,-3.3807,-3.3807,-3.3807,-3.3961,-3.4099,-3.4099,-3.433,-3.4494,-3.4494,-3.454,-3.4655,-3.4851,-3.4963,-3.5088,-3.5289,-3.5369,-3.5355,-3.5212,-3.4584,-3.3744,-3.2699,-3.2795,-3.2449,-3.1448,-3.1987,-3.2314,-3.2314,-3.1718,-3.141,-3.1385,-3.0731,-3.0404,-3.0404,-3.0404,-3.0428,-3.6694,-3.7415,-3.799,-3.799,-3.8606,-3.9764,-4.1791,-4.2121,-4.2023,-4.209,-4.2542,-4.2344,-4.0433,-4.0559,-4.1476,-4.3103,-4.3763,-4.4585,-4.6035,-4.5634,-4.5255,-4.5448,-4.4813,-4.4374,-4.4489,-4.4258,-4.4072,-4.3963,-4.3743,-4.3552,-4.3515,-4.3515,-4.3515,-4.3515,-4.3515,-4.3515,-4.3515,-4.2763,-4.2763,-4.3496,-4.2745,-4.2396,-4.2359,-4.1535,-4.1187,-4.1132,-4.0396,-4.001,-3.9845,-3.9221,-3.8872,-3.8707,-3.8762,-3.8762,-3.8707,-3.8707,-3.8707,-3.8707,-3.8707,-3.8212,-3.7456,-3.6652,-3.5807,-3.4949,-3.4137,-3.3844,-3.3807,-3.3807,-3.3807,-3.3807,-3.3807,-3.3807,-3.3807,-3.3807,-3.3807,-3.3807,-3.3807,-3.3807,-3.3807,-3.3807,-3.3815,-3.3829,-3.3829,-3.3855,-3.3868,-3.3868,-3.408,-3.4235,-3.4258,-3.454,-3.4753,-3.4763,-3.4981,-3.4905,-3.4339,-3.4244,-3.3506,-3.1891,-3.2487,-3.2179,-3.0558,-3.0558,-3.0577,-3.0577,-3.0519,-3.05,-3.05,-3.0423,-3.0404,-3.0404,-3.0404,-3.041,-3.5977,-3.6958,-3.7905,-3.7905,-3.8447,-3.9462,-4.1221,-4.1937,-4.2244,-4.2272,-4.2855,-4.2798,-4.1094,-4.0951,-4.1297,-4.1903,-4.255,-4.3166,-4.3777,-4.3605,-4.359,-4.4012,-4.3815,-4.3594,-4.3461,-4.338,-4.2953,-4.1971,-4.181,-4.1569,-4.1102,-4.1084,-4.1084,-4.1084,-4.1084,-4.1084,-4.1084,-4.1053,-4.1053,-4.1084,-4.1408,-4.1365,-4.1032,-4.0575,-4.0158,-3.9851,-3.988,-3.9625,-3.9166,-3.9368,-3.9148,-3.8707,-3.8707,-3.8707,-3.8707,-3.8707,-3.8377,-3.7936,-3.7936,-3.7437,-3.6597,-3.5771,-3.5261,-3.4857,-3.4045,-3.3807,-3.3807,-3.3807,-3.3807,-3.3807,-3.3807,-3.3807,-3.3807,-3.3807,-3.3807,-3.3807,-3.3807,-3.3807,-3.3807,-3.3807,-3.3807,-3.3807,-3.3807,-3.3807,-3.3807,-3.3807,-3.3889,-3.4006,-3.4183,-3.4311,-3.4475,-3.4674,-3.4784,-3.4529,-3.3774,-3.3695,-3.2999,-3.1312,-3.1806,-3.1641,-3.0442,-3.0404,-3.0404,-3.0404,-3.0404,-3.0404,-3.0404,-3.0404,-3.0404,-3.0404,-3.0404,-3.0404,-3.5385,-3.6383,-3.755,-3.755,-3.8108,-3.9157,-4.1102,-4.1931,-4.2489,-4.3217,-4.3031,-4.2405,-4.139,-4.0832,-4.0663,-4.1136,-4.1627,-4.2016,-4.2252,-4.21,-4.2115,-4.2591,-4.2418,-4.2147,-4.1775,-4.189,-4.1454,-4.0172,-4.025,-4.0121,-3.9627,-3.9591,-3.9591,-3.9591,-3.9591,-3.9591,-3.9591,-3.9439,-3.9188,-3.8883,-3.9066,-3.9351,-3.9678,-3.926,-3.8931,-3.874,-3.9101,-3.904,-3.8744,-3.9294,-3.8957,-3.8081,-3.7901,-3.7952,-3.8099,-3.8084,-3.7734,-3.7238,-3.6982,-3.6286,-3.5381,-3.4785,-3.4407,-3.4098,-3.3553,-3.339,-3.339,-3.339,-3.339,-3.3378,-3.3254,-3.3506,-3.3807,-3.3807,-3.3807,-3.3807,-3.3807,-3.3807,-3.3807,-3.3807,-3.3807,-3.3807,-3.3807,-3.3807,-3.3807,-3.3807,-3.3587,-3.3482,-3.3667,-3.3481,-3.3443,-3.3759,-3.3771,-3.3472,-3.2713,-3.2628,-3.2034,-3.062,-3.0864,-3.0807,-3.0207,-3.0241,-3.0267,-3.0267,-3.0361,-3.0404,-3.0404,-3.0404,-3.0404,-3.0404,-3.0404,-3.025,-3.4912,-3.5605,-3.6795,-3.6812,-3.7364,-3.87,-4.1627,-4.2286,-4.2929,-4.5229,-4.3301,-4.1204,-4.1204,-4.0003,-3.9478,-4.095,-4.1187,-4.1441,-4.2168,-4.1644,-4.1187,-4.117,-4.051,-3.9791,-3.9056,-3.9461,-3.9487,-3.8729,-3.925,-3.9572,-3.9554,-3.9554,-3.9554,-3.9554,-3.9554,-3.9536,-3.9536,-3.803,-3.7267,-3.7231,-3.5652,-3.6113,-3.8344,-3.7528,-3.7433,-3.7858,-3.7875,-3.8181,-3.8655,-3.8673,-3.7924,-3.6739,-3.6203,-3.6327,-3.6772,-3.6704,-3.6721,-3.6662,-3.5867,-3.4763,-3.3684,-3.3701,-3.3136,-3.2483,-3.2501,-3.2501,-3.2501,-3.2501,-3.2501,-3.2422,-3.2077,-3.2879,-3.3775,-3.3788,-3.3788,-3.3807,-3.3788,-3.3788,-3.3788,-3.377,-3.377,-3.377,-3.3788,-3.3788,-3.3788,-3.3788,-3.3109,-3.2601,-3.2583,-3.1898,-3.1501,-3.1778,-3.1792,-3.158,-3.1053,-3.0996,-3.0628,-2.9753,-2.9696,-2.9696,-2.9705,-2.9893,-2.9999,-2.9999,-3.0254,-3.0398,-3.0398,-3.0398,-3.0398,-3.0398,-3.0385,-2.9929,-3.424,-3.4891,-3.6231,-3.7297,-3.8531,-3.9969,-4.1863,-4.2286,-4.2794,-4.4553,-4.2929,-4.1204,-4.1204,-4.0409,-3.9757,-3.9665,-4.007,-4.0307,-4.002,-3.9783,-3.9462,-3.8954,-3.8684,-3.8464,-3.8261,-3.836,-3.8155,-3.7411,-3.7523,-3.7377,-3.6827,-3.6792,-3.6552,-3.6023,-3.6006,-3.5765,-3.5232,-3.5166,-3.494,-3.4561,-3.4471,-3.4765,-3.5446,-3.5542,-3.549,-3.5324,-3.5652,-3.5879,-3.6069,-3.6591,-3.6576,-3.6221,-3.606,-3.6096,-3.6167,-3.5632,-3.5079,-3.458,-3.4348,-3.3303,-3.2177,-3.2693,-3.2339,-3.1824,-3.234,-3.2501,-3.2501,-3.2501,-3.2501,-3.2357,-3.1736,-3.1839,-3.2259,-3.2825,-3.3385,-3.3642,-3.3091,-3.2949,-3.2797,-3.221,-3.21,-3.2284,-3.2871,-3.2949,-3.2949,-3.2949,-3.2748,-3.2412,-3.1825,-3.1562,-3.1434,-3.1513,-3.1525,-3.1449,-3.1302,-3.0765,-3.0339,-3.0069,-2.9521,-2.9365,-2.9687,-2.9765,-2.9788,-2.9788,-2.9864,-2.9904,-2.9904,-3.004,-3.0129,-3.011,-2.9684,-2.9357,-3.4096,-3.457,-3.566,-3.7402,-3.853,-3.9578,-4.1084,-4.21,-4.2997,-4.3927,-4.2337,-4.0865,-4.1153,-4.0358,-3.9622,-3.9469,-3.9571,-3.952,-3.9056,-3.8751,-3.8396,-3.7956,-3.7905,-3.7787,-3.7483,-3.7449,-3.7009,-3.5983,-3.5898,-3.5537,-3.4771,-3.4721,-3.4523,-3.4083,-3.4066,-3.3846,-3.3406,-3.3416,-3.3279,-3.2949,-3.2992,-3.3012,-3.3048,-3.3911,-3.4265,-3.4241,-3.4693,-3.4906,-3.4906,-3.487,-3.4849,-3.4831,-3.4607,-3.4664,-3.4796,-3.4321,-3.3864,-3.3407,-3.3073,-3.2039,-3.0958,-3.1394,-3.1046,-3.0575,-3.1324,-3.1342,-3.1168,-3.1464,-3.1342,-3.0975,-3.0371,-3.0453,-3.0904,-3.1742,-3.2288,-3.2547,-3.2203,-3.2118,-3.1971,-3.1488,-3.1397,-3.1562,-3.2045,-3.2118,-3.2118,-3.2118,-3.1861,-3.1366,-3.0558,-3.0448,-3.0448,-3.0448,-3.0448,-3.032,-3.0001,-2.9531,-2.9255,-2.9255,-2.8796,-2.8787,-2.9398,-2.9523,-2.9579,-2.9579,-2.9349,-2.9213,-2.9213,-2.9011,-2.8928,-2.8928,-2.8553,-2.8205,-3.4036,-3.4346,-3.5096,-3.7169,-3.7847,-3.8381,-3.9858,-4.1743,-4.3189,-4.3189,-4.16,-4.04,-4.1085,-3.9986,-3.9208,-3.9893,-3.9377,-3.8853,-3.87,-3.8108,-3.7652,-3.7516,-3.7567,-3.7297,-3.6558,-3.6558,-3.5983,-3.4506,-3.4387,-3.4117,-3.344,-3.3406,-3.3372,-3.3305,-3.3237,-3.3203,-3.3203,-3.2479,-3.2141,-3.2192,-3.1532,-3.119,-3.1241,-3.2594,-3.3475,-3.3956,-3.4374,-3.4571,-3.4482,-3.3452,-3.3039,-3.2965,-3.2477,-3.2615,-3.3022,-3.2877,-3.2827,-3.271,-3.1926,-3.0874,-2.9886,-2.9989,-2.9499,-2.9027,-2.977,-2.9533,-2.9145,-2.982,-2.9516,-2.8897,-2.8457,-2.8883,-2.9632,-3.0381,-3.0706,-3.0921,-3.1135,-3.1181,-3.1162,-3.1107,-3.1089,-3.1107,-3.1181,-3.1181,-3.1181,-3.1181,-3.0461,-2.9685,-2.9032,-2.8909,-2.8895,-2.8895,-2.8968,-2.8638,-2.778,-2.775,-2.778,-2.7695,-2.7688,-2.8026,-2.8748,-2.9087,-2.926,-2.926,-2.8632,-2.833,-2.833,-2.7609,-2.7266,-2.7266,-2.7206,-2.6752,-3.2441,-3.2956,-3.4276,-3.6392,-3.8285,-3.9847,-4.0757,-4.1339,-4.1677,-4.1677,-4.1305,-4.1018,-4.117,-3.9986,-3.9039,-3.9191,-3.8616,-3.7719,-3.6495,-3.6174,-3.5667,-3.4523,-3.4878,-3.4945,-3.4201,-3.4641,-3.4607,-3.3711,-3.3643,-3.3575,-3.3406,-3.3406,-3.3136,-3.2564,-3.1989,-3.1664,-3.1664,-3.0937,-3.0869,0.0,-3.1275,-3.119,-3.1207,-3.1529,-3.1743,-3.1844,-3.1963,-3.2004,-3.2019,-3.2346,-3.2457,-3.2457,-3.2354,-3.2374,-3.2389,-3.1808,-3.123,-3.0721,-3.0532,-2.9505,-2.8398,-2.9025,-2.8704,-2.8196,-2.901,-2.9128,-2.9027,-2.9196,-2.9128,-2.8842,-2.8116,-2.8066,-2.8169,-2.8099,-2.9268,-3.0282,-2.9712,-2.9583,-2.9404,-2.8786,-2.8661,-2.884,-2.9494,-2.9583,-2.9583,-2.9583,-2.8603,-2.8015,-2.8467,-2.825,-2.8062,-2.8062,-2.862,-2.8418,-2.6979,-2.7438,-2.753,-2.6906,-2.6869,-2.6943,-2.7115,-2.7779,-2.8143,-2.8143,-2.7395,-2.7001,-2.7001,-2.7,-2.6988,-2.6978,-2.6489,-2.619,-3.2416,-3.2703,-3.3567,-3.6041,-3.7819,-3.9097,-3.9471,-3.9836,-4.0,-3.9623,-3.9892,-4.0062,-3.972,-3.9009,-3.8349,-3.7986,-3.7309,-3.6512,-3.5701,-3.4991,-3.4247,-3.3491,-3.3744,-3.3829,-3.344,-3.3744,-3.366,-3.2933,-3.2865,-3.2713,-3.2374,-3.2019,-3.1647,-3.1258,-3.0533,-3.0161,-3.0161,-3.0125,-3.0125,-3.0161,-3.0497,-3.0666,-3.0683,-3.1038,-3.1004,-3.0666,-3.0666,-3.0463,-3.0178,-3.0567,-3.0719,-3.0719,-3.0719,-3.0719,-3.0668,-3.0296,-2.9907,-2.9567,-2.9567,-2.8805,-2.7874,-2.8298,-2.7909,-2.7435,-2.8197,-2.818,-2.7977,-2.8332,-2.8163,-2.7808,-2.7385,-2.7283,-2.7233,-2.7057,-2.7955,-2.8798,-2.857,-2.8528,-2.8404,-2.7968,-2.7897,-2.8035,-2.8439,-2.8223,-2.8007,-2.8007,-2.7108,-2.658,-2.701,-2.6886,-2.6741,-2.6741,-2.7121,-2.6934,-2.5867,-2.618,-2.629,-2.6043,-2.6025,-2.619,-2.6583,-2.6631,-2.6843,-2.7218,-2.6429,-2.6025,-2.6025,-2.5743,-2.5606,-2.5597,-2.527,-2.5144,-3.2797,-3.2958,-3.3316,-3.5645,-3.6916,-3.7602,-3.7602,-3.8177,-3.8508,-3.7783,-3.8251,-3.8623,-3.7921,-3.7436,-3.6993,-3.6355,-3.5499,-3.4897,-3.4891,-3.3814,-3.3048,-3.3013,-3.3136,-3.3169,-3.3034,-3.3136,-3.2899,-3.2175,-3.1989,-3.1667,-3.1038,-3.0311,-2.9922,-2.9922,-2.9178,-2.8857,-2.8993,-2.9465,-2.9465,-2.901,-2.9617,-2.9922,-2.9939,-3.0531,-3.0565,-3.0089,-2.9973,-2.955,-2.8993,-2.8993,-2.8993,-2.8993,-2.8993,-2.8993,-2.8993,-2.8993,-2.8908,-2.8807,-2.8807,-2.8281,-2.7604,-2.7604,-2.7199,-2.681,-2.7418,-2.7182,-2.6826,-2.7435,-2.7182,-2.6691,-2.6691,-2.6691,-2.6691,-2.6691,-2.6938,-2.7303,-2.7619,-2.7692,-2.7692,-2.7692,-2.7692,-2.7657,-2.7517,-2.7003,-2.6546,-2.6419,-2.5778,-2.5406,-2.5671,-2.5529,-2.5443,-2.5567,-2.5598,-2.533,-2.4649,-2.4725,-2.4874,-2.5012,-2.5022,-2.5335,-2.6062,-2.545,-2.5452,-2.6172,-2.554,-2.5191,-2.5191,-2.453,-2.419,-2.419,-2.419,-2.419,-3.2157,-3.3156,-3.4249,-3.4681,-3.5784,-3.6768,-3.6768,-3.7395,-3.774,-3.7083,-3.7562,-3.7888,-3.7116,-3.5477,-3.4237,-3.412,-3.2991,-3.2087,-3.1979,-3.178,-3.162,-3.1523,-3.2073,-3.2209,-3.1562,-3.2073,-3.2141,-3.1393,-3.0751,-3.0362,-3.026,-2.9533,-2.9145,-2.9145,-2.8383,-2.8298,-2.8993,-2.8416,-2.8416,-2.8993,-2.9094,-2.9145,-2.9162,-2.9247,-2.9583,-3.0055,-2.9414,-2.9094,-2.8993,-2.8993,-2.8993,-2.8993,-2.8993,-2.8993,-2.8993,-2.8993,-2.8552,-2.7959,-2.7959,-2.7469,-2.6843,-2.6843,-2.6776,-2.6708,-2.681,-2.6776,-2.6708,-2.6826,-2.6776,-2.6691,-2.6691,-2.6691,-2.6691,-2.6691,-2.6741,-2.6791,-2.6841,-2.6857,-2.6857,-2.6857,-2.6857,-2.6653,-2.6023,-2.5835,-2.5546,-2.4897,-2.4422,-2.4614,-2.595,-2.5213,-2.4807,-2.545,-2.5572,-2.5011,-2.3543,-2.407,-2.4201,-2.3542,-2.3489,-2.3674,-2.4071,-2.3973,-2.4107,-2.452,-2.441,-2.4355,-2.4355,-2.4245,-2.419,-2.419,-2.419,-2.419,-3.229,-3.2683,-3.3198,-3.4249,-3.494,-3.5275,-3.4942,-3.5738,-3.6269,-3.5168,-3.5292,-3.547,-3.5123,-3.3986,-3.2965,-3.2572,-3.1651,-3.084,-3.0401,-2.9989,-2.9554,-2.9119,-2.97,-3.0133,-3.0136,-3.077,-3.1173,-3.1205,-3.0531,-3.0108,-3.0108,-2.8975,-2.8332,-2.8332,-2.7588,-2.7351,-2.7723,-2.7756,-2.7976,-2.8332,-2.7909,-2.7926,-2.8315,-2.7892,-2.8112,-2.8787,-2.8467,-2.8095,-2.7723,-2.7723,-2.7723,-2.7723,-2.7723,-2.7723,-2.7723,-2.7723,-2.7486,-2.7182,-2.7182,-2.6962,-2.6691,-2.6691,-2.6691,-2.6691,-2.6691,-2.6691,-2.6641,-2.6384,-2.6504,-2.6641,-2.6367,-2.6487,-2.6691,-2.6691,-2.6691,-2.6691,-2.6691,-2.6691,-2.6691,-2.6691,-2.637,-2.5981,-2.5659,-2.4899,-2.4255,-2.3932,-2.3386,-2.3246,-2.3941,-2.355,-2.3348,-2.3663,-2.3725,-2.3541,-2.2963,-2.325,-2.3377,-2.3206,-2.32,-2.3277,-2.3414,-2.3414,-2.35,-2.3649,-2.3816,-2.4006,-2.419,-2.3816,-2.3827,-2.4208,-2.4006,-2.4016,-3.1998,-3.2012,-3.2097,-3.3466,-3.3961,-3.4063,-3.3798,-3.4426,-3.4771,-3.3717,-3.3311,-3.3122,-3.2928,-3.2315,-3.1611,-3.0942,-3.0074,-2.9389,-2.9048,-2.8363,-2.7854,-2.7687,-2.7944,-2.8382,-2.9009,-2.9517,-2.9988,-3.0421,-2.99,-2.9568,-2.9514,-2.8246,-2.7519,-2.7519,-2.681,-2.6505,-2.6691,-2.7128,-2.7398,-2.7503,-2.6687,-2.6686,-2.7311,-2.6618,-2.6703,-2.7345,-2.7467,-2.7215,-2.6691,-2.6691,-2.6691,-2.6691,-2.6691,-2.6691,-2.6691,-2.6691,-2.6573,-2.642,-2.642,-2.6302,-2.6149,-2.6149,-2.6083,-2.6017,-2.6168,-2.6151,-2.6029,-2.5857,-2.605,-2.6245,-2.5888,-2.6068,-2.6315,-2.6315,-2.6182,-2.6184,-2.6607,-2.6539,-2.642,-2.642,-2.5828,-2.527,-2.5084,-2.4137,-2.3342,-2.3139,-2.2649,-2.2364,-2.2564,-2.2429,-2.2364,-2.2564,-2.2398,-2.2374,-2.2573,-2.2599,-2.2704,-2.2958,-2.2965,-2.3002,-2.3069,-2.3081,-2.3117,-2.32,-2.3357,-2.3599,-2.3937,-2.3437,-2.3466,-2.3937,-2.3692,-2.3703,-3.0709,-3.116,-3.1727,-3.189,-3.2656,-3.3541,-3.4217,-3.3969,-3.3594,-3.3522,-3.2555,-3.1486,-3.0792,-3.0168,-2.9549,-2.888,-2.766,-2.6985,-2.7542,-2.7027,-2.703,-2.8212,-2.7837,-2.7708,-2.8383,-2.848,-2.847,-2.8362,-2.8256,-2.8116,-2.7924,-2.7182,-2.6759,-2.6759,-2.6048,-2.5998,-2.6691,-2.6295,-2.6329,-2.6759,-2.5744,-2.5559,-2.6081,-2.5538,-2.5575,-2.6117,-2.6572,-2.6725,-2.6691,-2.6691,-2.6691,-2.6691,-2.6691,-2.6691,-2.6691,-2.6691,-2.6251,-2.5659,-2.5659,-2.5203,-2.4609,-2.4609,-2.4358,-2.415,-2.4726,-2.4627,-2.4448,-2.5067,-2.5259,-2.5262,-2.5259,-2.5259,-2.5278,-2.5278,-2.4783,-2.4769,-2.6353,-2.615,-2.5659,-2.5659,-2.505,-2.4338,-2.363,-2.3444,-2.3156,-2.2448,-2.2313,-2.255,-2.3241,-2.2719,-2.2567,-2.3274,-2.2733,-2.231,-2.2324,-2.2307,-2.2338,-2.2349,-2.2349,-2.2467,-2.2721,-2.2733,-2.2885,-2.3189,-2.291,-2.2923,-2.3247,-2.323,-2.3212,-2.3247,-2.3224,-2.3242,-3.0943,-3.0812,-3.0863,-3.2171,-3.2399,-3.2384,-3.2764,-3.2786,-3.2609,-3.2224,-3.1482,-3.067,-2.998,-2.9361,-2.8876,-2.8637,-2.7854,-2.7165,-2.6955,-2.6342,-2.5933,-2.5944,-2.5758,-2.5849,-2.6476,-2.6922,-2.7491,-2.8271,0.0,-2.71,-2.7454,-2.6695,-2.6244,-2.6244,-2.6286,-2.6286,-2.6262,-2.6085,-2.5906,-2.5728,-2.5373,-2.5297,-2.5468,-2.485,-2.4659,-2.4827,-2.4585,-2.5045,-2.5981,-2.5732,-2.533,-2.4963,-2.5413,-2.5313,-2.4946,-2.543,-2.5146,-2.4513,-2.4513,-2.4133,-2.372,-2.4016,-2.3803,-2.3499,-2.3708,-2.3668,-2.3537,-2.3427,-2.3954,-2.4492,-2.4134,-2.462,-2.5202,-2.5202,-2.4358,-2.3826,-2.486,-2.4555,-2.4148,-2.4464,-2.367,-2.3043,-2.3352,-2.2765,-2.2258,-2.2302,-2.2296,-2.2398,-2.2651,-2.2448,-2.2398,-2.2682,-2.2448,-2.2296,-2.2296,-2.2296,-2.2296,-2.2296,-2.2296,-2.2349,-2.244,-2.2436,-2.2504,-2.2624,-2.2504,-2.2695,-2.32,-2.2811,-2.2824,-2.3189,-2.2984,-2.2996,-3.0772,-3.0471,-3.04,-3.2017,-3.1827,-3.1437,-3.2106,-3.191,-3.1515,-3.1206,-3.0495,-2.9665,-2.8938,-2.8476,-2.8132,-2.7944,-2.7171,-2.6437,-2.5989,-2.536,-2.4866,-2.4634,-2.4395,-2.4513,-2.5148,-2.5584,-2.6187,-2.7015,0.0,0.0,-2.6574,-2.6059,-2.5513,-2.504,-2.5512,-2.5413,-2.47,-2.4977,-2.5037,-2.4868,-2.4523,-2.4445,-2.4569,-2.3737,-2.3459,-2.356,-2.3117,-2.364,-2.478,-2.451,-2.4095,-2.3702,-2.4194,-2.4095,-2.3718,-2.4227,-2.3932,-2.3309,-2.3309,-2.293,-2.2502,-2.2818,-2.2619,-2.2277,-2.2498,-2.2471,-2.2337,-2.22,-2.2738,-2.3271,-2.2921,-2.3421,-2.3955,-2.3739,-2.3004,-2.2425,-2.2629,-2.2772,-2.2924,-2.3243,-2.2442,-2.1908,-2.2477,-2.1926,-2.1507,-2.1811,-2.1974,-2.2077,-2.2077,-2.2194,-2.2296,-2.2296,-2.2296,-2.2296,-2.2296,-2.2296,-2.2296,-2.2296,-2.2296,-2.2296,-2.2296,-2.2296,-2.2296,-2.2296,-2.2296,-2.2494,-2.2895,-2.2494,-2.2508,-2.2895,-2.2665,-2.2695,0.0,0.0,0.0,-3.1294,-3.0949,-3.0812,-3.2403,-3.1433,-3.0309,-3.0639,-2.9636,-2.8461,-2.7593,-2.738,-2.7172,-2.6648,-2.551,-2.4694,-2.4664,-2.4103,-2.3924,-2.456,-2.4044,-2.3879,-2.4515,-2.4575,-2.4534,0.0,-2.4977,-2.53,-2.5188,-2.5147,-2.4527,-2.3151,-2.3602,-2.3309,-2.213,-2.2982,-2.3641,-2.4113,-2.3171,-2.293,-2.3301,-2.2178,-2.1914,-2.2347,-2.2332,-2.2629,-2.3093,-2.3142,-2.3126,-2.311,-2.3126,-2.3126,-2.311,-2.3126,-2.2693,-2.205,-2.205,-2.1567,-2.0959,-2.0975,-2.0666,-2.0404,-2.1069,-2.0971,-2.0812,-2.1455,-2.165,-2.168,-2.1695,-2.168,-2.1515,-2.0868,-2.0703,-2.0513,-1.9872,-2.0943,-2.2033,-2.2033,-2.1455,-2.0959,-2.1007,-2.0991,-2.0975,-2.0991,-2.1337,-2.1582,-2.1582,-2.1988,-2.2282,-2.2282,-2.2296,-2.2296,-2.2296,-2.2282,-2.2282,-2.2282,-2.2268,-2.2268,-2.2268,-2.2268,-2.2268,-2.2282,-2.2282,-2.2282,-2.2296,-2.2296,-2.2296,-2.2296,-2.2296,-2.2296,-3.0299,0.0,0.0,0.0,0.0,0.0,-3.1612,-3.1223,-3.0607,-3.0501,-2.9841,-2.9075,-2.8373,-2.7247,-2.6241,-2.5804,-2.6332,-2.6587,-2.6108,-2.5884,-2.5659,-2.5375,-2.4724,-2.4201,-2.3924,-2.3879,0.0,0.0,-2.4262,-2.4303,-2.4737,-2.4224,-2.3664,-2.3189,-2.3312,-2.3043,-2.2321,-2.3028,-2.3072,-2.2393,-2.2591,-2.2515,-2.2123,-2.1334,-2.1053,-2.1145,-2.0664,-2.0527,-2.0737,-2.1621,-2.1635,-2.1161,-2.1729,-2.1602,-2.1177,-2.1761,-2.1461,-2.0798,-2.0798,-2.0467,-2.012,-2.0399,-2.021,-1.9887,-2.0101,-2.0053,-2.0022,-2.0202,-2.0602,-2.1096,-2.1575,-2.1335,-2.1051,-2.135,-2.0677,-2.0049,-2.0363,-2.0391,-2.045,-2.0747,-2.0385,-2.026,-2.0878,-2.0715,-2.06,-2.0943,-2.1086,-2.1166,-2.1166,-2.1538,-2.1794,-2.1794,-2.2106,-2.2296,-2.2296,-2.1988,-2.1794,-2.1794,-2.1507,-2.1354,-2.1354,-2.1354,-2.1508,-2.1794,-2.1794,-2.1974,-2.2296,-2.2296,-2.2296,-2.2296,-2.2296,-2.2296,-3.05,-3.0548,-3.0833,-3.1336,0.0,0.0,-3.0885,-3.0348,-2.9599,-2.8943,-2.8533,-2.8039,-2.7247,-2.6386,-2.5568,-2.4842,-2.5567,-2.6009,-2.5398,-2.5305,-2.5261,-2.5158,-2.4832,-2.4455,-2.4073,-2.4007,-2.4051,-2.4171,-2.3819,-2.367,-2.3804,-2.3524,-2.2987,-2.2188,-2.2305,-2.2039,-2.1283,-2.1938,-2.1933,-2.1291,-2.168,-2.1665,-2.1261,-2.0587,-2.0288,-2.0258,-1.9872,-1.9708,-1.9741,-2.0457,-2.0472,-2.01,-2.0564,-2.0472,-2.0115,-2.0579,-2.0457,-2.0052,-2.0052,-1.9892,-1.9729,-1.9965,-1.9892,-1.9708,-1.9708,-1.9708,-1.9708,-1.9708,-1.9974,-2.0378,-2.0752,-2.0572,-2.0378,-2.0767,-2.0277,-1.9813,-2.0198,-1.9974,-1.9764,-2.0,-1.9856,-1.9871,-2.0379,-2.0227,-2.0139,-2.043,-2.0599,-2.0715,-2.0715,-2.107,-2.1353,-2.1353,-2.16,-2.1751,-2.1751,-2.1507,-2.1353,-2.1353,-2.1118,-2.0991,-2.0991,-2.0991,-2.1102,-2.1353,-2.1353,-2.1568,-2.2017,-2.2209,-2.2296,-2.2296,-2.2296,-2.2296,-3.0865,-3.1231,-3.1814,-3.1718,-3.1589,0.0,-3.0348,-2.9426,-2.8441,-2.7232,-2.6907,-2.6519,-2.5515,-2.5495,-2.5263,-2.4188,-2.4215,-2.4154,-2.3592,-2.3555,-2.3802,-2.4351,-2.4498,-2.4578,-2.4595,-2.4521,-2.4261,-2.3759,-2.364,-2.3325,-2.2733,-2.297,-2.2385,-2.0752,-2.0965,-2.0666,-1.9708,-2.0363,-2.0658,-2.0583,-2.0658,-2.0658,-2.0554,-1.9959,-1.9708,-1.9708,-1.9708,-1.9708,-1.9708,-1.9708,-1.9708,-1.9708,-1.9708,-1.9708,-1.9708,-1.9708,-1.9708,-1.9708,-1.9708,-1.9708,-1.9708,-1.9708,-1.9708,-1.9708,-1.9708,-1.9708,-1.9708,-1.9708,-1.9708,-1.9708,-1.9708,-1.9708,-1.9708,-1.9708,-1.9708,-1.9708,-1.9708,-1.9708,-1.9708,-1.9708,-1.9708,-1.9708,-1.9708,-1.9708,-1.9708,-1.9708,-2.0,-2.0229,-2.0229,-2.0633,-2.0926,-2.0926,-2.0959,-2.0991,-2.0991,-2.0943,-2.0926,-2.0926,-2.0878,-2.0861,-2.0861,-2.0861,-2.0878,-2.0926,-2.0975,-2.1166,-2.1521,-2.2003,-2.2254,-2.2296,-2.2296,-2.2296,-3.2275,-3.2545,-3.2506,-3.1852,-3.2154,0.0,-3.0682,-3.0721,-3.0725,-2.957,-2.8822,-2.8161,-2.7466,-2.6862,-2.6192,-2.5372,-2.4997,-2.4527,-2.378,-2.4024,-2.4184,-2.381,-2.4177,-2.4462,-2.4524,-2.4043,-2.3906,-2.4365,-2.3909,-2.3325,-2.2733,-2.2259,-2.1613,-2.0718,-2.0245,-1.9918,-1.9708,-2.0363,-2.0438,-1.9884,-2.0453,-2.0423,-1.9902,-1.9768,-1.9708,-1.9708,-1.9708,-1.9708,-1.9708,-1.9708,-1.9708,-1.9708,-1.9708,-1.9708,-1.9708,-1.9708,-1.9708,-1.9708,-1.9708,-1.9708,-1.9708,-1.9708,-1.9708,-1.9708,-1.9708,-1.9708,-1.9708,-1.9708,-1.9708,-1.9708,-1.9708,-1.9708,-1.9708,-1.9708,-1.9708,-1.9708,-1.9708,-1.9708,-1.9708,-1.9708,-1.9708,-1.9708,-1.9708,-1.9708,-1.9708,-1.9708,-1.9764,-1.9836,-1.9836,-2.0176,-2.0449,-2.0449,-2.0764,-2.0991,-2.0991,-2.0649,-2.0449,-2.0449,-2.0139,-1.9945,-1.9945,-1.9945,-2.0104,-2.0433,-2.0813,-2.1039,-2.1118,-2.1538,-2.1928,-2.2296,-2.2296,-2.2296,-3.291,-3.3218,-3.3353,-3.2506,-3.2602,0.0,0.0,-3.041,-3.0232,-2.9666,-2.8574,-2.7708,-2.7735,-2.6925,-2.6103,-2.5636,-2.4679,-2.3955,-2.3859,-2.3669,-2.3432,-2.3134,-2.3354,-2.3842,-2.4531,-2.4293,-2.4229,-2.4574,-2.3984,-2.3325,-2.2733,-2.2388,-2.1739,-2.0733,-2.0378,-2.0034,-1.9708,-2.0034,-2.0034,-1.9708,-2.0034,-2.0019,-1.9708,-1.9708,-1.9708,-1.9708,-1.9708,-1.9708,-1.9708,-1.9708,-1.9708,-1.9708,-1.9708,-1.9708,-1.9708,-1.9708,-1.9708,-1.9708,-1.9708,-1.9708,-1.9708,-1.9708,-1.9708,-1.9708,-1.9708,-1.9708,-1.9708,-1.9708,-1.9708,-1.9708,-1.9708,-1.9708,-1.9621,-1.9369,-1.9299,-1.9225,-1.8968,-1.8893,-1.8893,-1.8893,-1.9132,-1.9387,-1.9639,-1.9708,-1.9708,-1.9708,-1.9708,-1.9708,-1.9708,-1.9874,-2.0,-2.0,-2.0208,-2.0345,-2.0345,-2.0139,-2.0,-2.0,-1.9803,-1.9708,-1.9708,-1.9708,-1.98,-2.0,-2.0243,-2.0448,-2.0649,-2.0862,-2.1181,-2.1661,-2.1855,-2.1943,-3.3083,-3.3545,-3.3955,-3.2929,-3.291,-3.2679,0.0,0.0,0.0,-2.9377,-2.814,-2.7253,-2.7807,-2.6935,-2.6057,-2.5842,0.0,0.0,0.0,-2.3091,0.0,-2.2552,-2.2395,-2.2851,-2.4305,-2.4488,-2.4484,-2.441,-2.3924,-2.3385,-2.2897,-2.2763,-2.2128,-2.0932,-2.0763,-2.0378,-1.9708,-1.9708,-1.9708,-1.9708,-1.9708,-1.9708,-1.9708,-1.9708,-1.9639,-1.9548,-1.9657,-1.9639,-1.9548,-1.9657,-1.9708,-1.9708,-1.9708,-1.9708,-1.9708,-1.9708,-1.9708,-1.9708,-1.9708,-1.9708,-1.969,-1.9584,-1.9479,-1.9387,-1.9387,-1.9387,-1.9387,-1.9387,-1.9387,-1.9387,-1.9387,-1.9387,-1.9281,-1.8855,-1.8746,-1.8631,-1.8204,-1.8106,-1.8106,-1.8106,-1.8458,-1.893,-1.9442,-1.9621,-1.9708,-1.9708,-1.9708,-1.9708,-1.9708,-1.9708,-1.9708,-1.9708,-1.9708,-1.9708,-1.9708,-1.9708,-1.9708,-1.9708,-1.9708,-1.9708,-1.9708,-1.9708,-1.9708,-1.9708,-1.9708,-1.9856,-2.0177,-2.0177,-2.0482,-2.1023,-2.1337,-2.1476,-3.2929,-3.3545,-3.3821,-3.2237,-3.2949,-3.341,-3.0962,0.0,-3.1198,-3.0404,0.0,-2.8851,-2.8998,0.0,0.0,-2.6958,-2.6319,-2.5198,-2.3293,-2.2725,-2.2499,-2.2419,-2.1497,-2.1547,-2.3364,-2.3711,-2.3789,-2.3716,-2.364,-2.3565,-2.349,-2.3002,-2.2358,-2.1605,-2.1002,-2.0378,-1.9708,-1.9708,-1.9708,-1.9708,-1.9708,-1.9708,-1.9708,-1.9708,-1.9442,-1.9024,-1.9479,-1.9424,-1.9024,-1.9497,-1.9708,-1.9708,-1.9708,-1.9708,-1.9708,-1.9708,-1.9708,-1.9708,-1.9708,-1.9708,-1.9621,-1.9151,-1.8669,-1.8283,-1.8283,-1.8283,-1.8283,-1.8283,-1.8283,-1.8283,-1.8283,-1.8283,-1.8283,-1.8224,-1.8204,-1.8185,-1.8125,-1.8106,-1.8106,-1.8106,-1.8165,-1.8361,-1.8893,-1.9387,-1.9708,-1.9708,-1.9708,-1.9708,-1.9708,-1.9708,-1.9708,-1.9708,-1.9708,-1.9708,-1.9708,-1.9708,-1.9708,-1.9708,-1.9708,-1.9708,-1.9708,-1.9708,-1.9708,-1.9708,-1.9708,-1.9711,-1.9764,-1.9764,-2.0191,-2.0991,-2.1039,-2.1055,-3.3045,0.0,0.0,0.0,0.0,0.0,-3.1404,0.0,-3.0981,0.0,0.0,0.0,0.0,0.0,0.0,0.0,-2.631,-2.5135,0.0,0.0,-2.1499,-2.1476,0.0,0.0,-2.2848,0.0,0.0,0.0,-2.3595,-2.3595,-2.3595,-2.3032,-2.2388,-2.1724,-2.1051,-2.0378,-1.9708,-1.9708,-1.9708,-1.9708,-1.9708,-1.9708,-1.969,-1.9387,-1.9114,-1.8893,-1.8817,-1.8631,-1.8458,-1.8669,-1.8765,-1.8765,-1.8765,-1.8968,-1.9207,-1.8893,-1.8765,-1.8765,-1.8765,-1.8765,-1.8727,-1.8516,-1.8283,-1.8106,-1.8106,-1.8106,-1.8106,-1.8106,-1.8106,-1.8106,-1.8106,-1.8106,-1.8027,-1.7706,-1.7646,-1.7544,-1.7229,-1.7167,-1.7167,-1.7167,-1.7435,-1.7706,-1.7927,-1.8419,-1.8874,-1.9188,-1.9244,-1.935,-1.9657,-1.9708,-1.9708,-1.9708,-1.9708,-1.9708,-1.9708,-1.9708,-1.9708,-1.9708,-1.9708,-1.9708,-1.9708,-1.9708,-1.9708,-1.9708,-1.9708,-1.9708,-1.9708,-1.9708,-1.9889,-2.0275,-2.0888,-2.0976,-3.2436,0.0,0.0,0.0,0.0,0.0,0.0,0.0,0.0,0.0,0.0,0.0,0.0,0.0,-2.8118,-2.7769,0.0,-2.5204,-2.4652,-2.2685,-2.1325,0.0,0.0,0.0,0.0,0.0,0.0,-2.3334,-2.3505,-2.3535,-2.3355,-2.3092,-2.2658,-2.1979,-2.1321,-2.0662,-1.9974,-1.9798,-1.9621,-1.9479,-1.9479,-1.9406,-1.9244,-1.8855,-1.8593,-1.8458,-1.8224,-1.8027,-1.7887,-1.8046,-1.8106,-1.8086,-1.7947,-1.8125,-1.8438,-1.8204,-1.8106,-1.8106,-1.8106,-1.8007,-1.7887,-1.7887,-1.7787,-1.7666,-1.7666,-1.7666,-1.7666,-1.7666,-1.7666,-1.7666,-1.7666,-1.7666,-1.7565,-1.7167,-1.7076,-1.6972,-1.6573,-1.65,-1.65,-1.65,-1.6816,-1.7076,-1.7076,-1.7646,-1.8243,-1.8612,-1.8669,-1.8817,-1.9207,-1.9262,-1.9262,-1.9262,-1.9387,-1.9479,-1.9479,-1.9621,-1.9708,-1.9708,-1.9708,-1.9708,-1.9708,-1.9708,-1.9708,-1.9708,-1.9708,-1.9708,-1.9708,-1.9708,-1.9708,-1.9708,-2.0502,-2.0602,0.0,0.0,0.0,-3.0692,0.0,0.0,0.0,0.0,-3.0404,0.0,0.0,0.0,0.0,-2.9704,-2.8828,-2.8104,-2.7231,0.0,0.0,-2.2856,-2.2692,-2.3069,-2.2791,0.0,0.0,-2.2393,-2.2709,-2.2721,-2.3266,-2.3362,-2.2763,-2.3251,-2.3281,-2.2688,-2.2029,-2.135,-2.0673,-2.0019,-1.9442,-1.893,-1.893,-1.865,-1.8165,-1.8145,-1.7847,-1.7394,-1.7887,-1.7807,-1.7374,-1.7887,-1.8106,-1.8046,-1.7524,-1.7353,-1.7415,-1.7907,-1.8106,-1.8106,-1.8106,-1.7767,-1.7333,-1.7333,-1.6972,-1.6552,-1.6552,-1.6552,-1.6552,-1.6552,-1.6552,-1.6552,-1.6552,-1.6552,-1.6552,-1.6543,-1.6543,-1.6522,-1.65,-1.65,-1.65,-1.65,-1.6522,-1.6543,-1.6543,-1.7415,-1.8125,-1.8125,-1.8145,-1.8145,-1.8165,-1.8165,-1.8165,-1.8165,-1.8612,-1.893,-1.893,-1.9406,-1.9708,-1.9708,-1.9708,-1.9708,-1.9708,-1.9708,-1.9708,-1.9708,-1.9708,-1.9708,-1.9708,-1.9708,-1.9708,-1.9708,-1.9741,-1.9741,0.0,0.0,-3.0769,-3.0462,0.0,0.0,0.0,0.0,0.0,0.0,0.0,0.0,0.0,-2.9723,-2.904,-2.8821,-2.7358,-2.583,0.0,-2.3155,-2.2294,-2.2576,-2.1942,-2.1557,0.0,0.0,0.0,-2.1386,-2.2383,-2.2927,-2.2703,-2.3266,-2.331,-2.2718,-2.2059,-2.138,-2.0703,-1.9689,-1.908,-1.8893,-1.8535,-1.8283,-1.8086,-1.7727,-1.7463,-1.7291,-1.7105,-1.693,-1.6774,-1.6972,-1.7034,-1.7013,-1.6837,-1.6774,-1.6795,-1.6972,-1.7034,-1.7034,-1.7034,-1.6909,-1.6774,-1.6774,-1.6659,-1.65,-1.65,-1.65,-1.65,-1.65,-1.65,-1.65,-1.65,-1.65,-1.65,-1.65,-1.65,-1.65,-1.65,-1.65,-1.65,-1.65,-1.65,-1.65,-1.65,-1.6795,-1.7146,-1.7524,-1.7565,-1.7706,-1.8046,-1.8106,-1.8106,-1.8106,-1.8263,-1.838,-1.838,-1.8535,-1.8631,-1.8631,-1.8631,-1.8631,-1.8631,-1.8631,-1.8631,-1.8631,-1.8631,-1.8631,-1.8631,-1.9006,-1.9169,-1.9188,-1.953,-1.9708,-3.0136,-3.0196,0.0,-3.0404,-3.0404,0.0,-3.0404,0.0,-3.0404,0.0,0.0,0.0,0.0,0.0,-2.9385,-2.882,-2.7453,-2.5945,0.0,-2.3182,-2.239,-2.2298,-2.1864,-2.1683,-2.2019,-2.1739,-2.1309,-2.0744,-2.1724,-2.2343,0.0,0.0,-2.3212,-2.3032,-2.2158,-2.1406,-2.0779,-1.9531,-1.8708,-1.8341,-1.7987,-1.7727,-1.7524,-1.7167,-1.7013,-1.6993,-1.6659,-1.65,-1.65,-1.65,-1.65,-1.65,-1.65,-1.65,-1.65,-1.65,-1.65,-1.65,-1.65,-1.65,-1.65,-1.65,-1.65,-1.65,-1.65,-1.6358,-1.6194,-1.6194,-1.6042,-1.5854,-1.5854,-1.5854,-1.5854,-1.5854,-1.5854,-1.5854,-1.5854,-1.5854,-1.5854,-1.5854,-1.5854,-1.5932,-1.6139,-1.6194,-1.6355,-1.693,-1.7013,-1.7126,-1.7483,-1.7524,-1.7524,-1.7524,-1.7706,-1.7887,-1.8086,-1.8106,-1.8106,-1.8106,-1.8106,-1.8106,-1.8106,-1.8106,-1.8183,-1.8369,-1.8196,-1.8183,-1.8369,-1.8537,-1.8612,-1.8631,-1.9169,-1.9424]},{"header":{"parameterUnit":"m.s-1","parameterCategory":1,"la1":30.6,"la2":29.2853,"lo1":-89.7004,"lo2":-87.6739,"dy":0.0162,"dx":0.0183,"nx":112,"ny":82,"refTime":"2023-08-03T12:00:00:Z","depth":0,"parameterNumber":3,"parameterNumberName":"V-component_of_WINDS"},"data":[0.0,0.0,0.0,0.0,0.0,0.0,0.0,0.0,0.0,0.0,0.0,0.0,0.0,0.0,0.0,0.0,0.0,0.0,0.0,0.0,0.0,0.0,0.0,0.0,0.0,0.0,0.0,0.0,0.0,0.0,0.0,0.0,0.0,0.0,0.0,0.0,0.0,0.0,0.0,0.0,0.0,0.0,0.0,0.0,0.0,0.0,0.0,0.0,0.0,0.0,0.0,0.0,0.0,0.0,0.0,0.0,0.0,0.0,0.0,0.0,0.0,0.0,0.0,0.0,0.0,0.0,0.0,0.0,0.0,0.0,0.0,0.0,0.0,0.0,0.0,0.0,0.0,0.0,0.0,0.0,0.0,0.0,0.0,0.0,0.0,0.0,0.0,0.0,0.0,0.0,-0.8479,-0.9268,-1.0263,-1.1628,-1.3573,-1.538,-1.6054,-1.522,0.0,0.0,0.0,0.0,0.0,0.0,0.0,0.0,0.0,0.0,0.0,0.0,0.0,0.0,0.0,0.0,0.0,0.0,0.0,0.0,0.0,0.0,0.0,0.0,0.0,0.0,0.0,0.0,0.0,0.0,0.0,0.0,0.0,0.0,0.0,0.0,0.0,0.0,0.0,0.0,0.0,0.0,0.0,0.0,0.0,0.0,0.0,0.0,0.0,0.0,0.0,0.0,0.0,0.0,0.0,0.0,0.0,0.0,0.0,0.0,0.0,0.0,0.0,0.0,0.0,0.0,0.0,0.0,0.0,0.0,0.0,0.0,0.0,0.0,0.0,0.0,0.0,0.0,0.0,0.0,0.0,0.0,0.0,0.0,0.0,0.0,0.0,0.0,0.0,0.0,0.0,0.0,0.0,0.0,0.0,0.0,0.0,0.0,0.0,0.0,0.0,0.0,0.0,0.0,-0.8404,-0.9707,-1.0419,-1.1419,-1.3207,-1.4693,-1.536,-1.5047,0.0,0.0,0.0,0.0,0.0,0.0,0.0,0.0,0.0,0.0,0.0,0.0,0.0,0.0,0.0,0.0,0.0,0.0,0.0,0.0,0.0,0.0,0.0,0.0,0.0,0.0,0.0,0.0,0.0,0.0,0.0,0.0,0.0,0.0,0.0,0.0,0.0,0.0,0.0,0.0,0.0,0.0,0.0,0.0,0.0,0.0,0.0,0.0,0.0,0.0,0.0,0.0,0.0,0.0,0.0,0.0,0.0,0.0,0.0,0.0,0.0,0.0,0.0,0.0,0.0,0.0,0.0,0.0,0.0,0.0,0.0,0.0,0.0,0.0,0.0,0.0,0.0,0.0,0.0,0.0,0.0,0.0,0.0,0.0,0.0,0.0,0.0,0.0,0.0,0.0,0.0,0.0,0.0,0.0,0.0,0.0,0.0,0.0,0.0,0.0,0.0,0.0,0.0,-0.8747,-0.8753,-0.9754,-1.0259,-1.1565,-1.4162,-1.4624,-1.5194,-1.611,-1.6214,0.0,0.0,0.0,0.0,0.0,0.0,0.0,0.0,0.0,0.0,0.0,0.0,0.0,0.0,0.0,0.0,0.0,0.0,0.0,0.0,0.0,0.0,0.0,0.0,0.0,0.0,0.0,0.0,0.0,0.0,0.0,0.0,0.0,0.0,0.0,0.0,0.0,0.0,0.0,0.0,0.0,0.0,0.0,0.0,0.0,0.0,0.0,0.0,0.0,0.0,0.0,0.0,0.0,0.0,0.0,0.0,0.0,0.0,0.0,0.0,0.0,0.0,0.0,0.0,0.0,0.0,0.0,0.0,0.0,0.0,0.0,0.0,0.0,0.0,0.0,0.0,0.0,0.0,0.0,0.0,0.0,0.0,0.0,0.0,0.0,0.0,0.0,0.0,0.0,0.0,0.0,0.0,0.0,0.0,0.0,0.0,0.0,0.0,0.0,0.0,0.0,0.0,-0.8652,-0.9113,-0.9707,-1.0283,-1.1861,-1.491,-1.4721,-1.5194,-1.6861,-1.5712,0.0,0.0,0.0,0.0,0.0,0.0,0.0,0.0,0.0,0.0,0.0,0.0,0.0,0.0,0.0,0.0,0.0,0.0,0.0,0.0,0.0,0.0,0.0,0.0,0.0,0.0,0.0,0.0,0.0,0.0,0.0,0.0,0.0,0.0,0.0,0.0,0.0,0.0,0.0,0.0,0.0,0.0,0.0,0.0,0.0,0.0,0.0,0.0,0.0,0.0,0.0,0.0,0.0,0.0,0.0,0.0,0.0,0.0,0.0,0.0,0.0,0.0,0.0,0.0,0.0,0.0,0.0,0.0,0.0,0.0,0.0,0.0,0.0,0.0,0.0,0.0,0.0,0.0,0.0,0.0,0.0,0.0,0.0,0.0,0.0,0.0,0.0,0.0,0.0,0.0,0.0,0.0,0.0,0.0,0.0,0.0,0.0,0.0,0.0,0.0,0.0,0.0,-0.8367,-0.8957,-0.9561,-1.0873,-1.248,-1.4451,-1.4607,-1.5084,-1.6275,-1.4716,0.0,0.0,0.0,0.0,0.0,0.0,0.0,0.0,0.0,0.0,0.0,0.0,0.0,0.0,0.0,0.0,0.0,0.0,0.0,0.0,0.0,0.0,0.0,0.0,0.0,0.0,0.0,0.0,0.0,0.0,0.0,0.0,0.0,0.0,0.0,0.0,0.0,0.0,0.0,0.0,0.0,0.0,0.0,0.0,0.0,0.0,0.0,0.0,0.0,0.0,0.0,0.0,0.0,0.0,0.0,0.0,0.0,0.0,0.0,0.0,0.0,0.0,0.0,0.0,0.0,0.0,0.0,0.0,0.0,0.0,0.0,0.0,0.0,0.0,0.0,0.0,0.0,0.0,0.0,0.0,0.0,0.0,0.0,0.0,0.0,0.0,0.0,0.0,0.0,0.0,0.0,0.0,0.0,0.0,0.0,0.0,0.0,0.0,0.0,0.0,0.0,0.0,-0.9334,-1.0115,-1.0478,-1.2021,-1.3682,-1.5388,-1.5195,-1.5233,-1.5956,0.0,0.0,0.0,0.0,0.0,0.0,0.0,0.0,0.0,0.0,0.0,0.0,0.0,0.0,0.0,0.0,0.0,0.0,0.0,0.0,0.0,0.0,0.0,0.0,0.0,0.0,0.0,0.0,0.0,0.0,0.0,0.0,0.0,0.0,0.0,0.0,0.0,0.0,0.0,0.0,0.0,0.0,0.0,0.0,0.0,0.0,0.0,0.0,0.0,0.0,0.0,0.0,0.0,0.0,0.0,0.0,0.0,0.0,0.0,0.0,0.0,0.0,0.0,0.0,0.0,0.0,0.0,0.0,0.0,0.0,0.0,0.0,0.0,0.0,0.0,0.0,0.0,0.0,0.0,0.0,0.0,0.0,0.0,0.0,0.0,0.0,0.0,0.0,0.0,0.0,0.0,0.0,0.0,0.0,0.0,0.0,0.0,0.0,0.0,0.0,0.0,0.0,-0.8959,-0.9441,-1.0132,-1.097,-1.2438,-1.4022,-1.5603,-1.5267,-1.5072,-1.5372,0.0,0.0,0.0,0.0,0.0,0.0,0.0,0.0,0.0,0.0,0.0,0.0,0.0,0.0,0.0,0.0,0.0,0.0,0.0,0.0,0.0,0.0,0.0,0.0,0.0,0.0,0.0,0.0,0.0,0.0,0.0,0.0,0.0,0.0,0.0,0.0,0.0,0.0,0.0,0.0,0.0,0.0,0.0,0.0,0.0,0.0,0.0,0.0,0.0,0.0,0.0,0.0,0.0,0.0,0.0,0.0,0.0,0.0,0.0,0.0,0.0,0.0,0.0,0.0,0.0,0.0,0.0,0.0,0.0,0.0,0.0,0.0,0.0,0.0,0.0,0.0,0.0,0.0,0.0,0.0,0.0,0.0,0.0,0.0,0.0,0.0,0.0,0.0,0.0,0.0,0.0,0.0,0.0,0.0,0.0,0.0,0.0,0.0,0.0,0.0,0.0,0.0,-0.8955,-0.8376,-0.8762,-1.0706,-1.1945,-1.325,-1.485,-1.4678,-1.4486,0.0,0.0,0.0,0.0,0.0,0.0,0.0,0.0,0.0,0.0,0.0,0.0,0.0,0.0,0.0,0.0,0.0,0.0,0.0,0.0,0.0,0.0,0.0,0.0,0.0,0.0,0.0,0.0,0.0,0.0,0.0,0.0,0.0,0.0,0.0,0.0,0.0,0.0,0.0,0.0,0.0,0.0,0.0,0.0,0.0,0.0,0.0,0.0,0.0,0.0,0.0,0.0,0.0,0.0,0.0,0.0,0.0,0.0,0.0,0.0,0.0,0.0,0.0,0.0,0.0,0.0,0.0,0.0,0.0,0.0,0.0,0.0,0.0,0.0,0.0,0.0,0.0,0.0,0.0,0.0,0.0,0.0,0.0,0.0,0.0,0.0,0.0,0.0,0.0,0.0,0.0,0.0,0.0,0.0,0.0,0.0,0.0,0.0,0.0,0.0,0.0,0.0,0.0,-0.9777,-0.9728,-0.9902,-1.0467,-1.2695,-1.3959,-1.3472,-1.4654,-1.4754,-1.3259,0.0,0.0,0.0,0.0,0.0,0.0,0.0,0.0,0.0,0.0,0.0,0.0,0.0,0.0,0.0,0.0,0.0,0.0,0.0,0.0,0.0,0.0,0.0,0.0,0.0,0.0,0.0,0.0,0.0,0.0,0.0,0.0,0.0,0.0,0.0,0.0,0.0,0.0,0.0,0.0,0.0,0.0,0.0,0.0,0.0,0.0,0.0,0.0,0.0,0.0,0.0,0.0,0.0,0.0,0.0,0.0,0.0,0.0,0.0,0.0,0.0,0.0,0.0,0.0,0.0,0.0,0.0,0.0,0.0,0.0,0.0,0.0,0.0,0.0,0.0,0.0,0.0,0.0,0.0,0.0,0.0,0.0,0.0,0.0,0.0,0.0,0.0,0.0,0.0,0.0,0.0,0.0,0.0,0.0,0.0,0.0,0.0,0.0,0.0,0.0,0.0,0.0,-1.011,-0.9643,-0.9587,-1.0297,-1.1908,-1.3023,-1.3371,-1.4172,-1.4215,-1.3083,0.0,0.0,0.0,0.0,0.0,0.0,0.0,0.0,0.0,0.0,0.0,0.0,0.0,0.0,0.0,0.0,0.0,0.0,0.0,0.0,0.0,0.0,0.0,0.0,0.0,0.0,0.0,0.0,0.0,0.0,0.0,0.0,0.0,0.0,0.0,0.0,0.0,0.0,0.0,0.0,0.0,0.0,0.0,0.0,0.0,0.0,0.0,0.0,0.0,0.0,0.0,0.0,0.0,0.0,0.0,0.0,0.0,0.0,0.0,0.0,0.0,0.0,0.0,0.0,0.0,0.0,0.0,0.0,0.0,0.0,0.0,0.0,0.0,0.0,0.0,0.0,0.0,0.0,0.0,0.0,0.0,0.0,0.0,0.0,0.0,0.0,0.0,0.0,0.0,0.0,0.0,0.0,0.0,0.0,0.0,0.0,0.0,0.0,0.0,0.0,0.0,0.0,-1.0267,-0.8778,-0.8302,-1.0192,-1.0149,-1.1044,-1.3654,-1.3368,-1.3175,-1.3446,0.0,0.0,0.0,0.0,0.0,0.0,0.0,0.0,0.0,0.0,0.0,0.0,0.0,0.0,0.0,0.0,0.0,0.0,0.0,0.0,0.0,0.0,0.0,0.0,0.0,0.0,0.0,0.0,0.0,0.0,0.0,0.0,0.0,0.0,0.0,0.0,0.0,0.0,0.0,0.0,0.0,0.0,0.0,0.0,0.0,0.0,0.0,0.0,0.0,0.0,0.0,0.0,0.0,0.0,0.0,0.0,0.0,0.0,0.0,0.0,-0.4143,0.0,0.0,0.0,0.0,0.0,0.0,0.0,0.0,0.0,0.0,0.0,0.0,0.0,0.0,0.0,0.0,0.0,0.0,0.0,0.0,0.0,0.0,0.0,0.0,0.0,0.0,0.0,0.0,0.0,0.0,0.0,0.0,0.0,0.0,0.0,0.0,0.0,0.0,0.0,0.0,0.0,-1.1492,-0.9376,-0.8374,-0.9929,-1.0023,-1.0261,-1.0883,-1.2384,-1.3079,-1.248,-1.2284,0.0,0.0,0.0,0.0,0.0,0.0,0.0,0.0,0.0,0.0,0.0,0.0,0.0,0.0,0.0,0.0,0.0,0.0,0.0,0.0,0.0,0.0,0.0,0.0,0.0,0.0,0.0,0.0,0.0,0.0,0.0,0.0,0.0,0.0,0.0,0.0,0.0,0.0,0.0,0.0,0.0,0.0,0.0,0.0,0.0,0.0,0.0,0.0,0.0,0.0,0.0,0.0,0.0,0.0,0.0,0.0,0.0,0.0,0.0,0.0,-0.3152,0.0,0.0,0.0,0.0,0.0,0.0,0.0,0.0,0.0,0.0,0.0,0.0,0.0,0.0,0.0,0.0,0.0,0.0,0.0,0.0,0.0,0.0,0.0,0.0,0.0,0.0,0.0,0.0,0.0,0.0,0.0,0.0,0.0,0.0,0.0,0.0,0.0,0.0,0.0,0.0,-1.107,-0.9154,-0.8031,-0.8943,-0.9019,-0.9316,-0.9948,-1.0924,-1.1462,-1.1305,-1.118,0.0,0.0,0.0,0.0,0.0,0.0,0.0,0.0,0.0,0.0,0.0,0.0,0.0,0.0,0.0,0.0,0.0,0.0,0.0,0.0,0.0,0.0,0.0,0.0,0.0,0.0,0.0,0.0,0.0,0.0,0.0,0.0,0.0,0.0,0.0,0.0,0.0,0.0,0.0,0.0,0.0,0.0,0.0,0.0,0.0,0.0,0.0,0.0,0.0,0.0,0.0,0.0,0.0,0.0,0.0,0.0,0.0,0.0,-0.006,-0.1032,-0.2175,-0.3288,-0.3432,0.0,0.0,0.0,0.0,0.0,0.0,0.0,0.0,0.0,0.0,0.0,0.0,0.0,0.0,0.0,0.0,0.0,0.0,0.0,0.0,0.0,0.0,0.0,0.0,-0.7451,-0.7818,0.0,0.0,0.0,0.0,0.0,0.0,0.0,0.0,0.0,0.0,0.0,0.0,-1.0151,-0.868,-0.7784,-0.8224,-0.8079,-0.8477,-0.9807,-0.9661,-0.9769,-1.04,-1.0154,-0.9604,0.0,0.0,0.0,0.0,0.0,0.0,0.0,0.0,0.0,0.0,0.0,0.0,0.0,0.0,0.0,0.0,0.0,0.0,0.0,0.0,0.0,0.0,0.0,0.0,0.0,0.0,0.0,0.0,0.0,0.0,0.0,0.0,0.6637,0.6613,0.0,0.0,0.0,0.0,0.0,0.0,0.0,0.0,0.0,0.0,0.0,0.0,0.0,0.0,0.0,0.0,0.0,0.0,0.0,0.0,0.0,0.0,0.0,0.0,-0.019,0.0,-0.0625,-0.1623,0.0,0.0,0.0,0.0,0.0,0.0,0.0,0.0,0.0,0.0,0.0,0.0,0.0,0.0,0.0,0.0,0.0,0.0,0.0,0.0,0.0,0.0,-0.8105,-0.7662,-0.7767,-0.7914,0.0,-0.8255,-0.8611,-0.8484,-0.8998,0.0,0.0,0.0,0.0,0.0,0.0,0.0,-1.0034,-0.8662,-0.8027,-0.9171,-0.8424,-0.8309,-0.9469,-0.9524,-0.9798,-1.0511,-0.9634,-0.8813,-0.8307,-0.8005,0.0,0.0,0.0,0.0,0.0,0.0,0.0,0.0,0.0,0.0,0.0,0.0,0.0,0.0,0.0,0.0,0.0,0.0,0.0,0.0,0.0,0.0,0.0,0.0,0.0,0.0,0.0,0.0,0.0,0.7699,0.7719,0.7477,0.6534,0.5534,0.0,0.0,0.0,0.0,0.0,0.0,0.0,0.0,0.0,0.0,0.0,0.0,0.0,0.0,0.0,0.0,0.0,0.0,0.0,0.0,0.0,0.0,0.0,0.0,-0.0124,-0.1403,-0.2235,-0.28,0.0,0.0,0.0,0.0,-0.7273,-0.8119,-0.8292,-0.8404,0.0,-0.8157,0.0,0.0,0.0,0.0,0.0,0.0,0.0,0.0,0.0,0.0,-0.8113,-0.8001,-0.8007,-0.7978,-0.7987,-0.8014,-0.7974,0.0,-0.8033,-0.8379,-0.8551,0.0,0.0,0.0,0.0,-0.8487,-0.9241,-0.8269,-0.7731,-0.8368,-0.7979,-0.7898,-0.8383,-0.8423,-0.8548,-0.8792,-0.8209,-0.7742,-0.7364,-0.7255,-0.7235,0.0,0.0,0.0,0.0,0.0,0.0,0.0,0.0,0.0,0.0,0.0,0.0,0.0,0.0,0.0,0.0,0.0,0.0,0.0,0.0,0.0,0.0,0.0,0.0,0.0,0.0,0.0,0.0,0.8462,0.8842,0.8228,0.7891,0.7305,0.0,0.0,0.0,0.0,0.0,0.0,0.0,0.0,0.0,0.0,0.0,0.0,0.0,0.0,0.0,0.0,0.0,0.0,0.0,0.0,0.0,0.0,0.0,0.0,-0.0065,-0.1053,-0.1656,-0.1932,-0.2949,-0.4443,-0.6002,-0.6086,-0.7176,-0.8625,-0.8815,-0.895,-0.903,-0.857,0.0,-0.8143,-0.7465,0.0,0.0,0.0,0.0,-0.7536,-0.7753,-0.7877,-0.8019,-0.8184,-0.8123,-0.8022,-0.8187,-0.8031,-0.776,0.0,-0.7343,-0.7531,-0.7944,0.0,0.0,0.0,0.0,-0.7945,-0.8158,-0.7715,-0.74,-0.7475,-0.7516,-0.7526,-0.7485,-0.7482,-0.7434,-0.7319,-0.7204,-0.6997,-0.682,-0.6742,-0.6805,-0.7002,0.0,0.0,0.0,0.0,0.0,0.0,0.0,0.0,0.0,0.0,0.0,0.0,0.0,0.0,0.0,0.0,0.0,0.0,0.0,0.0,0.0,0.0,0.0,0.0,0.0,0.0,0.0,0.0,0.0,0.873,0.939,0.0,0.0,0.0,0.0,0.2728,0.2524,0.1839,0.0061,0.0,0.0,0.0,0.0,0.0,0.0,0.0,0.0,0.0,0.0,0.0,0.0,0.0,0.0,0.0,0.0,0.0,0.0,-0.0062,-0.0854,-0.1968,-0.2049,-0.3898,-0.6443,-0.6448,-0.7514,-0.8841,-0.8767,-0.8726,-0.875,-0.8811,-0.8618,-0.8184,-0.7719,-0.7468,0.0,0.0,-0.7567,-0.779,-0.7807,-0.7877,-0.7992,-0.7998,-0.7995,-0.7992,-0.8002,-0.7988,-0.7928,0.0,-0.7556,-0.7412,-0.743,0.0,-0.6939,-0.6833,-0.6901,-0.6914,-0.6822,-0.7146,-0.7319,-0.7132,-0.7295,-0.7322,-0.7132,-0.7119,-0.7115,-0.7109,-0.7098,-0.7088,-0.7075,-0.6851,-0.6726,-0.6737,-0.6033,0.0,0.0,0.0,0.0,0.0,0.0,0.0,0.0,0.0,0.0,0.0,0.0,0.0,0.0,0.0,0.0,0.0,0.0,0.0,0.0,0.0,0.0,0.0,0.0,0.0,0.0,0.0,0.0,0.933,0.9995,0.0,0.8899,0.8107,0.7188,0.5995,0.5161,0.4391,0.3756,0.2577,0.1868,0.1885,0.0638,0.0,0.0,0.0,0.0,0.0,0.0,0.0,0.0,0.0,0.0,0.0,0.0,0.0,0.0,0.0,-0.031,-0.0732,-0.0713,-0.1924,-0.3743,-0.376,-0.5366,-0.7584,-0.7573,-0.8205,-0.8957,-0.872,-0.8408,-0.8072,-0.7814,-0.7699,-0.7655,-0.7655,-0.7729,-0.7834,-0.7884,-0.7948,-0.7988,-0.7988,-0.7988,-0.7988,-0.7988,-0.7914,-0.7906,-0.7901,-0.7794,-0.7624,-0.7536,-0.7265,-0.7004,-0.695,-0.691,-0.69,-0.6937,-0.7122,-0.72,-0.7102,-0.7146,-0.7156,-0.7102,-0.7014,-0.696,-0.696,-0.6912,-0.6814,-0.6715,-0.661,-0.6417,-0.6129,-0.5772,-0.571,0.0,0.0,0.0,0.0,0.0,0.0,0.0,0.0,0.0,0.0,0.0,0.0,0.0,0.0,0.0,0.0,0.0,0.0,0.0,0.0,0.0,0.0,0.0,0.0,0.0,0.9496,1.0015,0.9717,1.0385,1.0633,1.0036,0.9391,0.8725,0.8003,0.7233,0.6483,0.5822,0.4605,0.3873,0.3873,0.1956,0.0947,0.0947,0.0358,0.0,0.0,0.0,0.0,0.0,0.0,0.0,0.0,0.0,0.0,0.0,0.0,0.0,0.0,0.0,-0.1267,-0.3095,-0.3045,-0.5093,-0.7713,-0.7086,-0.7491,-0.8217,-0.7893,-0.7898,-0.8089,-0.7933,-0.7889,-0.7889,-0.7889,-0.7889,-0.7913,-0.7965,-0.7988,-0.7988,-0.7988,-0.7951,-0.7914,-0.7914,-0.7845,-0.777,-0.7872,-0.7848,-0.7797,-0.7753,-0.7495,-0.7267,-0.7314,-0.7112,-0.7007,-0.72,-0.7129,-0.7095,-0.7095,-0.7095,-0.7095,-0.7095,-0.7011,-0.6937,-0.6889,-0.6783,-0.663,-0.6518,-0.6467,-0.63,-0.5962,-0.5715,-0.5491,-0.5317,0.0,0.0,0.0,0.0,0.0,0.0,0.0,0.0,0.0,0.0,0.0,0.0,0.0,0.0,0.0,0.0,0.0,0.0,0.0,0.0,0.0,0.0,0.0,0.8902,0.9737,1.0188,0.9903,1.0643,1.0955,1.0385,1.0982,1.0575,0.8583,0.8669,0.8014,0.606,0.5916,0.5884,0.5882,0.3996,0.2979,0.2979,0.1064,0.007,0.007,0.0,0.0,0.0,0.0,0.0,0.0,0.0,0.0,0.0,0.0,0.0,0.0,0.0,-0.197,-0.4721,-0.4587,-0.6588,-0.9121,-0.7388,-0.6649,-0.6393,-0.6283,-0.7119,-0.8184,-0.7982,-0.7988,-0.7988,-0.7988,-0.7988,-0.7988,-0.7988,-0.7988,-0.7988,-0.7985,-0.7919,-0.7811,-0.7804,-0.7692,-0.7594,-0.7597,-0.7706,-0.7845,-0.7948,-0.7784,-0.7638,-0.7777,-0.7378,0.0,-0.7346,-0.7234,-0.7095,-0.7095,-0.7095,-0.7095,-0.7095,-0.7088,-0.7021,-0.6879,-0.6766,-0.661,-0.6497,-0.6358,-0.6282,-0.6279,-0.5849,-0.544,-0.5106,0.0,0.0,0.0,0.0,0.0,0.0,0.0,0.0,0.0,0.0,0.0,0.0,0.0,0.0,0.0,0.0,0.0,0.0,0.0,0.0,0.0,0.9011,0.9608,0.9873,1.0307,1.069,1.0931,1.1277,1.147,1.1409,1.1589,1.1457,1.0865,1.1062,1.0862,1.0045,0.8767,0.7986,0.791,0.6025,0.4988,0.4869,0.3033,0.202,0.1931,0.0611,0.0,0.0,0.0,0.0,0.0,0.0,0.0,0.0,0.0,0.0,0.0,0.0,-0.0551,-0.1331,-0.131,-0.2544,-0.4308,-0.493,-0.5018,-0.4816,-0.479,-0.56,-0.6628,-0.6542,-0.7235,-0.7988,-0.7988,-0.7988,-0.7988,-0.7988,-0.7988,-0.7961,-0.7899,-0.7841,-0.7784,-0.7682,-0.7539,-0.7465,-0.758,-0.7543,-0.7539,-0.7695,-0.756,-0.7448,-0.7485,-0.7292,0.0,-0.7156,-0.7122,-0.7095,-0.7095,-0.7095,-0.7095,-0.7095,-0.6903,-0.6756,-0.6607,-0.6356,-0.6146,-0.5993,-0.5949,-0.5878,-0.5776,-0.5654,-0.5494,0.0,0.0,0.0,0.0,0.0,0.0,0.0,0.0,0.0,0.0,0.0,0.0,0.0,0.0,0.0,0.0,0.0,0.0,0.0,0.0,0.0,0.0,1.0098,1.0185,1.0677,1.0894,1.1121,1.145,1.1565,1.165,1.1735,1.1796,1.183,1.183,1.1915,1.1891,1.1714,1.0629,1.0018,0.9942,0.8009,0.6884,0.6829,0.4894,0.3522,0.2673,0.1624,0.074,0.0,0.0,0.0,0.0,0.0,0.0,0.0,0.0,0.0,0.0,0.0,0.0,0.0,0.0,-0.2083,-0.2344,-0.3243,-0.344,-0.3255,-0.3255,-0.4131,-0.5272,-0.5827,-0.6531,-0.7285,-0.7839,-0.7988,-0.7988,-0.7988,-0.7941,-0.7874,-0.7831,-0.7716,-0.7604,-0.7522,-0.7383,-0.7302,-0.739,-0.7336,0.0,-0.739,-0.7387,-0.7439,-0.7458,-0.7282,-0.7119,-0.7227,-0.7136,-0.7095,-0.7095,-0.7095,-0.7095,-0.7095,-0.6886,0.0,0.0,0.0,-0.603,-0.581,-0.5864,0.0,0.0,0.0,-0.5698,-0.5579,0.0,0.0,0.0,-0.5739,-0.6072,0.0,0.0,0.0,0.0,0.0,0.0,0.0,0.0,0.0,0.0,0.0,0.0,0.0,0.0,0.0,0.0,1.137,1.0619,1.1297,1.1406,1.1467,1.1603,1.1619,1.1626,1.1643,1.1755,1.183,1.183,1.1847,1.184,1.1809,0.0,0.0,0.0,0.0,0.881,0.8797,0.6787,0.4925,0.328,0.2903,0.1881,0.0269,0.0067,0.0,0.0,0.0,0.0,0.0,0.0,0.0,0.0,0.0,-0.09,-0.238,-0.3685,-0.3252,-0.1955,-0.1974,0.0,0.0,-0.1754,-0.2701,-0.4016,-0.5175,-0.5677,-0.6077,-0.7385,-0.7786,-0.7783,-0.7766,-0.7664,-0.7559,-0.7379,-0.7276,-0.7184,-0.7164,-0.7148,-0.7095,-0.7095,-0.7095,-0.7095,-0.7095,-0.7255,-0.7394,-0.7526,-0.727,-0.7146,-0.7326,-0.7224,-0.7095,-0.7095,0.0,0.0,-0.7095,-0.695,-0.6837,-0.6685,-0.6436,-0.6149,-0.5837,-0.5973,-0.5983,-0.583,-0.5925,-0.5919,-0.58,-0.5902,-0.5905,-0.5823,-0.5698,-0.5789,0.0,0.0,0.0,0.0,0.0,0.0,0.0,0.0,0.0,0.0,0.0,0.0,0.0,0.0,0.0,1.2747,1.1829,1.1084,1.1355,1.1497,1.1586,1.1616,1.1619,1.1664,1.1779,1.1816,1.183,1.183,1.1945,1.1911,1.1674,1.1742,1.1738,1.1623,1.1109,1.076,1.0714,0.8752,0.7477,0.6922,0.0,0.0,0.2149,0.0673,0.0,0.0,0.0,0.0,0.0,0.0,0.0,0.0,0.0,-0.0176,-0.052,-0.078,-0.0707,-0.0427,-0.042,-0.0412,-0.0406,-0.0406,-0.1314,-0.2414,-0.2716,-0.3518,0.0,-0.6027,-0.6381,-0.641,-0.641,-0.6365,-0.6056,-0.488,-0.5281,-0.5917,-0.5816,-0.6491,-0.7095,-0.7095,-0.7095,-0.7095,-0.7095,-0.7122,-0.7149,-0.7179,-0.7136,-0.7105,-0.7136,-0.7112,-0.7095,-0.7095,-0.7095,-0.7095,-0.7095,-0.6898,-0.6678,-0.6566,-0.6237,-0.6047,-0.5949,-0.6135,-0.6142,-0.5952,-0.5976,-0.5919,-0.58,-0.583,-0.5895,-0.5946,-0.5922,-0.6044,0.0,0.0,0.0,0.0,0.0,0.0,0.0,0.0,0.0,0.0,0.0,1.6991,1.7773,0.0,1.5378,1.5233,1.3982,1.2719,1.1743,1.1677,1.1697,1.163,1.1619,1.1647,1.1718,1.1725,1.1755,1.1826,1.1837,1.1806,1.1728,1.1725,1.1694,1.1619,1.1396,1.124,1.1231,1.0051,0.8965,0.7964,0.6227,0.4892,0.3957,0.22,0.1381,0.1288,0.0384,0.0,0.0,0.0,0.0,0.0,0.0,0.0,0.0,0.0,0.0,0.0,0.0,0.0,0.0,0.0,-0.0454,-0.1109,-0.1812,-0.2464,-0.3265,-0.462,-0.499,-0.4995,-0.4994,-0.4958,-0.472,-0.3979,-0.4203,-0.4568,-0.4518,-0.4952,-0.5351,-0.5351,-0.5351,-0.5531,-0.616,-0.6248,-0.6428,-0.7007,-0.7095,-0.7095,-0.7095,-0.7095,-0.7068,-0.6997,-0.6991,-0.696,-0.6926,-0.6715,-0.6522,-0.6416,-0.6227,-0.6108,-0.5996,-0.6179,-0.6186,-0.5996,-0.6105,-0.6108,-0.6067,-0.6067,-0.6071,-0.6146,-0.6146,-0.6224,0.0,0.0,0.0,0.0,0.0,0.0,0.0,1.9447,1.8873,1.9438,1.9516,1.9792,2.075,1.978,1.8494,1.7632,1.6034,1.4176,1.2122,1.183,1.1769,1.1596,1.1603,1.1619,1.1619,1.1619,1.1667,1.1782,1.1684,1.167,1.1782,1.1681,1.1606,1.1575,1.1307,1.1148,1.1121,1.0853,0.9978,0.8499,0.8166,0.7296,0.5828,0.4031,0.2998,0.2569,0.0759,0.0,0.0,0.0,0.0,0.0,0.0,0.0,0.0,0.0,0.0,0.0,0.0,0.0,0.0,0.0,0.0,-0.0202,-0.126,-0.1607,-0.1902,-0.3247,-0.36,-0.3595,-0.3631,-0.3542,-0.3405,-0.3118,-0.3165,-0.326,-0.326,-0.3436,-0.3614,-0.3614,-0.3614,-0.3927,-0.4865,-0.5045,-0.5534,-0.6871,-0.7095,-0.7095,-0.7095,-0.7095,-0.7051,-0.694,-0.6927,-0.6856,-0.6715,-0.6586,-0.6484,-0.631,-0.63,-0.6245,-0.6078,-0.6196,-0.6242,-0.6078,-0.6235,-0.63,-0.63,-0.63,-0.63,-0.63,-0.63,-0.6375,1.5111,1.5683,1.7585,2.0959,2.076,2.0742,0.0,2.3851,2.2543,2.261,2.2818,2.2809,2.2028,2.0784,1.9374,1.7735,1.6154,1.4318,1.214,1.183,1.1728,1.145,1.1538,1.1619,1.1619,1.1619,1.1626,1.1643,1.163,1.1626,1.1643,1.163,1.1558,1.1419,1.1253,1.1101,1.0975,1.0806,1.0585,1.0382,0.8767,0.7897,0.7626,0.5743,0.4038,0.2569,0.0814,0.0,0.0,0.0,0.0,0.0,0.0,0.0,0.0,0.0,0.0,0.0,0.0,0.0,0.0,0.0,0.0,-0.0051,-0.0202,-0.02,-0.0492,-0.1865,-0.2227,-0.2234,-0.2242,-0.2223,-0.1884,-0.0724,-0.1212,-0.2013,-0.2013,-0.2858,-0.3614,-0.3614,-0.3614,-0.3659,-0.3792,-0.3792,-0.455,-0.6782,-0.7095,-0.7095,-0.7095,-0.7095,-0.7092,-0.7075,-0.7071,-0.696,-0.6722,-0.6685,-0.6556,-0.6317,-0.63,-0.6293,-0.6276,-0.6289,-0.6289,-0.6276,-0.6289,-0.63,-0.63,-0.63,-0.63,-0.63,-0.63,-0.6375,1.6333,1.7334,1.9023,2.1746,2.2294,2.2917,2.5919,2.5628,2.459,2.4135,2.4047,2.3766,2.2713,2.2352,2.1731,2.0162,1.8308,1.6321,1.404,1.2611,1.1721,1.1426,1.1369,1.1355,1.1355,1.1355,1.1392,1.148,1.1487,1.1525,1.1613,1.1535,1.1457,1.1392,1.1162,1.1009,1.088,1.0799,1.0721,1.0717,0.9827,0.9455,0.9383,0.7429,0.5078,0.2569,0.1796,0.0925,0.0,0.0,0.0,0.0,0.0,0.0,0.0,0.0,0.0,0.0,0.0,0.0,0.0,0.0,0.0,0.0,0.0,0.0,-0.01,-0.0698,-0.0836,-0.0822,-0.0816,-0.0847,-0.0692,-0.0137,-0.0407,-0.0763,-0.0763,-0.1165,-0.1522,-0.1522,-0.1522,-0.1746,-0.2413,-0.2547,-0.3126,-0.4816,-0.5667,-0.6115,-0.6115,-0.6694,-0.7065,-0.698,-0.6896,-0.6834,-0.6712,-0.662,-0.6555,-0.6429,-0.6344,-0.63,-0.63,-0.63,-0.63,-0.63,-0.63,-0.63,-0.63,-0.63,-0.63,-0.63,-0.63,-0.633,1.7027,1.8241,1.9586,2.1605,2.2742,2.3859,2.5715,2.6198,2.5925,2.4649,2.4711,2.4533,2.3025,2.3166,2.3054,2.1602,1.9714,1.7672,1.5406,1.3235,1.1704,1.1369,1.1196,1.1087,1.1043,1.1183,1.1226,1.1379,1.1352,1.1396,1.1548,1.1413,1.1311,1.127,1.106,1.086,1.082,1.0775,1.0721,1.0717,1.0565,1.049,1.0415,0.846,0.6228,0.3811,0.3307,0.2447,0.1283,0.1243,0.0993,0.0582,0.0613,0.0379,0.0,0.0,0.0,0.0,0.0,0.0,0.0,0.0,0.0,0.0,0.0,0.0,0.0,0.0,0.0,0.0,0.0,0.0,0.0,0.0,0.0,0.0,0.0,0.0,0.0,0.0,0.0,-0.0269,-0.1165,-0.1299,-0.1612,-0.2458,-0.3618,-0.451,-0.4865,-0.5622,-0.6078,-0.599,-0.6196,-0.6337,-0.6257,-0.6163,-0.623,-0.6474,-0.6097,-0.5983,-0.63,-0.63,-0.63,-0.63,-0.63,-0.63,-0.63,-0.63,-0.63,-0.63,-0.63,-0.6276,1.6316,1.7369,1.8593,2.0418,2.1702,2.2798,2.3679,2.5661,2.6551,2.4132,2.51,2.5557,2.2905,2.2686,2.2443,2.0983,1.9289,1.7427,1.5385,1.3235,1.1667,1.1223,1.1043,1.083,1.0748,1.0995,1.1226,1.1379,1.1253,1.1236,1.1389,1.1253,1.1104,1.0897,1.0887,1.0809,1.0727,1.0721,1.0721,1.0717,1.0565,1.049,1.0415,0.846,0.747,0.7169,0.5379,0.4626,0.4554,0.441,0.3493,0.2115,0.2157,0.1244,0.0,0.0,0.0,0.0,0.0,0.0,0.0,0.0,0.0,0.0,0.0,0.0,0.0,0.0,0.0,0.0,0.0,0.0,0.0,0.0,0.0,0.0,0.0,0.0,0.0,0.0,0.0,0.0,-0.0045,-0.0045,-0.0045,-0.009,-0.1121,-0.2325,-0.3525,-0.3703,-0.3703,-0.37,-0.4723,-0.5349,-0.5147,-0.5162,-0.5544,-0.6441,-0.5381,-0.5198,-0.6261,-0.63,-0.63,-0.63,-0.63,-0.63,-0.63,-0.63,-0.63,-0.63,-0.63,-0.6179,1.454,1.4564,1.4835,1.7027,1.8789,2.0526,2.2271,2.4081,2.4985,2.3359,2.3351,2.3037,2.1257,2.137,2.1753,2.1825,2.0704,1.9165,1.7341,1.519,1.3228,1.1421,1.1036,1.0823,1.0734,1.0809,1.0931,1.1087,1.105,1.1084,1.1229,1.1101,1.0999,1.0884,1.0782,1.0772,1.0721,1.0721,1.067,1.0565,1.0317,1.0144,0.998,0.938,0.8445,0.7355,0.6642,0.5702,0.4671,0.4581,0.4093,0.3538,0.3528,0.265,0.1304,0.1331,0.0761,0.0,0.0,0.0,0.0,0.0,0.0,0.0,0.0,0.0,0.0,0.0,0.0,0.0,0.0,0.0,0.0,0.0,0.0,0.0,0.0,0.0,0.0,0.0,0.0,0.0,0.0,0.0,0.0,0.0,-0.1031,-0.2236,-0.3436,-0.3614,-0.3614,-0.3614,-0.3972,-0.416,-0.4118,-0.3984,-0.402,-0.4373,-0.3916,-0.3787,-0.4178,-0.4178,-0.4178,-0.4178,-0.4805,-0.5152,-0.5234,-0.5713,-0.6006,-0.6105,-0.6003,-0.5928,1.384,1.3335,1.3022,1.4848,1.6274,1.7835,1.9843,2.1604,2.2548,2.1547,2.1743,2.1546,1.9899,2.0,2.0615,2.149,2.0496,1.9363,1.8719,1.6164,1.3809,1.2427,1.147,1.0843,1.0812,1.0802,1.0843,1.0873,1.083,1.0931,1.108,1.0948,1.0799,1.0799,1.0772,1.0721,1.0721,1.0666,1.0534,1.0331,1.0078,0.9906,0.9819,0.9768,0.9134,0.8147,0.7977,0.7255,0.6298,0.6134,0.5691,0.5065,0.5054,0.4108,0.2758,0.274,0.1862,0.0656,0.0151,0.0,0.0,0.0,0.0,0.0,0.0,0.0,0.0,0.0,0.0,0.0,0.0,0.0,0.0,0.0,0.0,0.0,0.0,0.0,0.0,0.0,0.0,0.0,0.0,0.0,0.0,0.0,-0.0673,-0.1433,-0.2236,-0.2324,-0.2324,-0.2324,-0.2706,-0.2944,-0.2948,-0.2822,-0.292,-0.3322,-0.2852,-0.2735,-0.3085,-0.3085,-0.3085,-0.3085,-0.3691,-0.4056,-0.4128,-0.4596,-0.5054,-0.546,-0.537,-0.5483,1.4117,1.3556,1.3018,1.3759,1.4202,1.4896,1.6474,1.8315,1.9439,1.8951,2.0259,2.0913,1.8802,1.8651,1.9165,2.0047,1.8852,1.8273,1.9478,1.6098,1.3709,1.4176,1.2292,1.0897,1.0884,1.088,1.0877,1.087,0.0,1.0782,1.086,1.0799,1.0721,1.0721,1.0721,1.0717,1.0707,1.0551,1.0327,0.9987,0.9977,0.9899,0.9815,0.9676,0.9608,0.9591,0.9344,0.921,0.92,0.8998,0.8091,0.6772,0.6661,0.5666,0.4266,0.417,0.3265,0.1913,0.0656,0.0101,0.0,0.0,0.0,0.0,0.0,0.0,0.0,0.0,0.0,0.0,0.0,0.0,0.0,0.0,0.0,0.0,0.0,0.0,0.0,0.0,0.0,0.0,0.0,0.0,0.0,0.0,0.0,0.0,0.0,0.0,0.0,0.0,-0.1012,-0.169,-0.1688,-0.1705,-0.2145,-0.3152,-0.214,-0.1957,-0.289,-0.2929,-0.2929,-0.2929,-0.3004,-0.3008,-0.3018,-0.3049,-0.3524,-0.4411,-0.4439,-0.4847,1.3388,1.1946,1.0429,1.08,1.1879,1.3186,1.4611,1.604,1.7235,1.782,1.7991,1.7771,1.7002,1.7622,1.8502,1.9446,2.0299,2.0693,2.0075,1.7982,1.5971,1.4379,1.2491,1.1192,1.09,1.088,1.0833,1.0785,1.0744,1.0738,1.0775,1.0741,1.0721,1.0721,1.0721,1.0666,1.0551,1.029,1.0061,0.9984,0.9872,0.9859,0.9815,0.9676,0.9608,0.9591,0.9344,0.921,0.92,0.8998,0.8583,0.8052,0.7979,0.699,0.5546,0.5493,0.462,0.3466,0.3115,0.1661,0.0,0.0,0.0,0.0,0.0,0.0,0.0,0.0,0.0,0.0,0.0,0.0,0.0,0.0,0.0,0.0,0.0,0.0,0.0,0.0,0.0,0.0,0.0,0.0,0.0,0.0,0.0,0.0,0.0,0.0,0.0,0.0,-0.0264,-0.0475,-0.0467,-0.0455,-0.0565,-0.0832,-0.0591,-0.051,-0.0784,-0.0784,-0.0784,-0.0784,-0.1423,-0.1823,-0.2001,-0.2542,-0.2979,-0.3309,-0.3863,-0.4222,1.365,1.1766,0.9713,0.988,1.1069,1.2522,1.3567,1.4885,1.6114,1.6701,1.6553,1.6233,1.5945,1.6647,1.7602,1.8624,1.994,2.0852,2.0787,1.8572,1.6599,1.5663,1.3029,1.1226,1.106,1.0917,1.0816,1.0731,1.0721,1.0721,1.0721,1.0721,1.0721,1.0721,1.0656,1.0517,1.03,1.0068,0.9953,0.9886,0.9863,0.9788,0.9724,0.9578,0.9473,0.9395,0.0,0.9059,0.9052,0.8974,0.8798,0.8574,0.8509,0.7872,0.7012,0.6904,0.6027,0.487,0.487,0.3518,0.1661,0.1058,0.0502,0.0,0.0,0.0,0.0,0.0,0.0,0.0,0.0,0.0,0.0,0.0,0.0,0.0,0.0,0.0,0.0,0.0,0.0,0.0,0.0,0.0,0.0,0.0,0.0,0.0,0.0,0.0,0.0,0.0,0.0,0.0,0.0,0.0,0.0,0.0,0.0,0.0,0.0,0.0,0.0,0.0,-0.0498,-0.079,-0.0892,-0.1321,-0.1737,-0.2228,-0.3034,-0.3647,1.4741,1.2825,1.0754,1.0754,1.1699,1.2866,1.3453,1.4576,1.5582,1.5715,1.5772,1.5698,1.5444,1.5905,1.672,1.7862,1.8811,1.9953,2.146,1.8487,1.639,1.7067,1.3837,1.1517,1.1479,1.1557,1.1415,1.1059,1.124,1.1178,1.0717,1.0721,1.0711,1.069,1.0541,1.0331,0.999,0.9967,0.9889,0.9822,0.9802,0.973,0.9605,0.9432,0.9337,0.92,0.8981,0.0,0.8851,0.8831,0.8788,0.8638,0.8506,0.8367,0.8225,0.8039,0.7285,0.6279,0.6279,0.5372,0.4066,0.2658,0.1342,0.0247,0.0249,0.0147,0.0,0.0,0.0,0.0,0.0,0.0,0.0045,0.018,0.0225,0.0225,0.0225,0.0225,0.0223,0.0219,0.0218,0.0174,0.0044,0.0,0.0,0.0,0.0,0.0,0.0,0.0,0.0,0.0,0.0,0.0,0.0,0.0,0.0,0.0,0.0,0.0,0.0,0.0,0.0,0.0,0.0,0.0,0.0,0.0,-0.038,-0.114,-0.2076,-0.2911,1.7211,1.5972,1.4524,1.4524,1.438,1.4414,1.511,1.4893,1.4719,1.5336,1.5471,1.5458,1.5404,1.6072,1.7021,1.8223,1.8951,1.9967,2.167,1.874,1.6496,1.7008,1.4974,1.3441,1.3149,1.4352,1.4515,1.2947,1.4166,1.3713,1.085,1.0721,1.0663,1.0534,1.0392,1.0229,0.9987,0.9862,0.9846,0.9819,0.9703,0.9635,0.9602,0.932,0.9234,0.9197,0.8869,0.0,0.874,0.8615,0.8476,0.8343,0.8371,0.8214,0.8025,0.8002,0.7839,0.7637,0.7637,0.6781,0.5411,0.3949,0.2676,0.164,0.1522,0.0813,0.0,0.0,0.0,0.0,0.0,0.0,0.0269,0.1254,0.1478,0.1478,0.1478,0.1478,0.1476,0.1471,0.1493,0.1172,0.0174,0.0,0.0,0.0,0.0,0.0,0.0,0.0,0.0,0.0,0.0,0.0,0.0,0.0,0.0,0.0,0.0,0.0,0.0,0.0,0.0,0.0,0.0,0.0,0.0,0.0,-0.0069,-0.0236,-0.1141,-0.1608,1.8093,1.6998,1.5701,1.5647,1.5774,1.5803,1.5355,1.5285,1.5204,1.4822,1.4836,1.499,1.5144,1.5892,1.6767,1.7702,1.8424,1.9419,2.0869,1.8117,1.6491,1.7996,1.5649,1.4173,1.4762,1.5553,1.5638,1.4693,1.5399,1.4362,1.0916,1.0643,1.0534,1.0385,1.0236,1.0086,0.9869,0.9859,0.9822,0.9819,0.9676,0.9568,0.9483,0.9313,0.9169,0.9028,0.8808,0.0,0.8699,0.8547,0.8397,0.8323,0.8323,0.8177,0.7988,0.7988,0.7988,0.7988,0.7988,0.7587,0.691,0.6141,0.4538,0.2925,0.2951,0.2425,0.1867,0.1946,0.1924,0.1856,0.1884,0.1879,0.2013,0.2592,0.2726,0.2726,0.2726,0.2726,0.2726,0.2726,0.2747,0.2552,0.1983,0.1356,0.0916,0.0926,0.0398,0.0,0.0,0.0,0.0,0.0,0.0,0.0,0.0,0.0,0.0,0.0,0.0,0.0,0.0,0.0,0.0,0.0,0.0,0.0,0.0,0.0,0.0,-0.0034,-0.0906,-0.1307,1.8897,1.8052,1.6974,1.6907,1.7301,1.7271,1.5803,1.5865,1.5832,1.4616,1.4502,1.4723,1.5084,1.5712,1.6393,1.7092,1.7689,1.8584,1.9953,1.7627,1.6593,1.8789,1.6547,1.5284,1.6531,1.6866,1.6888,1.6496,1.6067,1.4637,1.1956,1.1348,1.0998,1.0848,1.0315,0.9913,0.9822,0.9822,0.9805,0.9774,0.9629,0.9479,0.9327,0.9174,0.9028,0.8824,0.8726,0.0,0.0,0.8448,0.8319,0.8221,0.8221,0.8147,0.7988,0.7988,0.7988,0.7988,0.7988,0.7988,0.7971,0.7899,0.6206,0.4267,0.4311,0.4016,0.3616,0.3719,0.3663,0.3614,0.3614,0.3614,0.3659,0.3927,0.3972,0.4061,0.4281,0.415,0.3972,0.3972,0.3972,0.3881,0.3659,0.276,0.2133,0.2133,0.1286,0.0659,0.0645,0.0466,0.0335,0.0332,0.0124,0.0,0.0,0.0,0.0,0.0,0.0,0.0,0.0,0.0,0.0,0.0,0.0,0.0,0.0,0.0,0.0,0.0,-0.0706,-0.1006,2.0763,2.0722,2.0646,2.062,1.9917,1.8915,1.791,1.6722,1.5758,1.5357,1.509,1.509,1.5651,1.5764,1.6152,1.7058,1.6994,1.7562,1.9559,1.81,1.7295,1.8425,1.8392,1.8236,1.8308,1.9693,1.9941,1.8378,1.6562,1.5514,1.5454,1.3784,1.277,1.2658,1.093,0.9913,0.9822,0.9822,0.9754,0.9629,0.9473,0.932,0.9224,0.9025,0.8876,0.8723,0.857,0.0,0.0,0.8143,0.8022,0.8012,0.8012,0.8002,0.7988,0.7988,0.7988,0.7988,0.7988,0.7988,0.7988,0.7975,0.6923,0.5615,0.5489,0.4572,0.3616,0.3607,0.3624,0.3614,0.3614,0.3614,0.3881,0.4954,0.5225,0.5536,0.6558,0.598,0.5225,0.5225,0.5225,0.4865,0.3792,0.334,0.3171,0.3171,0.2946,0.2801,0.2818,0.203,0.1446,0.1467,0.0592,0.0,0.0,0.0,0.0,0.0,0.0,0.0,0.0,0.0,0.0,0.0,0.0,0.0,0.0,0.0,0.0,0.0,-0.0067,-0.0135,2.0675,2.0975,2.1109,2.1109,2.01,1.8918,1.8155,1.671,1.5484,1.5197,1.5089,1.5129,1.5491,1.5571,1.5738,1.6273,1.6112,1.6453,1.8043,1.6771,1.6598,1.8989,1.8479,1.8467,1.9916,2.0716,2.0777,1.9896,1.9074,1.8613,1.8491,1.5737,1.4094,1.4076,1.3209,1.2289,1.1257,1.2039,1.1951,1.0949,1.1585,1.1395,1.0478,1.0315,0.9661,0.8703,0.855,0.0,0.0,0.8102,0.7988,0.7988,0.7988,0.7988,0.7988,0.7988,0.7988,0.7988,0.7988,0.7988,0.7988,0.7988,0.754,0.7009,0.6953,0.6374,0.5739,0.5857,0.581,0.5708,0.5708,0.5708,0.5844,0.6293,0.6428,0.6539,0.69,0.6684,0.6404,0.6328,0.6373,0.6293,0.5797,0.5053,0.4544,0.4544,0.3811,0.3222,0.3232,0.2798,0.2513,0.2511,0.0992,0.0,0.0,0.0,0.0,0.0,0.0,0.0,0.0,0.0,0.0,0.0,0.0,0.0,0.0,0.0,0.0,0.0,0.0,0.0,2.01,2.0568,2.0848,2.0848,1.9813,1.8664,1.8102,1.6734,1.5464,1.5264,1.515,1.5177,1.5471,1.5524,1.5591,1.5751,1.5658,1.5872,1.6931,1.6152,1.6422,1.8953,1.8326,1.8493,2.0531,2.0882,2.0895,2.0688,2.0514,2.0327,2.0114,1.7559,1.5997,1.5579,1.4955,1.4034,1.2779,1.3747,1.3553,1.2289,1.3019,1.2808,1.1749,1.1562,1.063,0.9142,0.944,0.0,0.0,0.8478,0.8382,0.7988,0.7988,0.7988,0.7988,0.7988,0.7988,0.7988,0.7988,0.7988,0.7988,0.7988,0.786,0.775,0.775,0.7495,0.7231,0.7343,0.7258,0.7095,0.7095,0.7095,0.7095,0.7095,0.7095,0.7068,0.697,0.7024,0.7065,0.6967,0.7028,0.7082,0.7041,0.6337,0.5773,0.5737,0.486,0.418,0.4194,0.3843,0.358,0.356,0.1985,0.0798,0.0511,0.0196,0.0,0.0,0.0,0.0,0.0,0.0,0.0,0.0,0.0,0.0,0.0,0.0,0.0,0.0,0.0,0.0,1.9299,1.9806,2.0241,2.0241,1.9359,1.841,1.809,1.6881,1.5778,1.5771,1.5591,1.5478,1.5772,1.5778,1.5778,1.5784,1.5778,1.6032,1.6627,1.6967,1.7375,1.7963,1.831,1.8851,1.9726,2.0341,2.0681,2.0675,2.0134,0.0,1.9806,1.9533,1.8712,1.7398,1.5552,1.4434,1.4197,1.4197,1.3976,1.3497,1.3163,1.2944,1.2773,1.2506,1.1569,1.0268,0.0,0.0,0.0,0.9414,0.9217,0.7988,0.7988,0.7988,0.7988,0.7988,0.7988,0.7988,0.7988,0.7988,0.7988,0.7988,0.7841,0.76,0.76,0.7492,0.7415,0.7415,0.7258,0.7095,0.7095,0.7095,0.7095,0.7095,0.7095,0.7095,0.7095,0.7095,0.7095,0.7095,0.7095,0.7051,0.6913,0.6765,0.6654,0.6502,0.6359,0.6268,0.6264,0.5356,0.4688,0.4686,0.3709,0.2657,0.1685,0.0628,0.0,0.0,0.0,0.0,0.0,0.0,0.0,0.0,0.0,0.0,0.0,0.0,0.0,0.0,0.0,0.0,1.8543,1.8744,1.9045,1.9045,1.8303,1.7601,1.7501,1.644,1.5591,1.5744,1.5598,1.5484,1.5724,1.5665,1.5598,1.5751,1.5665,1.5665,1.6052,1.6533,1.7215,1.8223,1.9312,2.0094,2.0374,2.0381,2.0287,2.0094,1.972,1.9419,1.9212,1.8925,1.8757,1.8764,1.7973,1.6962,1.5764,1.6464,1.6202,1.4988,1.5767,1.5499,1.4294,1.4221,1.3238,0.0,0.0,0.0,0.0,1.1116,1.1068,1.0583,0.9706,0.9361,0.9266,0.8333,0.7988,0.7988,0.7988,0.7988,0.7971,0.787,0.7821,0.7726,0.7631,0.7421,0.7214,0.7214,0.7132,0.7095,0.7095,0.7095,0.7095,0.7095,0.7095,0.7068,0.6974,0.7028,0.7068,0.697,0.7031,0.7051,0.691,0.6927,0.691,0.6807,0.6746,0.6678,0.6576,0.6184,0.5887,0.5796,0.4844,0.3748,0.2696,0.1684,0.1097,0.1097,0.0392,0.0,0.0,0.0,0.0,0.0,0.0,0.0,0.0,0.0,0.0,0.0,0.0,0.0,1.8487,1.8149,1.815,1.815,1.7562,1.7032,1.7032,1.6246,1.5611,1.5792,1.5685,1.5618,1.5751,1.5678,1.5618,1.5751,1.5678,1.5625,1.5758,1.6339,1.7061,1.8029,1.9252,2.0013,2.0013,2.0047,1.9947,1.9659,1.9366,1.9072,1.8778,1.8591,1.8657,1.9025,1.8858,1.8186,1.7098,1.7607,1.7321,1.6279,1.686,1.6522,1.5466,1.5362,1.4424,0.0,0.0,0.0,0.0,1.2431,1.2382,1.1799,1.1023,1.073,1.0583,0.9217,0.9069,0.9402,0.8799,0.8875,0.9275,0.91,0.8717,0.8265,0.811,0.7692,0.7214,0.7112,0.7095,0.7095,0.7095,0.7055,0.7018,0.7018,0.6974,0.6923,0.6893,0.6953,0.6991,0.6903,0.6957,0.6953,0.6793,0.6827,0.6841,0.6698,0.6678,0.6661,0.662,0.6525,0.6419,0.6381,0.5736,0.504,0.4373,0.301,0.2151,0.2151,0.1527,0.1175,0.1175,0.1131,0.1078,0.1095,0.069,0.0498,0.0498,0.0176,0.0,0.0,0.0,0.0,0.0,1.8181,1.7612,1.7507,1.7048,1.6647,1.6647,1.6219,0.0,1.5758,1.5751,1.5751,1.5751,1.5751,1.5758,1.5778,1.5784,1.5784,1.5784,1.6386,1.7014,1.7609,1.845,1.8958,1.8898,1.9406,1.9619,1.9383,1.9032,1.8744,1.847,1.8417,1.8397,1.8397,1.8377,1.825,1.7962,1.7709,1.7402,1.7166,1.6616,1.6342,1.6308,1.5985,1.5166,0.0,0.0,0.0,0.0,1.3542,1.3295,1.2188,1.2091,1.2042,1.1896,1.0565,1.0854,1.1647,1.0145,1.045,1.1442,1.118,1.0235,0.9191,0.9056,0.8253,0.7322,0.7125,0.7088,0.7095,0.7085,0.6984,0.6886,0.6886,0.681,0.6739,0.6839,0.6869,0.6869,0.6869,0.6869,0.6817,0.6562,0.6521,0.648,0.6337,0.6323,0.6378,0.6511,0.6405,0.6364,0.6497,0.6385,0.63,0.63,0.4414,0.3202,0.3202,0.3124,0.3085,0.3085,0.2979,0.2905,0.2905,0.1914,0.1379,0.1305,0.0497,0.0071,0.0,0.0,0.0,2.0739,0.0,1.7435,1.6482,1.6139,1.6032,0.0,1.5878,1.5718,1.5545,1.5498,1.5498,1.5498,1.5498,1.5571,1.5792,1.5784,1.5784,1.5784,1.6914,1.7929,1.8537,1.9192,1.9332,1.8657,1.8918,1.9011,1.8718,1.8424,1.8169,1.8102,1.7716,1.7521,1.7521,1.7241,1.7308,1.7689,1.7454,1.7152,1.6807,1.6667,1.6486,1.6321,1.6199,1.5895,0.0,0.0,0.0,1.4908,1.5194,1.5146,1.4806,1.383,1.344,1.3225,1.1695,1.1344,1.1505,1.0912,1.0932,1.117,1.0955,1.0608,1.0212,0.9961,0.8628,0.7119,0.6974,0.7014,0.7071,0.6964,0.691,0.6886,0.6886,0.681,0.6712,0.6746,0.6756,0.6756,0.6756,0.6756,0.6695,0.6545,0.6569,0.6597,0.6484,0.6522,0.661,0.6644,0.6515,0.6474,0.6508,0.6385,0.63,0.63,0.5079,0.4334,0.4334,0.3552,0.3085,0.3085,0.3056,0.3018,0.2905,0.265,0.2122,0.1305,0.1262,0.0808,0.0,0.0,0.0,2.1426,1.9943,1.8226,1.699,1.6662,1.6527,1.592,1.5678,1.5718,1.6049,1.5643,1.5413,1.6032,1.5752,1.5491,1.5785,1.5784,1.5878,1.6192,1.6914,1.7736,1.8617,1.8885,1.8911,1.8711,1.8711,1.8544,1.8103,1.7923,1.7716,1.7448,1.7121,1.6947,1.6947,1.6787,1.686,1.7174,1.6945,1.6717,1.6506,1.6373,1.6219,1.6072,1.6072,1.5979,0.0,0.0,0.0,1.5645,1.5724,1.5671,1.5398,1.481,1.449,1.422,1.2759,1.2564,1.3003,1.2111,1.2092,1.2468,1.2336,1.1811,1.1154,1.103,0.9704,0.8268,0.8216,0.8215,0.8268,0.8216,0.8131,0.8106,0.8106,0.7971,0.7904,0.7983,0.7999,0.7999,0.7999,0.7599,0.7266,0.71,0.6759,0.6511,0.6426,0.6484,0.6522,0.6586,0.6508,0.6439,0.6504,0.6385,0.63,0.63,0.5786,0.5405,0.5304,0.4762,0.4416,0.4416,0.439,0.411,0.3628,0.3546,0.3027,0.2027,0.2073,0.1816,0.1224,0.1225,0.1008,2.1743,2.0765,1.9724,1.8319,1.7956,1.7677,1.6615,1.6045,1.6017,1.7026,1.6213,1.5701,1.6959,1.6519,1.5987,1.6062,1.596,1.6119,1.6747,1.684,1.7215,1.823,1.821,1.8202,1.8617,1.847,1.8123,1.7555,1.7475,1.7235,1.6734,1.666,1.664,1.664,1.6593,1.6573,1.6573,1.6373,1.6253,1.6206,1.5952,1.5784,1.5784,1.5784,1.5784,1.5778,0.0,0.0,1.5411,1.5611,1.5404,1.5035,1.5237,1.5177,1.4867,1.366,1.3969,1.4716,1.3341,1.341,1.4082,1.4035,1.3156,1.214,1.2057,1.115,1.0174,1.0098,0.9898,0.97,0.9666,0.9597,0.9492,0.9492,0.9414,0.9347,0.9446,0.9486,0.9486,0.9486,0.8783,0.8151,0.8038,0.7326,0.6756,0.6756,0.6641,0.6581,0.673,0.6463,0.6354,0.6497,0.6385,0.63,0.63,0.63,0.6196,0.6003,0.5993,0.5983,0.5959,0.5847,0.5405,0.4682,0.4508,0.397,0.3067,0.2963,0.286,0.2684,0.2713,0.2277,2.2287,2.2418,2.1996,1.977,1.9222,1.9177,1.8993,1.8095,1.7498,1.8061,1.7463,1.7109,1.8017,1.8402,1.8277,1.7539,1.6751,1.65,1.7328,1.7448,1.7515,1.7702,1.8136,1.8163,1.7541,1.7602,1.7635,1.7293,1.6981,1.68,1.6707,1.6473,1.6339,1.6339,1.6092,1.5917,1.5917,1.6166,1.6146,1.5899,1.5804,1.5784,1.5784,1.5784,1.5784,1.5764,0.0,1.5438,1.5384,1.5177,1.5089,1.5015,1.5062,1.5048,1.493,1.4449,1.4408,1.4506,1.4035,1.3952,1.4048,1.3753,1.351,1.3256,1.2792,1.2492,1.2248,1.1966,1.0835,0.9666,0.9553,0.9517,0.9492,0.9492,0.9414,0.9306,0.9342,0.9347,0.9347,0.9347,0.9194,0.9108,0.9074,0.896,0.8841,0.8841,0.8127,0.7614,0.7747,0.693,0.6354,0.6497,0.6385,0.63,0.63,0.63,0.6196,0.6003,0.5993,0.5936,0.584,0.5698,0.555,0.5446,0.5411,0.4882,0.3825,0.3916,0.3522,0.2684,0.2713,0.2611,2.2119,2.248,2.2534,2.1408,2.0962,2.0617,1.972,1.894,1.8669,1.9478,1.8758,1.8313,1.9436,1.9533,1.943,1.9382,1.8985,1.8867,1.9272,1.934,1.9173,1.8717,1.8829,1.8492,1.7513,1.7414,1.7213,1.6764,1.6547,1.64,1.6239,1.6106,1.6032,1.6032,1.5899,1.5784,1.5784,1.5965,1.5965,1.5784,1.5784,1.5784,1.5778,1.5665,1.5591,1.5585,0.0,1.5217,1.4937,1.5124,1.4917,1.4553,1.4663,1.4629,1.4519,1.4335,1.4282,1.4269,1.4135,1.4088,1.4041,1.37,1.35,1.3327,1.2918,1.267,1.2516,1.2338,1.1727,1.1079,1.1038,1.1003,1.1003,1.1003,1.0958,1.0913,1.0913,1.0913,1.0913,1.0913,1.0496,1.0115,1.0115,0.9669,0.9296,0.9296,0.8917,0.8421,0.797,0.7451,0.6937,0.6428,0.6337,0.63,0.63,0.6183,0.6071,0.5915,0.5908,0.584,0.5694,0.5698,0.5705,0.5705,0.563,0.5344,0.485,0.4847,0.4608,0.4159,0.4175,0.3882,2.1709,2.2041,2.2363,2.2363,2.2258,2.1871,2.0854,2.0198,2.0136,2.1342,2.0492,1.9886,2.106,2.0607,2.0326,2.1074,2.0954,2.082,2.0995,2.0937,2.0606,2.0002,1.9671,1.9177,1.8318,1.7766,1.7198,1.6738,1.64,1.6072,1.5791,1.5784,1.5784,1.5784,1.5784,1.5784,1.5784,1.5758,1.5758,1.5784,1.5758,1.5732,1.5718,1.5431,1.5297,1.5291,1.5224,1.4937,1.4549,1.493,1.4696,1.4108,1.4335,1.4282,1.4088,1.4088,1.4088,1.4088,1.4088,1.4041,1.3935,1.36,1.33,1.3046,1.2777,1.2485,1.2305,1.2305,1.2305,1.2305,1.2305,1.2305,1.2305,1.2305,1.2305,1.2305,1.2305,1.2305,1.2305,1.2305,1.1694,1.1162,1.1162,1.0496,1.0013,1.0013,0.9782,0.9367,0.8609,0.8313,0.7859,0.7099,0.6795,0.6553,0.6248,0.6098,0.5912,0.5766,0.5783,0.5722,0.5545,0.564,0.5698,0.5698,0.5593,0.5538,0.5569,0.5453,0.5395,0.5395,0.5395,0.5024,2.1132,2.1602,2.1934,2.1934,2.2233,2.2727,2.3825,2.287,2.2227,2.3813,2.3159,2.2455,2.2934,2.2022,2.1419,2.214,2.1345,2.0849,2.1528,2.1279,2.0983,2.0892,2.0541,2.0281,2.0216,1.89,1.803,1.7986,1.6627,1.5852,1.5784,1.5784,1.5784,1.5784,1.5784,1.5784,1.5784,1.5565,1.5565,1.5778,1.5558,1.5431,1.5418,1.5169,1.5042,1.5022,1.4703,1.4563,1.4502,1.4275,1.4148,1.4088,1.4108,1.4108,1.4088,1.4088,1.4088,1.4088,1.4088,1.3908,1.3586,1.334,1.3033,1.2764,1.2425,1.2318,1.2305,1.2305,1.2305,1.2305,1.2305,1.2305,1.2305,1.2305,1.2305,1.2305,1.2305,1.2305,1.2305,1.2305,1.2224,1.2187,1.2187,1.2114,1.2077,1.2077,1.1279,1.0671,1.0596,0.9782,0.915,0.9112,0.8237,0.7221,0.6132,0.6,0.5908,0.5623,0.5728,0.5674,0.5423,0.5423,0.5426,0.5426,0.5416,0.5412,0.5412,0.5399,0.5395,0.5395,0.5395,0.5362,2.0771,2.1338,2.1885,2.1885,2.2197,2.2783,2.3799,2.3727,2.3658,2.4283,2.4246,2.4029,2.3666,2.3169,2.295,2.3227,2.3103,2.3073,2.3338,2.3246,2.2813,2.1944,2.1726,2.1203,2.0209,1.9541,1.9012,1.8577,1.8017,1.7538,1.7288,1.7281,1.7281,1.7281,1.7281,1.7281,1.7281,1.6534,1.6534,1.7281,1.5843,1.5517,1.6111,1.512,1.5064,1.5647,1.4861,1.4422,1.4255,1.4329,1.4249,1.4088,1.4088,1.4088,1.4088,1.4088,1.3968,1.3808,1.3808,1.358,1.332,1.3019,1.2878,1.273,1.2392,1.2305,1.2305,1.2305,1.2305,1.2305,1.2305,1.2305,1.2305,1.2305,1.2305,1.2305,1.2305,1.2305,1.2305,1.2305,1.2305,1.2305,1.2305,1.2305,1.2305,1.2305,1.1959,1.1502,1.0901,1.049,1.0008,0.9372,0.8955,0.8529,0.7992,0.7818,0.7618,0.7373,0.629,0.5579,0.5402,0.5395,0.5395,0.5395,0.5395,0.5395,0.5395,0.5395,0.5395,0.5395,0.5395,0.5395,2.043,2.1006,2.168,2.168,2.2002,2.2607,2.373,2.4209,2.4531,2.4951,2.4844,2.4482,2.3896,2.3574,2.3477,2.375,2.4033,2.4258,2.4394,2.4307,2.3888,2.2945,2.2732,2.2116,2.0828,2.0374,1.9884,1.9215,1.8822,1.8496,1.8216,1.82,1.82,1.82,1.82,1.82,1.82,1.7251,1.7141,1.7823,1.6132,1.5899,1.6944,1.5862,1.5581,1.5948,1.5205,1.4597,1.4102,1.4302,1.4372,1.4428,1.4787,1.4711,1.4435,1.4476,1.4296,1.4062,1.3965,1.3929,1.3937,1.3746,1.364,1.3518,1.3302,1.3237,1.3237,1.3237,1.3237,1.3106,1.2724,1.2444,1.2305,1.2305,1.2305,1.2305,1.2305,1.2305,1.2305,1.2305,1.2305,1.2305,1.2305,1.2305,1.2305,1.2305,1.2225,1.1939,1.1224,1.104,1.0585,0.9601,0.9485,0.9322,0.8842,0.8705,0.8509,0.8276,0.7055,0.6303,0.6214,0.5947,0.5815,0.5815,0.5524,0.5395,0.5395,0.5395,0.5395,0.5395,0.5395,0.5368,2.0156,2.0557,2.119,2.12,2.1572,2.2344,2.4033,2.4414,2.4785,2.6113,2.5,2.3789,2.3789,2.3096,2.2793,2.3643,2.3779,2.3926,2.4346,2.4043,2.3779,2.3769,2.3389,2.2916,2.2549,2.1425,2.0501,2.0054,1.8879,1.8243,1.8235,1.8235,1.8235,1.8235,1.8235,1.8226,1.8226,1.7482,1.7131,1.7115,1.6389,1.6648,1.7779,1.745,1.6715,1.573,1.5688,1.5088,1.4117,1.4124,1.451,1.5218,1.6308,1.6031,1.5137,1.525,1.521,1.5045,1.4719,1.5025,1.5573,1.5581,1.5408,1.519,1.5199,1.5199,1.5199,1.5199,1.5199,1.4904,1.3657,1.2827,1.2335,1.2298,1.2298,1.2305,1.2298,1.2298,1.2298,1.2291,1.2291,1.2291,1.2298,1.2298,1.2298,1.2298,1.2051,1.1906,1.1899,1.161,1.1039,1.002,0.991,0.9467,0.8321,0.8233,0.8171,0.8042,0.8027,0.8027,0.7994,0.7177,0.6719,0.6719,0.5881,0.5428,0.5428,0.5428,0.5428,0.5428,0.5392,0.5277,2.0829,2.0809,2.0918,2.1533,2.2246,2.3076,2.417,2.4414,2.4707,2.5723,2.4785,2.3789,2.3789,2.333,2.2896,2.29,2.3135,2.3271,2.3105,2.2969,2.2783,2.249,2.2334,2.2207,2.209,2.1758,2.1368,2.0897,2.0533,2.0188,1.9891,1.9873,1.9743,1.9407,1.9397,1.9268,1.898,1.8015,1.7899,1.8619,1.7658,1.738,1.7721,1.681,1.6644,1.7038,1.6248,1.574,1.545,1.5768,1.6046,1.6269,1.6576,1.6497,1.6197,1.5911,1.5664,1.5441,1.5338,1.509,1.4876,1.5202,1.5037,1.4755,1.5081,1.5199,1.5199,1.5199,1.5199,1.5045,1.4338,1.401,1.3527,1.2314,1.2151,1.2245,1.2044,1.2033,1.1937,1.1724,1.1683,1.175,1.1964,1.2033,1.2033,1.2033,1.196,1.1797,1.1583,1.1449,1.1286,1.1005,1.097,1.0829,1.0474,1.0294,1.0151,1.0097,0.9949,0.9294,0.8059,0.7767,0.76,0.76,0.7377,0.7214,0.7214,0.6625,0.6301,0.6297,0.5535,0.5143,2.2195,2.2289,2.2175,2.2696,2.3209,2.3664,2.384,2.4307,2.4824,2.5361,2.4443,2.3594,2.376,2.3301,2.2818,2.273,2.2789,2.276,2.2549,2.2373,2.2168,2.1914,2.1885,2.1816,2.1641,2.1621,2.1367,2.0722,2.0674,2.0518,2.0126,2.0096,1.9932,1.9678,1.9668,1.9541,1.9287,1.8475,1.84,1.9023,1.8194,1.7831,1.7804,1.7465,1.7459,1.7635,1.6501,1.6,1.6046,1.6585,1.6809,1.6847,1.7302,1.7188,1.6784,1.6555,1.6334,1.6158,1.6041,1.5843,1.5689,1.5996,1.5776,1.5453,1.5918,1.5926,1.5838,1.6032,1.5926,1.5613,1.4854,1.473,1.437,1.2624,1.2354,1.2331,1.18,1.169,1.1637,1.1422,1.1389,1.1449,1.1663,1.169,1.169,1.169,1.1597,1.1416,1.1122,1.1082,1.1082,1.1082,1.1082,1.1035,1.0883,1.0748,1.0648,1.0648,1.0481,0.9982,0.9058,0.871,0.8517,0.8517,0.8036,0.7793,0.7793,0.7166,0.6845,0.6845,0.62,0.5867,2.3888,2.4329,2.4177,2.4311,2.4344,2.4158,2.3537,2.4222,2.4998,2.4998,2.4079,2.3384,2.3721,2.3086,2.2637,2.2974,2.2734,2.2432,2.2344,2.2002,2.1738,2.166,2.1689,2.1533,2.1054,2.1054,2.0722,1.9922,1.9853,1.9697,1.9307,1.9287,1.9268,1.9228,1.9189,1.917,1.917,1.8705,1.851,1.8539,1.8159,1.8008,1.8037,1.8818,1.8651,1.7676,1.6626,1.6167,1.6217,1.6861,1.7153,1.7252,1.8235,1.7986,1.7144,1.7252,1.718,1.6982,1.6753,1.6938,1.7298,1.7314,1.7031,1.6716,1.7187,1.7051,1.6785,1.7217,1.7041,1.6432,1.529,1.5196,1.4936,1.3249,1.2837,1.2571,1.1757,1.158,1.1574,1.1553,1.1546,1.1553,1.158,1.158,1.158,1.158,1.1275,1.0951,1.0746,1.0629,1.0553,1.0553,1.0579,1.0459,1.0077,1.01,1.0077,1.008,1.0043,1.02,1.0499,0.9768,0.9366,0.9366,0.8278,0.769,0.769,0.7365,0.721,0.721,0.7131,0.7012,2.3732,2.4054,2.4056,2.5187,2.528,2.5203,2.5406,2.4716,2.4062,2.4062,2.3848,2.3682,2.3769,2.3086,2.2539,2.2627,2.2295,2.1777,2.1124,2.0938,2.0644,1.9932,2.0137,2.0176,1.9746,2.0,1.998,1.9463,1.9424,1.9385,1.9287,1.9287,1.9131,1.8754,1.8422,1.8281,1.8281,1.7861,1.7822,0.0,1.8057,1.8008,1.8018,1.8203,1.8143,1.7925,1.7672,1.7558,1.7612,1.8068,1.827,1.827,1.8492,1.8456,1.8232,1.795,1.7624,1.7293,1.723,1.6864,1.6437,1.6758,1.6572,1.632,1.6707,1.6775,1.6716,1.6814,1.6775,1.6568,1.5988,1.5879,1.5574,1.4202,1.3765,1.3522,1.3074,1.2978,1.29,1.2704,1.2649,1.2727,1.2939,1.2978,1.2978,1.2978,1.1994,1.1319,1.1502,1.0773,1.0214,1.0214,1.0452,1.0378,0.982,0.9987,1.002,0.9793,0.978,0.9806,0.9903,0.9905,0.9931,0.9931,0.9466,0.9231,0.9231,0.8481,0.8122,0.8087,0.7315,0.6926,2.4096,2.4755,2.4838,2.6487,2.6419,2.6,2.6249,2.5256,2.4213,2.4044,2.3557,2.3305,2.3807,2.2978,2.2365,2.2825,2.1977,2.1134,2.0664,2.0253,1.9822,1.9336,1.9482,1.9531,1.9307,1.9482,1.9434,1.9014,1.8975,1.8887,1.8691,1.8486,1.8271,1.8047,1.7584,1.7369,1.7369,1.7393,1.7393,1.7369,1.7607,1.7705,1.7715,1.792,1.79,1.7705,1.7705,1.7588,1.7379,1.7603,1.7691,1.7691,1.7691,1.7691,1.7662,1.7447,1.7223,1.707,1.707,1.6631,1.6134,1.6338,1.6113,1.584,1.6279,1.6269,1.6112,1.6357,1.626,1.6015,1.5811,1.5752,1.5604,1.4921,1.4398,1.389,1.3322,1.3227,1.317,1.3042,1.3009,1.3036,1.3186,1.3048,1.2911,1.2911,1.2105,1.1557,1.1744,1.124,1.0872,1.0872,1.1027,1.0814,1.0059,1.0115,0.9993,0.9479,0.9472,0.9532,0.9708,0.9693,0.9737,0.9907,0.9619,0.9472,0.9472,0.8864,0.8599,0.8565,0.8058,0.7807,2.3774,2.529,2.5913,2.7786,2.7504,2.676,2.676,2.569,2.4651,2.4478,2.3555,2.2978,2.3753,2.2941,2.2392,2.316,2.1914,2.0761,2.0501,1.9868,1.9321,1.9108,1.9131,1.915,1.9072,1.9131,1.8994,1.8529,1.8422,1.8237,1.792,1.75,1.7275,1.7275,1.6846,1.6619,1.6697,1.7012,1.7012,1.6707,1.71,1.7275,1.7285,1.7627,1.7646,1.7416,1.7305,1.7061,1.6697,1.6697,1.6697,1.6697,1.6697,1.6697,1.6697,1.6697,1.6648,1.659,1.659,1.6328,1.5977,1.5977,1.5703,1.5478,1.587,1.5693,1.5488,1.588,1.5693,1.541,1.541,1.541,1.541,1.541,1.4894,1.4213,1.3545,1.3394,1.3394,1.3394,1.3394,1.3377,1.3309,1.3025,1.2804,1.2708,1.2192,1.1881,1.2005,1.1803,1.1662,1.1719,1.1699,1.1344,1.0463,1.0432,1.0176,0.9507,0.948,0.9535,0.9712,0.9452,0.939,0.9526,0.9264,0.9138,0.9138,0.8898,0.8804,0.8804,0.8804,0.8804,2.0734,2.3979,2.6939,2.8398,2.8336,2.7896,2.7896,2.6002,2.4509,2.5249,2.4568,2.3732,2.3419,2.326,2.3148,2.3286,2.241,2.1339,2.0177,1.9907,1.9424,1.8291,1.8471,1.8549,1.8223,1.8471,1.851,1.8125,1.7754,1.7529,1.7471,1.7051,1.6785,1.6785,1.6387,1.6338,1.6697,1.6406,1.6406,1.6697,1.6755,1.6785,1.6794,1.6843,1.708,1.7396,1.6982,1.6755,1.6697,1.6697,1.6697,1.6697,1.6697,1.6697,1.6697,1.6697,1.6484,1.6183,1.6183,1.5899,1.5498,1.5498,1.5459,1.542,1.5478,1.5459,1.542,1.5488,1.5459,1.541,1.541,1.541,1.541,1.541,1.5323,1.5196,1.5108,1.5079,1.5079,1.5079,1.5079,1.4964,1.4611,1.4505,1.4343,1.3943,1.302,1.2609,1.3258,1.2195,1.1502,1.1834,1.1755,1.1431,1.0791,1.1001,1.0997,1.0605,1.0581,1.0355,0.9817,0.9747,0.9465,0.8925,0.8884,0.8864,0.8864,0.8824,0.8804,0.8804,0.8804,0.8804,1.9068,2.1889,2.4286,2.6939,2.7483,2.7498,2.7982,2.6991,2.5871,2.5727,2.529,2.4836,2.4651,2.3687,2.3136,2.3719,2.2524,2.1196,2.0313,1.9944,1.9469,1.8596,1.8921,1.8967,1.8332,1.8717,1.873,1.8061,1.7627,1.7383,1.7383,1.6728,1.6357,1.6357,1.5928,1.5791,1.5966,1.6065,1.6193,1.6357,1.6113,1.6123,1.6348,1.6103,1.623,1.6662,1.6436,1.6221,1.5966,1.5966,1.5966,1.5966,1.5966,1.5966,1.5966,1.5966,1.5869,1.5693,1.5693,1.5566,1.541,1.541,1.541,1.541,1.541,1.541,1.5497,1.5892,1.5729,1.5497,1.5921,1.5719,1.541,1.541,1.541,1.541,1.541,1.541,1.541,1.541,1.5225,1.5,1.4814,1.4412,1.4004,1.3782,1.3164,1.2852,1.3169,1.2621,1.2251,1.245,1.2416,1.2092,1.1417,1.1497,1.137,1.0821,1.0788,1.0669,1.0364,1.0364,1.0218,0.9917,0.9562,0.9185,0.8804,0.9562,0.9536,0.8811,0.9185,0.9159,1.7283,1.9569,2.1396,2.4482,2.5649,2.6256,2.7005,2.6776,2.6262,2.5872,2.5503,2.5301,2.5553,2.4296,2.3444,2.4066,2.2662,2.1255,2.0624,2.0138,1.964,1.9163,1.934,1.9324,1.8839,1.9169,1.9013,1.8009,1.77,1.7417,1.7083,1.6349,1.5928,1.5928,1.5478,1.5303,1.541,1.594,1.6098,1.5919,1.5956,1.6035,1.6208,1.6033,1.6045,1.6188,1.6018,1.5713,1.541,1.541,1.541,1.541,1.541,1.541,1.541,1.541,1.5342,1.5254,1.5254,1.5186,1.5059,1.5059,1.5173,1.5364,1.5491,1.5636,1.5912,1.6592,1.6397,1.6083,1.6652,1.6368,1.5968,1.5968,1.5849,1.5694,1.5439,1.5322,1.5254,1.5254,1.4912,1.459,1.4482,1.3936,1.3477,1.3359,1.3076,1.2944,1.3027,1.2949,1.2944,1.3027,1.2964,1.2691,1.2129,1.208,1.1882,1.1384,1.1325,1.125,1.1065,1.104,1.0965,1.0788,1.0491,0.9987,0.9309,1.0312,1.0295,0.9309,0.9814,0.9788,1.4647,1.7228,1.9585,2.1107,2.276,2.4146,2.4576,2.4286,2.424,2.5549,2.4981,2.4544,2.5439,2.509,2.4521,2.4073,2.3005,2.195,2.1086,2.0506,2.0047,1.9708,1.9221,1.9132,1.9599,1.9665,1.9158,1.7895,1.7915,1.7441,1.6244,1.5693,1.5449,1.5449,1.5039,1.501,1.541,1.6114,1.6134,1.5449,1.6838,1.7118,1.6495,1.7185,1.7129,1.6438,1.573,1.543,1.541,1.541,1.541,1.541,1.541,1.541,1.541,1.541,1.5156,1.4814,1.4814,1.4551,1.4172,1.4172,1.46,1.52,1.5714,1.6262,1.6842,1.7389,1.7523,1.7484,1.7523,1.7523,1.7495,1.7495,1.7113,1.6472,1.5601,1.5098,1.4814,1.4814,1.4463,1.4016,1.3643,1.3535,1.3369,1.2993,1.2915,1.3052,1.3418,1.315,1.3062,1.3437,1.3125,1.2881,1.2856,1.2847,1.2832,1.2774,1.2774,1.2486,1.1765,1.174,1.1441,1.0813,1.1391,1.1366,1.0686,1.0771,1.0762,1.0686,1.0737,1.0745,1.1492,1.3039,1.4597,1.7332,1.9419,2.103,2.1944,2.2744,2.3367,2.3466,2.3616,2.3747,2.3741,2.4043,2.423,2.4029,2.3321,2.2593,2.1925,2.1379,2.086,2.0407,2.0169,1.9924,1.9547,1.9831,1.9745,1.9069,0.0,1.8151,1.8042,1.6803,1.6122,1.6122,1.5522,1.5484,1.6093,1.6379,1.6624,1.6828,1.7357,1.7468,1.7219,1.7119,1.6948,1.6667,1.6042,1.5499,1.5038,1.5423,1.5446,1.5222,1.5497,1.5436,1.525,1.5507,1.5334,1.4985,1.4985,1.5153,1.5257,1.4861,1.5164,1.5701,1.5916,1.6115,1.6442,1.7099,1.7205,1.7189,1.7655,1.7683,1.7605,1.7605,1.6937,1.6299,1.6299,1.5908,1.5458,1.5065,1.4935,1.4574,1.3653,1.3611,1.3506,1.2973,1.2905,1.2964,1.3111,1.2993,1.2964,1.3096,1.2993,1.2905,1.2905,1.2905,1.2905,1.2905,1.2905,1.2774,1.2535,1.2501,1.2378,1.2157,1.2378,1.194,1.0788,1.1717,1.1692,1.0813,1.1241,1.1216,0.8751,0.9937,1.1215,1.3549,1.5609,1.7292,1.8257,1.9698,2.0859,2.09,2.1452,2.2001,2.2155,2.2651,2.3139,2.3396,2.2799,2.2184,2.1807,2.128,2.0865,2.0717,2.0515,2.0252,1.987,2.0169,2.0094,1.9404,0.0,0.0,1.8608,1.7494,1.6727,1.6417,1.5672,1.5573,1.6079,1.6689,1.7087,1.7332,1.7817,1.7924,1.7687,1.7404,1.7122,1.6883,1.6528,1.5946,1.5222,1.5652,1.5648,1.5429,1.5712,1.5648,1.544,1.5696,1.5541,1.5173,1.5173,1.5357,1.5501,1.5103,1.5364,1.589,1.6085,1.6289,1.6604,1.7267,1.7369,1.7377,1.7868,1.7891,1.7766,1.7566,1.6983,1.6518,1.6668,1.6205,1.5645,1.5239,1.5137,1.4847,1.4045,1.4002,1.3967,1.3563,1.3334,1.32,1.32,1.3041,1.2905,1.2905,1.2905,1.2905,1.2905,1.2905,1.2905,1.2905,1.2905,1.2905,1.2905,1.2905,1.2905,1.2905,1.2905,1.2437,1.1509,1.2437,1.2412,1.1509,1.1956,1.194,0.0,0.0,0.0,0.9867,1.1418,1.3039,1.3588,1.5035,1.6628,1.7868,1.8473,1.9242,2.0793,2.1105,2.1373,2.2114,2.1405,2.0767,2.0742,2.0225,2.0075,2.0654,2.0175,2.0037,2.0616,2.0666,2.0135,0.0,1.9296,1.9065,1.776,1.7649,1.7174,1.621,1.5511,1.5209,1.5352,1.7045,1.7534,1.6845,1.8308,1.861,1.792,1.808,1.7785,1.7109,1.7097,1.6668,1.602,1.6017,1.6006,1.5995,1.6006,1.6006,1.5995,1.6006,1.5706,1.5296,1.5296,1.5066,1.4744,1.4721,1.5118,1.5727,1.624,1.6869,1.7463,1.8003,1.8166,1.8191,1.8204,1.8191,1.8053,1.7549,1.741,1.7212,1.6638,1.589,1.532,1.532,1.5023,1.4744,1.4709,1.4698,1.4721,1.4698,1.419,1.3815,1.3815,1.331,1.2929,1.2929,1.2905,1.2905,1.2905,1.2929,1.2929,1.2929,1.2954,1.2954,1.2954,1.2954,1.2954,1.2929,1.2929,1.2929,1.2905,1.2905,1.2905,1.2905,1.2905,1.2905,0.5752,0.0,0.0,0.0,0.0,0.0,1.1194,1.2181,1.3269,1.4264,1.5041,1.6075,1.7729,1.8596,1.9373,2.0205,2.1514,2.2309,2.1907,2.1719,2.1531,2.1292,2.0792,2.0352,2.0075,2.0037,0.0,0.0,1.9911,1.9768,1.9853,1.8546,1.7272,1.6087,1.5873,1.6023,1.6592,1.7472,1.7864,1.7812,1.8623,1.8684,1.8116,1.7783,1.751,1.7276,1.6845,1.6549,1.6348,1.6256,1.6009,1.573,1.6079,1.6021,1.5742,1.6102,1.5916,1.5531,1.5531,1.5741,1.5932,1.5477,1.5754,1.6284,1.6423,1.6604,1.6763,1.6914,1.7287,1.7702,1.8103,1.7903,1.7664,1.7915,1.735,1.6823,1.7087,1.6623,1.6049,1.5599,1.5784,1.5722,1.4858,1.505,1.5208,1.4766,1.456,1.4445,1.4445,1.392,1.3552,1.3552,1.3152,1.2905,1.2905,1.331,1.3552,1.3552,1.3967,1.4201,1.4201,1.4201,1.4001,1.3552,1.3552,1.3334,1.2905,1.2905,1.2905,1.2905,1.2905,1.2905,0.5412,0.58,0.6273,0.6447,0.0,0.0,0.8783,0.9423,1.0264,1.1038,1.16,1.2557,1.4488,1.5737,1.6963,1.834,2.0566,2.2116,2.2078,2.2095,2.2056,2.1966,2.1208,2.0566,2.02,2.0189,2.0226,2.0327,1.9987,1.9861,1.9974,1.8712,1.7559,1.6607,1.6317,1.6382,1.6854,1.7411,1.7761,1.7865,1.8191,1.8179,1.784,1.7275,1.7024,1.6999,1.6638,1.65,1.6491,1.6418,1.6211,1.5988,1.6284,1.6211,1.6001,1.6296,1.6199,1.5986,1.5986,1.6216,1.6445,1.6095,1.6216,1.65,1.65,1.65,1.65,1.65,1.676,1.7099,1.7413,1.7262,1.7099,1.7426,1.6977,1.6588,1.6948,1.676,1.6402,1.6051,1.6259,1.6272,1.5567,1.5732,1.5876,1.55,1.5242,1.5085,1.5085,1.4549,1.4167,1.4167,1.386,1.3658,1.3658,1.3967,1.4167,1.4167,1.4514,1.4698,1.4698,1.4698,1.4537,1.4167,1.4167,1.3873,1.3262,1.3017,1.2905,1.2905,1.2905,1.2905,0.5477,0.5542,0.561,0.5593,0.6176,0.0,0.6589,0.7031,0.7654,0.8326,0.8451,0.9131,1.136,1.2816,1.4366,1.6392,1.8876,2.0859,2.1666,2.1965,2.2244,2.2658,2.177,2.1085,2.0914,2.0851,2.0584,1.9936,1.9836,1.9572,1.9033,1.8435,1.7885,1.7413,1.6752,1.6438,1.65,1.7087,1.7373,1.731,1.7373,1.7373,1.7285,1.6748,1.65,1.65,1.65,1.65,1.65,1.65,1.65,1.65,1.65,1.65,1.65,1.65,1.65,1.65,1.65,1.65,1.65,1.65,1.65,1.65,1.65,1.65,1.65,1.65,1.65,1.65,1.65,1.65,1.65,1.65,1.65,1.65,1.65,1.65,1.65,1.65,1.65,1.65,1.65,1.65,1.65,1.65,1.6051,1.5698,1.5698,1.5163,1.4789,1.4789,1.4744,1.4698,1.4698,1.4766,1.4789,1.4789,1.4858,1.4915,1.4915,1.4915,1.4858,1.4789,1.4721,1.4445,1.3909,1.3286,1.2978,1.2905,1.2905,1.2905,0.5691,0.5739,0.5732,0.5616,0.5814,0.0,0.5721,0.5833,0.6216,0.6929,0.6953,0.7414,0.9257,1.0887,1.2458,1.4173,1.7422,2.0174,2.1459,2.2948,2.3765,2.3449,2.3604,2.3366,2.2325,2.1839,2.129,2.0581,2.0062,1.9572,1.9033,1.8472,1.7936,1.7423,1.6801,1.6492,1.65,1.7087,1.7149,1.6685,1.7162,1.7137,1.6663,1.655,1.65,1.65,1.65,1.65,1.65,1.65,1.65,1.65,1.65,1.65,1.65,1.65,1.65,1.65,1.65,1.65,1.65,1.65,1.65,1.65,1.65,1.65,1.65,1.65,1.65,1.65,1.65,1.65,1.65,1.65,1.65,1.65,1.65,1.65,1.65,1.65,1.65,1.65,1.65,1.65,1.65,1.65,1.6402,1.6315,1.6315,1.5798,1.541,1.541,1.4983,1.4698,1.4698,1.5141,1.541,1.541,1.5876,1.6151,1.6151,1.6151,1.592,1.5432,1.4949,1.4629,1.4514,1.392,1.3372,1.2905,1.2905,1.2905,0.5803,0.5857,0.5881,0.5732,0.5749,0.0,0.0,0.5362,0.5467,0.5834,0.5716,0.5953,0.727,0.8393,0.9824,1.1988,1.5013,1.7766,1.9756,2.2072,2.3689,2.4008,2.3766,2.3277,2.2578,2.226,2.172,2.0758,2.0125,1.9572,1.9033,1.8744,1.8242,1.7436,1.7099,1.681,1.65,1.681,1.681,1.65,1.681,1.6798,1.65,1.65,1.65,1.65,1.65,1.65,1.65,1.65,1.65,1.65,1.65,1.65,1.65,1.65,1.65,1.65,1.65,1.65,1.65,1.65,1.65,1.65,1.65,1.65,1.65,1.65,1.65,1.65,1.65,1.65,1.6573,1.6837,1.6888,1.6972,1.7229,1.7312,1.7312,1.7312,1.7076,1.6816,1.6552,1.65,1.65,1.65,1.65,1.65,1.65,1.6238,1.6051,1.6051,1.5788,1.5611,1.5611,1.5876,1.6051,1.6051,1.6324,1.65,1.65,1.65,1.6358,1.6051,1.5744,1.5444,1.5141,1.4846,1.4388,1.38,1.3491,1.3348,0.5833,0.5915,0.5949,0.5806,0.5803,0.5762,0.0,0.0,0.0,0.5147,0.4962,0.4928,0.5468,0.6188,0.741,0.963,0.0,0.0,0.0,2.0206,0.0,2.4343,2.3445,2.2752,2.2964,2.2538,2.1757,2.0619,2.0075,1.9623,1.9171,1.9058,1.8568,1.7564,1.7461,1.7099,1.65,1.65,1.65,1.65,1.65,1.65,1.65,1.65,1.6552,1.6659,1.6531,1.6552,1.6659,1.6531,1.65,1.65,1.65,1.65,1.65,1.65,1.65,1.65,1.65,1.65,1.6522,1.6616,1.671,1.6816,1.6816,1.6816,1.6816,1.6816,1.6816,1.6816,1.6816,1.6816,1.6909,1.7353,1.7442,1.7565,1.8007,1.8106,1.8106,1.8106,1.7747,1.7271,1.6752,1.6573,1.65,1.65,1.65,1.65,1.65,1.65,1.65,1.65,1.65,1.65,1.65,1.65,1.65,1.65,1.65,1.65,1.65,1.65,1.65,1.65,1.65,1.6259,1.5764,1.5764,1.5399,1.4686,1.419,1.398,0.5806,0.5915,0.5925,0.5684,0.581,0.5891,0.5494,0.0,0.5501,0.5395,0.0,0.486,0.4172,0.0,0.0,0.6597,1.0136,1.3433,1.5163,1.7675,2.0662,2.4253,2.3614,2.3463,2.5,2.3048,2.1186,1.9988,1.9836,1.9773,1.971,1.9259,1.8719,1.8129,1.7662,1.7099,1.65,1.65,1.65,1.65,1.65,1.65,1.65,1.65,1.6752,1.7167,1.671,1.6774,1.7167,1.6689,1.65,1.65,1.65,1.65,1.65,1.65,1.65,1.65,1.65,1.65,1.6573,1.7055,1.7524,1.7927,1.7927,1.7927,1.7927,1.7927,1.7927,1.7927,1.7927,1.7927,1.7927,1.7987,1.8007,1.8027,1.8086,1.8106,1.8106,1.8106,1.8046,1.7847,1.7312,1.6816,1.65,1.65,1.65,1.65,1.65,1.65,1.65,1.65,1.65,1.65,1.65,1.65,1.65,1.65,1.65,1.65,1.65,1.65,1.65,1.65,1.65,1.6466,1.6402,1.6402,1.581,1.4698,1.4629,1.4606,0.5827,0.0,0.0,0.0,0.0,0.0,0.5573,0.0,0.5498,0.0,0.0,0.0,0.0,0.0,0.0,0.0,0.8201,1.106,0.0,0.0,1.792,2.1997,0.0,0.0,2.2699,0.0,0.0,0.0,1.9798,1.9798,1.9798,1.9284,1.8744,1.8229,1.7664,1.7099,1.65,1.65,1.65,1.65,1.65,1.65,1.6522,1.6816,1.7097,1.7312,1.7394,1.7565,1.7747,1.7524,1.7422,1.7422,1.7422,1.7229,1.6993,1.7312,1.7422,1.7422,1.7422,1.7422,1.7463,1.7686,1.7927,1.8106,1.8106,1.8106,1.8106,1.8106,1.8106,1.8106,1.8106,1.8106,1.8185,1.8496,1.8554,1.865,1.8968,1.9024,1.9024,1.9024,1.8779,1.8496,1.8283,1.7787,1.7333,1.7013,1.6951,1.6858,1.6531,1.65,1.65,1.65,1.65,1.65,1.65,1.65,1.65,1.65,1.65,1.65,1.65,1.65,1.65,1.65,1.65,1.65,1.65,1.65,1.625,1.5734,1.5704,1.5521,0.5792,0.0,0.0,0.0,0.0,0.0,0.0,0.0,0.0,0.0,0.0,0.0,0.0,0.0,0.4863,0.4585,0.0,0.9329,1.104,1.313,1.6033,0.0,0.0,0.0,0.0,0.0,0.0,1.9623,1.9723,1.9748,1.9597,1.9334,1.897,1.8442,1.789,1.7338,1.676,1.6575,1.6573,1.671,1.671,1.6795,1.6951,1.7353,1.7605,1.7747,1.7987,1.8185,1.8322,1.8165,1.8106,1.8125,1.8263,1.8086,1.7767,1.8007,1.8106,1.8106,1.8106,1.8204,1.8322,1.8322,1.8419,1.8535,1.8535,1.8535,1.8535,1.8535,1.8535,1.8535,1.8535,1.8535,1.8631,1.9024,1.9132,1.9225,1.9621,1.9708,1.9708,1.9708,1.9387,1.9132,1.9132,1.8554,1.7967,1.7585,1.7524,1.7394,1.6993,1.693,1.693,1.693,1.6816,1.671,1.671,1.6573,1.65,1.65,1.65,1.65,1.65,1.65,1.65,1.65,1.65,1.65,1.65,1.65,1.65,1.65,1.6455,1.6205,0.0,0.0,0.0,0.5446,0.0,0.0,0.0,0.0,0.5395,0.0,0.0,0.0,0.0,0.4605,0.476,0.3794,0.6381,0.0,0.0,1.2345,1.5742,1.9573,2.158,0.0,0.0,2.043,2.0313,1.9108,1.9522,1.9559,1.9058,1.951,1.9535,1.8995,1.8444,1.7915,1.7385,1.6798,1.6752,1.7271,1.7271,1.7544,1.8046,1.8066,1.8361,1.8817,1.8322,1.84,1.8836,1.8322,1.8106,1.8165,1.8669,1.8855,1.8798,1.8302,1.8106,1.8106,1.8106,1.8438,1.8874,1.8874,1.9225,1.9639,1.9639,1.9639,1.9639,1.9639,1.9639,1.9639,1.9639,1.9639,1.9639,1.9672,1.9672,1.969,1.9708,1.9708,1.9708,1.9708,1.969,1.9672,1.9672,1.8798,1.8086,1.8086,1.8066,1.8066,1.8046,1.8046,1.8046,1.8046,1.7585,1.7271,1.7271,1.6795,1.65,1.65,1.65,1.65,1.65,1.65,1.65,1.65,1.65,1.65,1.65,1.65,1.65,1.65,1.6491,1.6491,0.0,0.0,0.546,0.5405,0.0,0.0,0.0,0.0,0.0,0.0,0.0,0.0,0.0,0.4608,0.4795,0.389,0.5815,0.7835,0.0,1.2572,1.5866,1.7958,1.9413,1.984,0.0,0.0,0.0,1.8025,1.8781,1.9196,1.9008,1.9522,1.956,1.902,1.8469,1.794,1.741,1.7153,1.7105,1.7312,1.7666,1.7927,1.8125,1.8477,1.8727,1.8912,1.908,1.9262,1.9424,1.9225,1.9169,1.9188,1.9369,1.9424,1.9406,1.9225,1.9169,1.9169,1.9169,1.9281,1.9424,1.9424,1.9548,1.9708,1.9708,1.9708,1.9708,1.9708,1.9708,1.9708,1.9708,1.9708,1.9708,1.9708,1.9708,1.9708,1.9708,1.9708,1.9708,1.9708,1.9708,1.9708,1.9708,1.9406,1.9043,1.8669,1.8631,1.8496,1.8165,1.8106,1.8106,1.8106,1.7947,1.7827,1.7827,1.7666,1.7565,1.7565,1.7565,1.7565,1.7565,1.7565,1.7565,1.7565,1.7565,1.7565,1.7565,1.7188,1.7034,1.7013,1.668,1.65,0.6819,0.6075,0.0,0.5395,0.5395,0.0,0.5395,0.0,0.5395,0.0,0.0,0.0,0.0,0.0,0.4983,0.4307,0.5741,0.7655,0.0,1.2685,1.5388,1.7109,1.8306,1.8849,1.8517,1.8814,1.8565,1.7483,1.8229,1.8707,0.0,0.0,1.9434,1.9284,1.8593,1.8122,1.7983,1.7509,1.7483,1.7867,1.8224,1.8477,1.8669,1.9024,1.9188,1.9207,1.9548,1.9708,1.9708,1.9708,1.9708,1.9708,1.9708,1.9708,1.9708,1.9708,1.9708,1.9708,1.9708,1.9708,1.9708,1.9708,1.9708,1.9708,1.9708,1.98,1.9909,1.9909,2.0032,2.0156,2.0156,2.0156,2.0156,2.0156,2.0156,2.0156,2.0156,2.0156,2.0156,2.0156,2.0156,2.012,1.9929,1.9909,1.9752,1.9262,1.9188,1.9062,1.8708,1.8669,1.8669,1.8669,1.8496,1.8322,1.8125,1.8106,1.8106,1.8106,1.8106,1.8106,1.8106,1.8106,1.8222,1.845,1.8236,1.8222,1.845,1.7862,1.7585,1.7565,1.7034,1.6774]}]]